[[{"header":{"parameterUnit":"m.s-1","parameterCategory":1,"la1":30.6,"la2":28.766,"lo1":-90.7593,"lo2":-88.6598,"dy":0.0162,"dx":0.0183,"nx":116,"ny":114,"refTime":"2024-05-25T12:00:00:Z","depth":0,"parameterNumber":2,"parameterNumberName":"U-component_of_WINDS"},"data":[0.0,0.0,0.0,0.0,0.0,0.0,0.0,0.0,0.0,0.0,0.0,0.0,0.0,0.0,0.0,0.0,0.0,0.0,0.0,0.0,0.0,0.0,0.0,0.0,0.0,0.0,0.0,0.0,0.0,0.0,0.0,0.0,0.0,0.0,0.0,0.0,0.0,0.0,0.0,0.0,0.0,0.0,0.0,0.0,0.0,0.0,0.0,0.0,0.0,0.0,0.0,0.0,0.0,0.0,0.0,0.0,0.0,0.0,0.0,0.0,0.0,0.0,0.0,0.0,0.0,0.0,0.0,0.0,0.0,0.0,0.0,0.0,0.0,0.0,0.0,0.0,0.0,0.0,0.0,0.0,0.0,0.0,0.0,0.0,0.0,0.0,0.0,0.0,0.0,0.0,0.0,0.0,0.0,0.0,0.0,0.0,0.0,0.0,0.0,0.0,0.0,0.0,0.0,0.0,0.0,0.0,0.0,0.0,0.0,0.0,0.0,0.0,0.0,0.0,0.0,0.0,0.0,0.0,0.0,0.0,0.0,0.0,0.0,0.0,0.0,0.0,0.0,0.0,0.0,0.0,0.0,0.0,0.0,0.0,0.0,0.0,0.0,0.0,0.0,0.0,0.0,0.0,0.0,0.0,0.0,0.0,0.0,0.0,0.0,0.0,0.0,0.0,0.0,0.0,0.0,0.0,0.0,0.0,0.0,0.0,0.0,0.0,0.0,0.0,0.0,0.0,0.0,0.0,0.0,0.0,0.0,0.0,0.0,0.0,0.0,0.0,0.0,0.0,0.0,0.0,0.0,0.0,0.0,0.0,0.0,0.0,0.0,0.0,0.0,0.0,0.0,0.0,0.0,0.0,0.0,0.0,0.0,0.0,0.0,0.0,0.0,0.0,0.0,0.0,0.0,0.0,0.0,0.0,0.0,0.0,0.0,0.0,0.0,0.0,0.0,0.0,0.0,0.0,0.0,0.0,0.0,0.0,0.0,0.0,0.0,0.0,0.0,0.0,0.0,0.0,0.0,0.0,0.0,0.0,0.0,0.0,0.0,0.0,0.0,0.0,0.0,0.0,0.0,0.0,0.0,0.0,0.0,0.0,0.0,0.0,0.0,0.0,0.0,0.0,0.0,0.0,0.0,0.0,0.0,0.0,0.0,0.0,0.0,0.0,0.0,0.0,0.0,0.0,0.0,0.0,0.0,0.0,0.0,0.0,0.0,0.0,0.0,0.0,0.0,0.0,0.0,0.0,0.0,0.0,0.0,0.0,0.0,0.0,0.0,0.0,0.0,0.0,0.0,0.0,0.0,0.0,0.0,0.0,0.0,0.0,0.0,0.0,0.0,0.0,0.0,0.0,0.0,0.0,0.0,0.0,0.0,0.0,0.0,0.0,0.0,0.0,0.0,0.0,0.0,0.0,0.0,0.0,0.0,0.0,0.0,0.0,0.0,0.0,0.0,0.0,0.0,0.0,0.0,0.0,0.0,0.0,0.0,0.0,0.0,0.0,0.0,0.0,0.0,0.0,0.0,0.0,0.0,0.0,0.0,0.0,0.0,0.0,0.0,0.0,0.0,0.0,0.0,0.0,0.0,0.0,0.0,0.0,0.0,0.0,0.0,0.0,0.0,0.0,0.0,0.0,0.0,0.0,0.0,0.0,0.0,0.0,0.0,0.0,0.0,0.0,0.0,0.0,0.0,0.0,0.0,0.0,0.0,0.0,0.0,0.0,0.0,0.0,0.0,0.0,0.0,0.0,0.0,0.0,0.0,0.0,0.0,0.0,0.0,0.0,0.0,0.0,0.0,0.0,0.0,0.0,0.0,0.0,0.0,0.0,0.0,0.0,0.0,0.0,0.0,0.0,0.0,0.0,0.0,0.0,0.0,0.0,0.0,0.0,0.0,0.0,0.0,0.0,0.0,0.0,0.0,0.0,0.0,0.0,0.0,0.0,0.0,0.0,0.0,0.0,0.0,0.0,0.0,0.0,0.0,0.0,0.0,0.0,0.0,0.0,0.0,0.0,0.0,0.0,0.0,0.0,0.0,0.0,0.0,0.0,0.0,0.0,0.0,0.0,0.0,0.0,0.0,0.0,0.0,0.0,0.0,0.0,0.0,0.0,0.0,0.0,0.0,0.0,0.0,0.0,0.0,0.0,0.0,0.0,0.0,0.0,0.0,0.0,0.0,0.0,0.0,0.0,0.0,0.0,0.0,0.0,0.0,0.0,0.0,0.0,0.0,0.0,0.0,0.0,0.0,0.0,0.0,0.0,0.0,0.0,0.0,0.0,0.0,0.0,0.0,0.0,0.0,0.0,0.0,0.0,0.0,0.0,0.0,0.0,0.0,0.0,0.0,0.0,0.0,0.0,0.0,0.0,0.0,0.0,0.0,0.0,0.0,0.0,0.0,0.0,0.0,0.0,0.0,0.0,0.0,0.0,0.0,0.0,0.0,0.0,0.0,0.0,0.0,0.0,0.0,0.0,0.0,0.0,0.0,0.0,0.0,0.0,0.0,0.0,0.0,0.0,0.0,0.0,0.0,0.0,0.0,0.0,0.0,0.0,0.0,0.0,0.0,0.0,0.0,0.0,0.0,0.0,0.0,0.0,0.0,0.0,0.0,0.0,0.0,0.0,0.0,0.0,0.0,0.0,0.0,0.0,0.0,0.0,0.0,0.0,0.0,0.0,0.0,0.0,0.0,0.0,0.0,0.0,0.0,0.0,0.0,0.0,0.0,0.0,0.0,0.0,0.0,0.0,0.0,0.0,0.0,0.0,0.0,0.0,0.0,0.0,0.0,0.0,0.0,0.0,0.0,0.0,0.0,0.0,0.0,0.0,0.0,0.0,0.0,0.0,0.0,0.0,0.0,0.0,0.0,0.0,0.0,0.0,0.0,0.0,0.0,0.0,0.0,0.0,0.0,0.0,0.0,0.0,0.0,0.0,0.0,0.0,0.0,0.0,0.0,0.0,0.0,0.0,0.0,0.0,0.0,0.0,0.0,0.0,0.0,0.0,0.0,0.0,0.0,0.0,0.0,0.0,0.0,0.0,0.0,0.0,0.0,0.0,0.0,0.0,0.0,0.0,0.0,0.0,0.0,0.0,0.0,0.0,0.0,0.0,0.0,0.0,0.0,0.0,0.0,0.0,0.0,0.0,0.0,0.0,0.0,0.0,0.0,0.0,0.0,0.0,0.0,0.0,0.0,0.0,0.0,0.0,0.0,0.0,0.0,0.0,0.0,0.0,0.0,0.0,0.0,0.0,0.0,0.0,0.0,0.0,0.0,0.0,0.0,0.0,0.0,0.0,0.0,0.0,0.0,0.0,0.0,0.0,0.0,0.0,0.0,0.0,0.0,0.0,0.0,0.0,0.0,0.0,0.0,0.0,0.0,0.0,0.0,0.0,0.0,0.0,0.0,0.0,0.0,0.0,0.0,0.0,0.0,0.0,0.0,0.0,0.0,0.0,0.0,0.0,0.0,0.0,0.0,0.0,0.0,0.0,0.0,0.0,0.0,0.0,0.0,0.0,0.0,0.0,0.0,0.0,0.0,0.0,0.0,0.0,0.0,0.0,0.0,0.0,0.0,0.0,0.0,0.0,0.0,0.0,0.0,0.0,0.0,0.0,0.0,0.0,0.0,0.0,0.0,0.0,0.0,0.0,0.0,0.0,0.0,0.0,0.0,0.0,0.0,0.0,0.0,0.0,0.0,0.0,0.0,0.0,0.0,0.0,0.0,0.0,0.0,0.0,0.0,0.0,0.0,0.0,0.0,0.0,0.0,0.0,0.0,0.0,0.0,0.0,0.0,0.0,0.0,0.0,0.0,0.0,0.0,0.0,0.0,0.0,0.0,0.0,0.0,0.0,0.0,0.0,0.0,0.0,0.0,0.0,0.0,0.0,0.0,0.0,0.0,0.0,0.0,0.0,0.0,0.0,0.0,0.0,0.0,0.0,0.0,0.0,0.0,0.0,0.0,0.0,0.0,0.0,0.0,0.0,0.0,0.0,0.0,0.0,0.0,0.0,0.0,0.0,0.0,0.0,0.0,0.0,0.0,0.0,0.0,0.0,0.0,0.0,0.0,0.0,0.0,0.0,0.0,0.0,0.0,0.0,0.0,0.0,0.0,0.0,0.0,0.0,0.0,0.0,0.0,0.0,0.0,0.0,0.0,0.0,0.0,0.0,0.0,0.0,0.0,0.0,0.0,0.0,0.0,0.0,0.0,0.0,0.0,0.0,0.0,0.0,0.0,0.0,0.0,0.0,0.0,0.0,0.0,0.0,0.0,0.0,0.0,0.0,0.0,0.0,0.0,0.0,0.0,0.0,0.0,0.0,0.0,0.0,0.0,0.0,0.0,0.0,0.0,0.0,0.0,0.0,0.0,0.0,0.0,0.0,0.0,0.0,0.0,0.0,0.0,0.0,0.0,0.0,0.0,0.0,0.0,0.0,0.0,0.0,0.0,0.0,0.0,0.0,0.0,0.0,0.0,0.0,0.0,0.0,0.0,0.0,0.0,0.0,0.0,0.0,0.0,0.0,0.0,0.0,0.0,0.0,0.0,0.0,0.0,0.0,0.0,0.0,0.0,0.0,0.0,0.0,0.0,0.0,0.0,0.0,0.0,0.0,0.0,0.0,0.0,0.0,0.0,0.0,0.0,0.0,0.0,0.0,0.0,0.0,0.0,0.0,0.0,0.0,0.0,0.0,0.0,0.0,0.0,0.0,0.0,0.0,0.0,0.0,0.0,0.0,0.0,0.0,0.0,0.0,0.0,0.0,0.0,0.0,0.0,0.0,0.0,0.0,0.0,0.0,0.0,0.0,0.0,0.0,0.0,0.0,0.0,0.0,0.0,0.0,0.0,0.0,0.0,0.0,0.0,0.0,0.0,0.0,0.0,0.0,0.0,0.0,0.0,0.0,0.0,0.0,0.0,0.0,0.0,0.0,0.0,0.0,0.0,0.0,0.0,0.0,0.0,0.0,0.0,0.0,0.0,0.0,0.0,0.0,0.0,0.0,0.0,0.0,0.0,0.0,0.0,0.0,0.0,0.0,0.0,0.0,0.0,0.0,0.0,0.0,0.0,0.0,0.0,0.0,0.0,0.0,0.0,0.0,0.0,0.0,0.0,0.0,0.0,0.0,0.0,0.0,0.0,0.0,0.0,0.0,0.0,0.0,0.0,0.0,0.0,0.0,0.0,0.0,0.0,0.0,0.0,0.0,0.0,0.0,0.0,0.0,0.0,0.0,0.0,0.0,0.0,0.0,0.0,0.0,0.0,0.0,0.0,0.0,0.0,0.0,0.0,0.0,0.0,0.0,0.0,0.0,0.0,0.0,0.0,0.0,0.0,0.0,0.0,0.0,0.0,0.0,0.0,0.0,0.0,0.0,0.0,0.0,0.0,0.0,0.0,0.0,0.0,0.0,0.0,0.0,0.0,0.0,0.0,0.0,0.0,0.0,0.0,0.0,0.0,0.0,0.0,0.0,0.0,0.0,0.0,0.0,0.0,0.0,0.0,0.0,0.0,0.0,0.0,0.0,0.0,0.0,0.0,0.0,0.0,0.0,0.0,0.0,0.0,0.0,0.0,0.0,0.0,0.0,0.0,0.0,0.0,0.0,0.0,0.0,0.0,0.0,0.0,0.0,0.0,0.0,0.0,0.0,0.0,0.0,0.0,0.0,0.0,0.0,0.0,0.0,0.0,0.0,0.0,0.0,0.0,0.0,0.0,0.0,0.0,0.0,0.0,0.0,0.0,0.0,0.0,0.0,0.0,0.0,0.0,0.0,0.0,0.0,0.0,0.0,0.0,0.0,0.0,0.0,0.0,0.0,0.0,0.0,0.0,0.0,0.0,0.0,0.0,0.0,0.0,0.0,0.0,0.0,0.0,0.0,0.0,0.0,0.0,0.0,0.0,0.0,0.0,0.0,0.0,0.0,0.0,0.0,0.0,0.0,0.0,0.0,0.0,0.0,0.0,0.0,0.0,0.0,0.0,0.0,0.0,0.0,0.0,0.0,0.0,0.0,0.0,0.0,0.0,0.0,0.0,0.0,0.0,0.0,0.0,0.0,0.0,0.0,0.0,0.0,0.0,0.0,0.0,0.0,0.0,0.0,-4.4115,0.0,0.0,0.0,0.0,0.0,0.0,0.0,0.0,0.0,0.0,0.0,0.0,0.0,0.0,0.0,0.0,0.0,0.0,0.0,0.0,0.0,0.0,0.0,0.0,-2.0282,-2.0934,-2.2554,-2.3004,-2.336,-2.3682,0.0,0.0,0.0,0.0,0.0,-2.3066,-2.2757,-2.3515,-2.5408,-2.5673,-2.7463,-3.0603,-3.0388,-2.8841,-2.6266,0.0,0.0,0.0,0.0,0.0,0.0,0.0,0.0,0.0,0.0,0.0,0.0,0.0,0.0,0.0,0.0,0.0,0.0,0.0,0.0,0.0,0.0,0.0,0.0,0.0,0.0,0.0,0.0,0.0,0.0,0.0,0.0,0.0,0.0,0.0,0.0,0.0,0.0,0.0,0.0,0.0,0.0,0.0,0.0,0.0,0.0,0.0,0.0,0.0,0.0,0.0,0.0,0.0,0.0,0.0,0.0,0.0,0.0,0.0,0.0,0.0,0.0,0.0,0.0,0.0,0.0,0.0,0.0,0.0,0.0,0.0,-4.5668,0.0,0.0,0.0,0.0,0.0,0.0,0.0,0.0,0.0,0.0,0.0,0.0,0.0,0.0,0.0,0.0,0.0,0.0,0.0,0.0,0.0,-1.9679,-2.0436,-2.0644,-2.1441,-2.3169,-2.3619,-2.3891,-2.4114,-2.4428,0.0,0.0,0.0,-2.3685,-2.3774,-2.4078,-2.5346,-2.7666,-2.8485,-3.0863,-3.4684,-3.681,-3.5684,-3.1882,-3.0498,0.0,0.0,0.0,0.0,0.0,0.0,0.0,0.0,0.0,0.0,0.0,0.0,0.0,0.0,0.0,0.0,0.0,0.0,0.0,0.0,0.0,0.0,0.0,0.0,0.0,0.0,0.0,0.0,0.0,0.0,0.0,0.0,0.0,0.0,0.0,0.0,0.0,0.0,0.0,0.0,0.0,0.0,0.0,0.0,0.0,0.0,0.0,0.0,0.0,0.0,0.0,0.0,0.0,0.0,0.0,0.0,0.0,0.0,0.0,0.0,0.0,0.0,0.0,-5.3258,-5.4278,-5.5854,-5.4397,-5.4724,-5.6251,-5.2631,-5.0569,-4.958,0.0,0.0,0.0,0.0,0.0,0.0,0.0,0.0,0.0,0.0,0.0,0.0,0.0,0.0,0.0,0.0,0.0,0.0,0.0,0.0,-2.0444,-2.126,-2.1975,-2.3278,-2.5522,-2.4556,-2.4368,-2.5709,-2.4581,0.0,0.0,-2.3663,-2.3718,-2.3703,-2.5152,-2.697,-2.9118,-3.4339,-3.7815,-3.9568,-4.0551,-4.0635,-3.9898,-3.589,-3.3703,-3.2821,0.0,0.0,0.0,0.0,0.0,0.0,0.0,0.0,0.0,0.0,0.0,0.0,0.0,0.0,0.0,0.0,0.0,0.0,0.0,0.0,0.0,0.0,0.0,0.0,0.0,0.0,0.0,0.0,0.0,0.0,0.0,0.0,0.0,0.0,0.0,0.0,0.0,0.0,0.0,0.0,0.0,-3.665,-3.907,0.0,0.0,0.0,0.0,0.0,0.0,0.0,0.0,0.0,0.0,0.0,0.0,0.0,0.0,-5.4425,-5.5842,-5.6921,-5.7688,-5.8367,-5.8852,-5.9133,-5.9512,-6.0117,-6.0919,-6.0367,0.0,-5.2689,-5.1729,0.0,0.0,0.0,0.0,0.0,0.0,0.0,0.0,0.0,0.0,0.0,0.0,0.0,0.0,0.0,0.0,0.0,0.0,0.0,0.0,0.0,-2.4437,-2.5997,-2.7882,-2.8639,-2.8347,-2.6787,-2.6846,-2.5936,-2.3703,-2.3629,-2.408,-2.5012,-2.6536,-2.9462,-3.3771,-3.9065,-4.2132,-4.3114,-4.4308,-4.4929,-4.5,-4.2863,-3.9711,-3.5811,-3.3387,0.0,0.0,0.0,0.0,0.0,0.0,0.0,0.0,0.0,0.0,0.0,0.0,0.0,0.0,0.0,0.0,0.0,0.0,0.0,0.0,0.0,0.0,0.0,0.0,0.0,0.0,0.0,0.0,0.0,0.0,0.0,0.0,0.0,0.0,0.0,0.0,0.0,0.0,0.0,-3.5582,-3.9617,-4.1401,-4.1748,-4.171,0.0,0.0,0.0,0.0,0.0,0.0,0.0,0.0,0.0,-5.5518,-5.5649,-5.6906,-5.9578,-5.9783,-6.0478,-6.1664,-6.2347,-6.2923,-6.3311,-6.3635,-6.3732,-6.3635,-6.3635,-6.1757,-5.8518,-5.6187,-5.3809,-5.1552,0.0,0.0,0.0,0.0,-5.298,-5.2587,0.0,0.0,0.0,0.0,0.0,0.0,0.0,0.0,0.0,0.0,0.0,0.0,-2.4801,-2.6715,-2.8645,-3.0543,-3.1978,-3.1676,-2.9088,-2.8909,-2.7583,-2.4611,-2.3929,-2.45,-2.6369,-2.9146,-3.3358,-3.9049,-4.2869,-4.5153,-4.6028,-4.7151,-4.7804,-4.7943,-4.7854,-4.488,-3.9883,-3.7596,-3.4943,-3.1958,0.0,0.0,0.0,0.0,0.0,0.0,0.0,0.0,0.0,0.0,0.0,0.0,0.0,0.0,0.0,0.0,0.0,0.0,0.0,0.0,0.0,0.0,0.0,0.0,0.0,0.0,0.0,0.0,0.0,0.0,0.0,0.0,0.0,0.0,0.0,0.0,0.0,-3.9175,-4.2635,-4.3699,-4.5277,-4.5747,0.0,0.0,0.0,0.0,0.0,0.0,-5.4136,-5.4601,-5.6513,-6.0256,-5.9934,-6.0942,-6.3484,-6.331,-6.3732,-6.4833,-6.5513,-6.6129,-6.6647,-6.6841,-6.6614,-6.6096,-6.574,-6.4963,-6.37,-5.9943,-5.7232,-5.5336,-5.5013,-5.4805,-5.4958,-5.7161,-5.7238,-5.664,0.0,0.0,0.0,0.0,0.0,0.0,0.0,0.0,0.0,0.0,0.0,-2.3464,-2.5697,-2.816,-3.0842,-3.3788,-3.2768,-3.2501,-3.3781,-2.9683,-2.7092,-2.6848,-2.4824,-2.4797,-2.7185,-3.3668,-3.9371,-4.4128,-4.5446,-4.6906,-4.8415,-4.8451,-4.8451,-4.8476,-4.8741,-4.8105,-4.6564,-4.1729,-3.9372,-3.8355,-3.2054,0.0,0.0,0.0,0.0,0.0,0.0,0.0,0.0,0.0,0.0,0.0,0.0,0.0,0.0,0.0,0.0,0.0,0.0,0.0,0.0,0.0,0.0,0.0,0.0,0.0,0.0,0.0,0.0,0.0,0.0,0.0,0.0,0.0,0.0,0.0,0.0,0.0,0.0,-4.7151,-5.0452,0.0,0.0,0.0,0.0,-5.2769,-5.4881,-5.7517,-6.0639,-6.0037,-6.1288,-6.5046,-6.3539,-6.339,-6.4881,-6.6226,-6.6971,-6.7035,-6.7715,-6.8072,-6.8104,-6.8816,-6.9108,-6.8978,-6.7651,-6.7035,-6.6647,-6.2372,-6.012,-5.9333,-5.9564,-5.9607,-5.9735,-6.1321,-6.1872,-6.1693,0.0,0.0,0.0,0.0,0.0,-1.8922,-1.8914,-1.9309,-1.99,-2.0636,-2.3488,-2.633,-2.8633,-3.1995,-3.491,-3.7006,-3.7113,-3.6416,-3.4934,-3.1842,-3.004,-3.0026,-2.7909,-2.9283,-3.4699,-3.9245,-4.3054,-4.6105,-4.7548,-4.8728,-4.9543,-4.9543,-4.9825,-5.0294,-5.0215,-4.9872,-4.9138,-4.5459,-4.2737,-4.0492,-3.615,-3.2364,0.0,0.0,0.0,0.0,0.0,0.0,0.0,0.0,0.0,0.0,0.0,0.0,0.0,0.0,0.0,0.0,0.0,0.0,0.0,0.0,0.0,0.0,0.0,0.0,0.0,0.0,0.0,0.0,0.0,0.0,0.0,0.0,0.0,0.0,0.0,0.0,0.0,-5.161,-5.3928,0.0,0.0,-5.5156,-5.6842,-5.7579,-5.979,-6.1742,-6.3224,-6.3391,-6.4407,-6.6522,-6.5994,-6.655,-6.846,-6.8072,-6.8072,-6.8525,-6.8298,-6.8201,-6.8201,-6.846,-6.8331,-6.7942,-6.7845,-6.7327,-6.6469,-6.6012,-6.4815,-6.3501,-6.5243,-6.5611,-6.5331,-6.6442,-6.5783,-6.433,0.0,0.0,0.0,0.0,-1.8886,-1.8905,-1.8896,-1.955,-2.0487,-2.1757,-2.4909,-2.8246,-3.1403,-3.4791,-3.7595,-3.9432,-3.977,-3.8985,-3.6916,-3.4115,-3.2525,-3.2521,-3.1735,-3.3986,-3.9788,-4.2989,-4.5817,-4.8302,-4.9186,-4.9941,-5.051,-5.0407,-5.0637,-5.1167,-5.0981,-5.0858,-5.062,-4.8389,-4.5745,-4.2793,-3.9644,-3.6355,-3.2965,0.0,0.0,0.0,0.0,0.0,0.0,0.0,0.0,0.0,0.0,0.0,0.0,0.0,0.0,0.0,0.0,0.0,0.0,0.0,0.0,0.0,0.0,0.0,0.0,0.0,0.0,0.0,0.0,0.0,0.0,0.0,0.0,0.0,0.0,0.0,-5.2418,-5.4454,-5.7228,-5.8457,-5.7193,-5.9405,-6.1336,-6.2354,-6.4113,-6.5654,-6.6793,-6.7235,-6.787,-6.8825,-6.8355,-6.873,-7.0015,-6.9043,-6.8946,-6.9658,-6.9173,-6.9076,-6.927,-6.9043,-6.8687,-6.8266,-6.8234,-6.7849,-6.7408,-6.8613,-6.8406,-6.7613,-6.9022,-6.9262,-6.8892,-6.9509,-6.8656,-6.7025,0.0,0.0,0.0,-1.8931,-1.8886,-1.8905,-1.8887,-1.9558,-2.0906,-2.3296,-2.5757,-2.9062,-3.3709,-3.6394,-3.8743,-4.0879,-4.036,-3.9877,-3.9877,-3.6256,-3.4165,-3.4315,-3.6128,-3.863,-4.1813,-4.4725,-4.7751,-5.0915,-5.0396,-5.0545,-5.1298,-5.1034,-5.09,-5.0873,-5.0908,-5.107,-5.1263,-5.0458,-4.8493,-4.5575,-4.2495,-4.0363,-3.8581,0.0,0.0,0.0,0.0,0.0,0.0,0.0,0.0,0.0,0.0,0.0,0.0,0.0,0.0,0.0,0.0,0.0,0.0,0.0,0.0,0.0,0.0,0.0,0.0,0.0,0.0,0.0,0.0,0.0,0.0,0.0,0.0,0.0,-4.7467,-5.2242,-5.5648,-5.5788,-6.0423,-6.274,-6.0528,-6.3056,-6.5444,-6.6917,-6.783,-6.9303,-7.1581,-7.1607,-7.1773,-7.2259,-7.0777,-6.9777,-6.952,-6.9436,-6.9793,-7.0455,-7.0423,-7.0695,-7.131,-7.0662,-7.0371,-7.0274,-6.8982,-6.8896,-6.9694,-7.0052,-7.0712,-7.1443,-7.0717,-7.0441,-7.0441,-7.0441,-7.0366,-6.9804,0.0,0.0,-1.9002,-1.8931,-1.8886,-1.8887,-1.8833,-1.9958,-2.1478,-2.3332,-2.7092,-3.0763,-3.3872,-3.7274,-3.9578,-4.0182,-4.0019,-3.9663,-3.9147,-3.6005,-3.5029,-3.6938,-4.0257,-4.3293,-4.5977,-4.7398,-4.9023,-5.0915,-5.1346,-5.1458,-5.1298,-5.122,-5.1088,-5.0908,-5.147,-5.1454,-5.1043,-5.1333,-5.0339,-4.8363,-4.5546,-4.3221,-4.1053,0.0,0.0,0.0,0.0,0.0,0.0,0.0,0.0,0.0,0.0,0.0,0.0,0.0,0.0,0.0,0.0,0.0,0.0,0.0,0.0,0.0,0.0,0.0,0.0,0.0,0.0,0.0,0.0,0.0,0.0,0.0,0.0,-5.1049,-5.3682,-5.5859,-5.8421,-6.1759,-6.3512,-6.4601,-6.5057,-6.6775,-6.7996,-6.8416,-7.0237,-7.1538,-7.2043,-7.272,-7.3351,-7.3861,-7.346,-7.3447,-7.3849,-7.3361,-7.2541,-7.149,-7.0963,-7.014,-6.9108,-7.0223,-6.9992,-6.895,-7.1618,-7.1604,-6.9874,-7.245,-7.2966,-7.2271,-7.2748,-7.2993,-7.2993,-7.2993,-7.1462,-6.8888,0.0,-1.8957,-1.9002,-1.8931,-1.8905,-1.8861,-1.8806,-2.0117,-2.1953,-2.4356,-2.8045,-3.1699,-3.4888,-3.7757,-3.9556,-3.9877,-3.9627,-3.9092,-3.8362,-3.7005,-3.7377,-3.995,-4.3257,-4.6044,-4.8149,-4.9003,-4.9951,-5.1079,-5.1299,-5.1283,-5.0957,-5.1069,-5.1034,-5.0908,-5.1681,-5.1786,-5.14,-5.1821,-5.1525,-5.0629,-4.8433,-4.6644,-4.4965,-4.1916,-4.0197,-3.903,-3.6372,-3.5316,-3.5018,-3.3664,0.0,0.0,0.0,0.0,0.0,0.0,0.0,0.0,0.0,0.0,0.0,0.0,0.0,0.0,0.0,0.0,0.0,0.0,0.0,0.0,0.0,0.0,0.0,0.0,-5.1329,-5.5507,-5.8597,-5.944,-6.0949,-6.432,-6.5584,-6.6637,-6.7721,-6.8835,-6.9774,-7.0403,-7.2049,-7.3107,-7.3435,-7.4559,-7.5189,-7.5117,-7.5106,-7.5126,-7.5148,-7.4403,-7.3683,-7.2979,-7.1512,-7.0777,-7.083,-7.0825,-7.0644,0.0,-7.2989,-7.3194,-7.1999,-7.3651,-7.4056,0.0,0.0,0.0,0.0,0.0,-7.2128,-6.9238,0.0,-1.9002,-1.8957,-1.8922,-1.8914,-1.887,-1.8806,-2.0117,-2.2286,-2.5637,-2.8644,-3.2036,-3.6103,-3.7882,-3.904,-3.9611,-3.9128,-3.854,-3.7953,-3.8797,-4.049,-4.2965,-4.5377,-4.7409,-4.8981,-4.98,-5.0597,-5.1407,-5.088,-5.0613,-5.0563,-5.0797,-5.0873,-5.0881,-5.1723,-5.2074,-5.2004,-5.2074,-5.2177,-5.221,-5.0803,-4.9916,-4.9162,-4.6529,-4.5488,-4.5003,-4.199,-3.9518,-3.7541,-3.6609,0.0,0.0,0.0,0.0,0.0,0.0,0.0,0.0,0.0,0.0,0.0,0.0,0.0,0.0,0.0,0.0,0.0,0.0,0.0,0.0,0.0,0.0,0.0,0.0,-5.5578,-5.9053,-6.2213,-6.274,-6.3337,-6.4811,-6.6917,-6.8528,-6.9078,-6.9913,-7.0997,-7.2359,-7.3308,-7.4227,-7.5164,0.0,0.0,0.0,0.0,-7.5829,-7.4966,-7.4332,-7.4206,-7.4611,-7.2451,-7.2404,-7.4335,-7.229,-7.2116,-7.3434,-7.3832,-7.433,-7.4852,-7.4256,-7.4371,-7.4888,-7.4256,-7.401,-7.401,-7.3856,-7.2399,-7.0381,0.0,-1.8931,-1.8913,-1.8905,-1.8887,-1.887,-1.8806,-2.0117,-2.2264,-2.559,-2.8639,-3.1826,-3.5266,-3.7524,-3.8611,-3.8076,-3.8504,-3.9079,-3.9732,-4.0578,-4.2186,-4.469,-4.652,-4.8206,-4.9836,-5.0633,-5.1375,-5.1958,-5.1607,-5.1358,-5.1128,-5.0964,-5.0819,-5.071,-5.2081,-5.2396,-5.1899,-5.2466,-5.2474,-5.2036,-5.1466,-5.0845,-5.0091,-4.8419,-4.7339,-4.6514,-4.4751,-4.4237,-4.4165,-4.2566,-4.1326,-4.0144,-3.8115,-3.5483,0.0,0.0,0.0,0.0,0.0,0.0,0.0,0.0,0.0,0.0,0.0,0.0,0.0,0.0,0.0,0.0,0.0,0.0,0.0,-5.484,-5.7438,-6.0072,-6.3758,-6.4811,-6.5549,-6.6461,-6.7894,-6.9113,-6.9882,-7.1089,-7.1912,-7.2225,-7.3717,-7.4916,-7.5761,-7.6801,0.0,-7.8042,-7.8077,-7.7992,-7.7787,-7.7647,-7.6955,-7.5691,0.0,0.0,-7.3637,-7.4571,-7.4423,-7.3559,-7.6383,-7.6547,-7.493,-7.5547,-7.5148,-7.4185,-7.408,-7.401,-7.3896,-7.3066,-7.2147,-7.1146,-1.8896,-1.8887,-1.8914,-1.8887,-1.8861,-1.8861,-1.8896,-2.0149,-2.2164,-2.5165,-2.7789,-3.0305,-3.2824,-3.436,-3.4936,-3.4115,-3.5507,-3.7524,-4.0111,-4.1389,-4.3376,-4.6375,-4.8025,-4.9394,-5.0452,-5.0885,-5.1236,-5.1491,-5.0991,-5.0738,-5.0774,-5.0662,-5.0774,-5.1102,-5.2288,-5.2782,-5.2846,-5.3288,-5.3182,-5.2627,-5.2315,-5.1739,-5.0983,-5.009,-4.9271,-4.8474,-4.7349,-4.6663,-4.6152,-4.5213,-4.4094,-4.2889,-4.1582,-3.9081,-3.6124,0.0,0.0,0.0,0.0,0.0,0.0,0.0,0.0,0.0,0.0,0.0,0.0,0.0,0.0,-4.5034,0.0,0.0,-5.3717,-5.7228,-5.9756,-6.2108,-6.439,-6.5724,-6.6742,-6.7515,-6.8879,-6.9955,-7.0531,-7.1564,-7.2533,-7.3264,-7.4502,-7.5637,-7.6654,-7.7508,-7.8188,-7.8574,-7.8574,-7.8574,-7.8574,-7.8574,-7.8154,-7.731,-7.6417,-7.5991,-7.6035,-7.5991,-7.5991,-7.6113,-7.781,-7.7657,-7.6126,-7.5814,-7.5028,-7.401,-7.401,-7.401,-7.3856,-7.2901,-7.2091,-7.1422,-1.8932,-1.8958,-1.8958,-1.8878,-1.8861,-1.8869,-1.8981,-2.0244,-2.2042,-2.4564,-2.6717,-2.868,-3.0398,-3.1145,-3.1291,-3.0796,-3.2795,-3.5843,-4.0039,-4.1749,-4.4205,-4.7787,-4.9329,-5.0362,-5.095,-5.1023,-5.1179,-5.1299,-5.0429,-5.0268,-5.0758,-5.0675,-5.0996,-5.1732,-5.2532,-5.3192,-5.3783,-5.3882,-5.366,-5.3238,-5.2811,-5.2294,-5.1725,-5.125,-5.0642,-4.9878,-4.8981,-4.7542,-4.6044,-4.6017,-4.492,-4.3611,-4.3721,-4.1812,-3.9153,-3.7059,-3.5692,0.0,0.0,0.0,0.0,0.0,0.0,0.0,0.0,0.0,-4.3232,-4.7197,-4.8521,-5.0066,-5.3675,-5.5823,-5.7684,-5.958,-6.2108,-6.4144,-6.5022,-6.6356,-6.755,-6.8357,-6.976,-7.0727,-7.1007,-7.1872,-7.2986,-7.4419,-7.522,-7.6196,-7.7339,-7.8153,-7.8574,-7.8574,-7.8574,-7.8574,-7.8574,-7.8574,-7.8574,-7.8574,-7.7154,-7.7232,-7.8574,-7.7154,-7.7232,-7.8574,-7.8434,-7.7907,-7.71,-7.566,-7.4677,-7.401,-7.401,-7.401,-7.3896,-7.2892,-7.234,-7.1912,0.0,-1.9121,-1.9166,-1.887,-1.8905,-1.8981,-1.9006,-2.0355,-2.205,-2.3956,-2.6064,-2.8039,-2.9642,-3.0476,-3.1081,-3.1525,-3.3116,-3.5843,-4.0039,-4.1749,-4.4457,-4.8583,-4.9619,-5.0452,-5.1262,-5.1527,-5.2039,-5.2767,-5.1387,-5.1427,-5.2762,-5.1828,-5.1738,-5.2419,-5.3181,-5.3563,-5.3628,-5.3346,-5.3254,-5.3231,-5.2371,-5.2028,-5.2006,-5.1357,-5.0528,-4.9581,-4.8302,-4.6669,-4.5153,-4.5215,-4.4474,-4.3671,-4.4414,-4.3432,-4.1821,-4.0835,0.0,-3.6614,-3.6974,-3.7216,-3.8186,-4.165,-4.1421,-4.2546,0.0,0.0,-4.975,-5.3682,-5.4559,-5.5367,-5.7895,-5.8562,-5.9685,-6.2599,-6.3934,-6.5092,-6.6567,-6.7515,-6.8357,-6.9165,-7.0418,-7.1167,-7.1002,-7.2325,-7.3543,-7.4454,-7.5421,-7.6397,-7.7339,-7.8153,-7.8574,-7.8574,-7.8574,-7.8574,-7.8574,-7.8574,-7.8574,-7.8574,-7.8385,-7.842,-7.8574,-7.842,-7.842,-7.8539,-7.7837,-7.7135,-7.6362,-7.5449,-7.4677,-7.401,-7.401,-7.401,-7.3905,-7.305,-7.319,-7.3606,0.0,-1.9225,-1.9269,-1.9125,-1.9158,-1.9355,-1.9971,-2.0918,-2.2227,-2.4072,-2.5356,-2.6327,-2.6934,-2.6741,-2.7199,-2.8812,-3.126,-3.4679,-3.9301,-4.1929,-4.4962,-4.8728,-4.9655,-5.0317,-5.0832,-5.1307,-5.1678,-5.1818,-5.1345,-5.1514,-5.2284,-5.2021,-5.2299,-5.3034,-5.3345,-5.3483,-5.3479,-5.3495,-5.3239,-5.2775,-5.2533,-5.2113,-5.1509,-5.0268,-4.9248,-4.8351,-4.7789,-4.6545,0.0,-4.4967,-4.4683,-4.4405,-4.4621,-4.3921,-4.2813,-4.1527,-4.102,0.0,-4.257,-4.2893,0.0,0.0,-4.7583,-4.8845,-5.331,-5.3296,-5.3225,-5.6245,-5.6842,-5.7579,-5.9931,-6.0704,-6.1687,0.0,-6.4882,-6.5759,-6.6848,-6.7304,-6.748,-6.7339,-6.8635,-6.9922,-7.1093,-7.2051,-7.3409,-7.5247,-7.5624,-7.6447,-7.8047,-7.8399,-7.8574,-7.8574,-7.8574,-7.8574,-7.8574,-7.8574,-7.8567,-7.8441,-7.8441,-7.8441,-7.8441,-7.8441,-7.8483,-7.8504,-7.731,-7.6573,-7.6187,-7.4958,-7.4291,-7.401,-7.401,-7.401,-7.3861,-7.2997,-7.3222,-7.3861,0.0,-1.9413,-1.9427,-1.9354,-1.9568,-1.9996,-2.07,-2.1335,-2.2345,-2.3967,-2.4579,-2.4845,-2.4718,-2.3997,-2.4361,-2.6478,-2.9547,-3.3283,-3.7843,-4.1461,-4.4951,-4.8265,-4.9466,-5.0393,-5.1004,-5.1222,-5.1393,-5.1554,-5.1165,-5.1269,-5.1853,-5.1884,-5.2321,-5.308,-5.308,-5.3111,-5.3199,-5.3351,-5.3043,-5.2502,-5.2386,-5.1778,-5.0778,-4.9141,-4.7542,-4.6179,-4.5962,-4.4987,-4.372,-4.2877,-4.2869,-4.3258,-4.3334,-4.3272,-4.3072,-4.2578,-4.3422,-4.4633,-4.5281,0.0,0.0,-5.0163,-5.1856,-5.3451,-5.529,-5.5461,-5.5859,-5.8,-5.8281,-5.8773,-6.0914,-6.1722,0.0,-6.4425,-6.5549,-6.6391,-6.6918,-6.7023,-6.6813,-6.6251,-6.7023,-6.839,-7.0552,-7.1477,-7.3008,-7.551,-7.5617,-7.6426,-7.842,-7.8448,-7.8406,-7.8525,-7.8525,-7.8532,-7.8574,-7.8574,-7.8525,-7.8272,-7.8272,-7.8272,-7.8186,-7.8272,-7.8399,-7.8504,-7.6959,-7.6292,-7.6187,-7.4642,-7.401,-7.401,-7.401,-7.3869,-7.3615,-7.3078,-7.3345,-7.3861,0.0,0.0,-1.9732,-1.9532,-2.0298,-2.0899,-2.0804,-2.1428,-2.2269,-2.3296,-2.3786,-2.3949,-2.3742,-2.3582,-2.4112,-2.5681,-2.8727,-3.1995,-3.5483,-4.0076,-4.4005,-4.702,-4.9055,-5.079,-5.2326,-5.1585,-5.177,-5.2927,-5.099,-5.0769,-5.2149,-5.1459,-5.1528,-5.2222,-5.2222,-5.2403,-5.2695,-5.2383,-5.2467,-5.2707,-5.1598,-5.0737,-4.9945,-4.8208,-4.5621,-4.284,-4.2063,-4.1099,-3.9849,-3.7735,-3.7829,-3.898,-4.0033,-4.1248,0.0,-4.5172,-4.6025,-4.574,0.0,0.0,-4.8803,-5.1166,-5.2571,-5.4416,-5.8349,-5.8426,-5.8141,-5.9721,-5.9475,-5.944,-6.102,-6.1336,-6.2073,-6.4321,-6.6005,-6.6988,-6.7023,-6.7023,-6.6988,-6.6988,-6.6356,-6.6883,0.0,-7.0591,-7.2289,-7.4671,-7.5303,-7.6419,-7.8202,-7.8058,-7.8058,-7.8272,-7.8314,-7.8399,-7.8574,-7.8574,-7.8525,-7.8272,-7.8272,-7.8143,-7.7893,-7.8186,-7.8399,-7.8504,-7.6959,-7.6292,-7.6187,-7.4642,-7.401,-7.401,-7.401,-7.3518,-7.2922,-7.3655,-7.397,-7.3869,0.0,0.0,0.0,-2.1274,-2.1639,-2.2028,-2.2517,-2.2795,-2.3281,-2.415,-2.4216,0.0,0.0,0.0,0.0,0.0,-2.7437,-3.0561,-3.4435,-3.808,-4.1569,-4.4919,-4.7171,-4.8638,-4.9288,-4.9987,-5.0677,-5.1358,-5.1067,-5.1322,-5.2044,-5.2288,-5.259,-5.2949,-5.2949,-5.2783,-5.2451,-5.1891,-5.1851,-5.2025,-5.0927,-5.0032,-4.9206,-4.827,-4.5098,-4.0959,0.0,-3.8528,-3.7685,-3.6807,-3.6862,-3.7506,-3.8829,0.0,0.0,-4.378,-4.5342,-4.6291,0.0,0.0,-5.221,-5.444,-5.5963,-5.7519,-5.9684,-5.9342,-5.8706,-5.9102,-5.8675,-5.8464,-5.9289,-6.0013,-6.1233,-6.3447,-6.5198,-6.6426,-6.6953,-6.748,-6.7234,-6.5689,-6.5724,0.0,0.0,0.0,0.0,-7.3832,-7.4571,-7.5603,-7.7221,-7.7693,-7.7937,-7.8058,-7.8023,-7.8101,-7.8109,-7.8109,-7.8023,-7.7832,-7.7832,-7.7598,-7.7197,-7.7942,-7.8119,-7.7767,-7.7275,-7.6748,-7.6222,-7.5168,-7.4431,-7.401,-7.401,-7.3834,-7.3624,-7.3905,-7.401,-7.3975,0.0,0.0,0.0,0.0,0.0,0.0,0.0,0.0,0.0,0.0,0.0,0.0,0.0,0.0,0.0,0.0,0.0,0.0,-3.2844,-3.6312,-3.946,-4.2173,-4.4414,-4.6097,-4.7058,-4.7591,-4.8336,-4.9307,-4.9281,-4.9533,-5.0136,-5.0724,-5.1076,-5.1237,-5.1519,-5.1511,-5.1251,-5.0969,-5.0988,-5.1174,-5.0049,-4.8895,-4.7809,-4.6816,-4.3415,0.0,-3.7248,-3.6101,-3.5228,-3.4591,-3.5146,-3.6325,-3.7577,-3.9601,-4.1887,-4.3844,-4.5837,-4.7873,-5.0154,-5.2246,-5.437,-5.6966,-5.8427,-5.938,-6.0178,-5.9708,-5.8839,-5.8086,-5.7145,-5.6624,-5.73,-5.753,-5.8643,-6.2045,-6.376,-6.5198,-6.6777,-6.7445,-6.7234,-6.5724,-6.597,0.0,0.0,0.0,0.0,-7.2983,-7.4169,-7.5331,-7.6582,-7.7294,-7.7676,-7.7798,-7.7798,-7.7841,-7.7893,-7.8015,-7.7928,-7.771,-7.7535,-7.7241,-7.6814,-7.7752,-7.7894,-7.7415,-7.7415,-7.6994,-7.6222,-7.5414,-7.4677,-7.401,-7.401,-7.3834,-7.3624,-7.3905,-7.3834,-7.3624,0.0,0.0,0.0,0.0,0.0,0.0,0.0,0.0,0.0,0.0,0.0,0.0,0.0,0.0,0.0,0.0,0.0,0.0,-3.0849,-3.4754,-3.764,-3.8968,-4.1061,-4.3283,-4.5717,-4.4747,-4.5151,-4.7107,-4.5941,-4.5815,-4.6728,-4.7022,-4.7287,-4.7481,-4.8186,-4.8763,-4.921,-4.9469,-4.98,-5.0039,-4.8825,-4.7388,-4.5783,-4.4096,-4.0773,-3.6848,-3.5193,-3.3862,-3.2648,-3.1264,0.0,0.0,0.0,0.0,0.0,-4.5596,-4.7637,-5.043,-5.2089,-5.3614,-5.5472,-5.8681,-5.9788,-6.0046,-5.9938,-5.9419,-5.8496,-5.6766,-5.4954,-5.3962,0.0,0.0,-5.4799,-6.018,-6.1862,-6.3547,-6.6602,-6.7093,-6.7164,0.0,0.0,0.0,0.0,0.0,0.0,-7.211,0.0,-7.5569,-7.6253,-7.6864,-7.7313,-7.7569,-7.7569,-7.7667,-7.785,-7.8101,-7.8143,-7.785,-7.7446,-7.7031,-7.6814,-7.7545,-7.7732,-7.7415,-7.7415,-7.6994,-7.6222,-7.5414,-7.4677,-7.401,-7.401,-7.3518,-7.2957,-7.3729,-7.3518,-7.2957,0.0,0.0,0.0,0.0,0.0,0.0,0.0,0.0,0.0,0.0,0.0,0.0,0.0,0.0,0.0,0.0,0.0,0.0,0.0,-3.2154,-3.436,-3.6793,-3.9067,-4.102,-4.2617,-4.3558,-4.4556,-4.5638,-4.531,-4.5754,-4.6848,-4.6038,-4.6076,-4.678,-4.6118,-4.6428,-4.7399,-4.6928,-4.7273,-4.796,-4.6756,-4.544,-4.4127,-4.3004,-3.9942,-3.609,-3.5326,-3.3781,0.0,0.0,0.0,0.0,0.0,0.0,-4.6542,0.0,0.0,-5.2918,-5.5191,-5.7392,-5.9204,-6.0088,-6.0276,-6.016,-5.9822,-5.7781,-5.5517,-5.4011,-5.2037,-5.0467,0.0,0.0,0.0,-5.7095,-6.1239,0.0,-6.6742,-6.8533,0.0,0.0,0.0,-6.9462,-6.9652,-7.0228,0.0,0.0,-7.3725,-7.4652,-7.5275,-7.6499,-7.7223,-7.7313,-7.7313,-7.7313,-7.7402,-7.7446,-7.7535,-7.7667,-7.7357,-7.7031,-7.6814,-7.7545,-7.7732,-7.7415,-7.7415,-7.6994,-7.6222,-7.5414,-7.4677,-7.401,-7.401,-7.3869,-7.3729,-7.394,-7.3869,-7.3729,0.0,0.0,0.0,0.0,0.0,0.0,0.0,0.0,0.0,0.0,0.0,0.0,0.0,0.0,0.0,0.0,0.0,0.0,0.0,-3.0722,-3.225,-3.4162,-3.551,-3.7073,-3.8918,-3.9872,-4.09,-4.2069,-4.2291,-4.2701,-4.3281,-4.3251,-4.3522,-4.3958,-4.4135,-4.4652,-4.5389,-4.5089,-4.5355,0.0,0.0,-4.387,-4.276,-4.143,-3.8862,-3.5893,0.0,0.0,0.0,0.0,0.0,-4.2787,-4.3771,-4.6262,-4.9149,-5.1108,0.0,-5.5382,-5.7542,-5.9348,-6.0729,-6.1109,-6.0818,-5.9977,-5.8251,-5.6039,-5.3608,-5.1002,-4.909,0.0,0.0,0.0,0.0,0.0,0.0,0.0,-6.6145,-6.8814,-7.0321,0.0,-7.0622,0.0,-7.0744,-7.1313,-7.2126,0.0,-7.3971,-7.4766,-7.5395,-7.6523,-7.7223,-7.7223,-7.7223,-7.7268,-7.7357,-7.7268,-7.7313,-7.7613,-7.7313,-7.7031,-7.6814,-7.7545,-7.7732,-7.7415,0.0,-7.6994,-7.6222,-7.5414,-7.4677,-7.401,-7.401,-7.401,-7.401,-7.401,-7.401,-7.401,0.0,0.0,0.0,0.0,0.0,0.0,0.0,0.0,0.0,0.0,0.0,0.0,0.0,0.0,0.0,0.0,0.0,0.0,0.0,0.0,0.0,-3.1864,-3.1975,-3.3191,-3.5612,-3.5787,-3.6558,-3.8041,0.0,-3.8603,-3.8552,-3.9742,-4.0271,-4.028,-4.1818,-4.261,-4.2832,-4.328,-4.3461,-4.3454,-4.3113,-4.2431,-4.1477,0.0,0.0,0.0,0.0,0.0,0.0,0.0,-4.4507,-4.5407,-4.7357,-5.0065,-5.2822,-5.3966,-5.5702,-5.7578,-5.9444,-6.0341,-6.0937,-6.1634,-6.1064,-5.9421,-5.6044,-5.4232,-5.2109,-4.7989,0.0,-4.5326,-4.5393,0.0,-4.8205,-5.3147,0.0,-6.1066,-6.5303,-6.8426,-7.0316,-7.0336,-7.1656,-7.244,-7.2145,-7.2686,-7.3364,-7.4059,-7.4705,-7.5352,-7.6085,-7.6809,-7.7223,-7.7223,-7.7223,-7.7313,-7.7613,-7.7313,-7.7313,-7.7613,-7.7357,-7.7144,-7.6954,-7.7658,-7.7732,-7.7374,0.0,0.0,-7.6081,-7.5274,-7.4572,-7.401,-7.401,-7.401,-7.401,-7.401,-7.401,-7.401,0.0,0.0,0.0,0.0,0.0,0.0,0.0,0.0,0.0,0.0,-2.7568,-2.6749,0.0,0.0,0.0,0.0,0.0,0.0,0.0,0.0,0.0,-3.1842,-3.2478,-3.368,-3.5565,0.0,0.0,0.0,0.0,0.0,-3.8264,-3.7409,-3.7456,-3.8247,-3.7405,-3.7686,-3.8793,-3.9602,-4.0049,-4.0269,-4.0952,-4.0715,-3.9813,-3.8572,0.0,0.0,0.0,0.0,0.0,0.0,-4.7003,-4.9432,-5.053,-5.2866,-5.548,-5.7102,-5.7851,-5.8647,-6.0964,-6.1688,-6.1597,-6.1009,-5.9798,-5.7985,-5.4803,-5.2176,0.0,0.0,0.0,-4.2423,-4.1423,-4.3571,0.0,-5.1333,0.0,0.0,0.0,0.0,-6.9707,0.0,0.0,0.0,0.0,0.0,0.0,0.0,0.0,0.0,-7.612,-7.6809,-7.7223,-7.7223,-7.7223,-7.7313,-7.7613,-7.7313,-7.7313,-7.7613,-7.7535,-7.7597,-7.7719,-7.8074,-7.7937,-7.738,-7.6748,0.0,-7.5239,-7.4501,-7.4115,-7.401,-7.401,-7.401,-7.401,-7.401,-7.401,-7.401,0.0,0.0,0.0,0.0,0.0,0.0,0.0,-2.7959,-2.9082,-3.1552,-3.1682,-3.0825,-2.8963,-2.9221,-2.9279,0.0,0.0,0.0,0.0,0.0,0.0,0.0,0.0,-3.3173,0.0,0.0,0.0,0.0,0.0,0.0,0.0,0.0,0.0,0.0,0.0,0.0,0.0,0.0,0.0,0.0,0.0,0.0,0.0,0.0,0.0,0.0,0.0,0.0,0.0,0.0,-4.5835,-4.9927,-5.1582,-5.4317,-5.7097,-5.8011,-5.9237,-6.0557,-6.1688,-6.1978,-6.177,-6.0837,-5.9131,-5.6624,-5.2588,0.0,0.0,0.0,0.0,-4.1138,-4.0502,0.0,0.0,0.0,0.0,0.0,0.0,0.0,0.0,0.0,0.0,0.0,0.0,0.0,0.0,0.0,0.0,0.0,-7.6671,-7.7016,-7.7223,-7.7223,-7.7223,-7.7268,-7.7402,-7.7268,-7.7313,-7.7613,-7.7446,-7.7623,-7.8101,-7.8101,-7.7817,-7.738,-7.6608,0.0,-7.5028,-7.4291,-7.401,-7.401,-7.401,-7.401,-7.401,-7.401,-7.401,-7.401,0.0,0.0,0.0,0.0,0.0,0.0,0.0,-2.956,-3.0953,-3.4525,-3.5479,-3.4834,-3.2277,-3.1496,-3.0788,0.0,0.0,0.0,0.0,0.0,0.0,0.0,0.0,0.0,0.0,0.0,0.0,0.0,0.0,0.0,0.0,0.0,0.0,0.0,0.0,0.0,0.0,0.0,0.0,0.0,0.0,0.0,0.0,0.0,0.0,0.0,0.0,0.0,0.0,0.0,-4.3777,-4.7784,-5.046,-5.4034,-5.727,-5.7608,-5.9401,-6.129,-6.1652,-6.1869,-6.1733,-6.0621,-5.8563,-5.5505,-5.0566,-4.7563,0.0,0.0,-4.0111,-4.0474,-4.0369,0.0,0.0,0.0,0.0,0.0,0.0,0.0,0.0,0.0,0.0,0.0,0.0,0.0,0.0,0.0,0.0,0.0,-7.7189,-7.7223,-7.7223,-7.7223,-7.7223,-7.7223,-7.7223,-7.7223,-7.7313,-7.749,-7.7402,-7.7667,-7.8186,-7.8066,-7.7747,-7.7135,-7.6538,0.0,0.0,-7.4256,-7.401,-7.401,-7.401,-7.401,-7.401,-7.401,-7.401,-7.401,0.0,0.0,0.0,0.0,0.0,0.0,0.0,-3.0039,-3.2184,-3.6941,-3.7015,-3.6495,-3.6197,-3.4153,-3.2184,0.0,0.0,0.0,0.0,0.0,0.0,0.0,0.0,0.0,0.0,0.0,0.0,0.0,0.0,0.0,0.0,0.0,0.0,0.0,0.0,0.0,0.0,0.0,0.0,0.0,0.0,0.0,0.0,0.0,0.0,0.0,0.0,0.0,0.0,0.0,0.0,-4.2454,-4.6022,-5.0637,-5.4896,-5.584,0.0,0.0,-6.052,-6.1435,-6.1589,-5.9935,-5.781,-5.4761,-4.9739,0.0,0.0,-3.9872,-3.9637,-4.0019,-3.96,-4.0426,0.0,0.0,0.0,0.0,0.0,0.0,0.0,0.0,0.0,0.0,0.0,0.0,0.0,0.0,0.0,0.0,0.0,-7.7223,-7.7223,-7.7223,-7.7223,-7.7223,-7.7223,-7.7223,-7.7223,-7.7223,-7.7632,-7.785,-7.7937,-7.8322,-7.7725,-7.6397,-7.6327,0.0,0.0,-7.4045,-7.401,-7.401,-7.401,-7.401,-7.401,-7.401,-7.401,-7.401,0.0,0.0,0.0,0.0,0.0,0.0,-3.0299,-3.0719,-3.2787,-3.8681,-3.8268,-3.7623,-3.8197,-3.6446,-3.4191,-3.1552,0.0,0.0,0.0,0.0,0.0,0.0,0.0,0.0,0.0,0.0,0.0,0.0,0.0,0.0,0.0,0.0,0.0,0.0,0.0,0.0,0.0,0.0,0.0,0.0,0.0,0.0,0.0,0.0,0.0,0.0,0.0,0.0,0.0,0.0,0.0,0.0,-4.2981,-4.5721,0.0,0.0,-5.5505,-5.798,-5.9625,-6.1027,-6.1697,-6.044,-5.7702,-5.417,-4.9649,0.0,-4.3451,-3.9824,-4.0,-4.062,-3.9945,-4.0724,-4.1923,-4.3344,-4.4273,-4.7011,0.0,0.0,0.0,0.0,0.0,0.0,0.0,0.0,0.0,0.0,0.0,0.0,0.0,-7.7223,-7.7223,-7.7223,-7.7223,-7.7223,-7.7223,-7.7223,-7.7268,-7.7446,-7.7623,-7.7885,-7.8109,-7.7824,-7.7186,-7.6257,-7.5765,0.0,0.0,-7.401,-7.401,-7.401,-7.401,-7.401,-7.401,-7.401,-7.401,-7.401,0.0,0.0,0.0,0.0,0.0,-2.6702,-3.0522,-3.0863,-3.2881,-3.8982,-3.8495,-3.8135,-3.953,-3.7739,-3.5591,-3.3469,-3.2616,0.0,0.0,0.0,0.0,0.0,0.0,0.0,0.0,0.0,0.0,0.0,-4.1028,0.0,0.0,0.0,0.0,0.0,0.0,0.0,0.0,0.0,0.0,0.0,0.0,0.0,0.0,0.0,0.0,0.0,0.0,0.0,0.0,0.0,0.0,0.0,0.0,0.0,0.0,0.0,-5.3207,-5.6133,-5.827,-6.0059,-6.1073,-6.0169,-5.7221,-5.3398,0.0,0.0,-4.2821,-3.9824,-4.0128,-4.0785,-4.0212,-4.0918,-4.1577,-4.1577,-4.2335,-4.4834,-5.0136,0.0,0.0,0.0,0.0,0.0,0.0,0.0,0.0,0.0,0.0,0.0,0.0,-7.7223,-7.7223,-7.7223,-7.7223,-7.7223,-7.7223,-7.7223,-7.7313,-7.749,-7.7623,-7.7841,-7.8151,-7.751,-7.6865,-7.6257,0.0,0.0,0.0,-7.401,-7.401,-7.401,-7.401,-7.401,-7.401,-7.401,-7.401,-7.401,0.0,0.0,0.0,0.0,0.0,0.0,-2.8924,-3.016,-3.2467,-3.7366,-3.738,-3.7841,-4.0307,-3.7654,-3.6023,-3.6782,-3.4498,0.0,0.0,0.0,0.0,0.0,0.0,0.0,0.0,0.0,-4.0753,-4.0688,-4.1565,-4.2004,0.0,0.0,0.0,0.0,0.0,0.0,0.0,0.0,0.0,0.0,0.0,0.0,0.0,0.0,0.0,0.0,0.0,0.0,0.0,0.0,0.0,0.0,0.0,0.0,0.0,0.0,-5.0291,-5.3039,-5.6277,-5.8342,-5.9434,-5.8637,-5.6066,-5.2444,0.0,-4.4614,-4.2135,-3.9716,-3.9697,-4.0104,-4.0104,-4.0491,-4.0834,-4.0834,-4.3826,-4.7267,-5.0452,0.0,0.0,0.0,0.0,0.0,0.0,0.0,0.0,0.0,0.0,0.0,0.0,-7.7223,-7.7223,-7.7223,-7.7223,-7.7223,-7.7223,-7.7223,-7.7223,-7.7223,-7.7676,-7.7893,-7.7858,-7.7559,-7.7029,0.0,0.0,0.0,0.0,-7.401,-7.401,-7.401,-7.401,-7.401,-7.401,-7.401,-7.401,-7.401,0.0,0.0,0.0,0.0,0.0,0.0,0.0,-2.8837,-3.0818,-3.5775,-3.5215,-3.5537,-3.8615,-3.7019,-3.6011,-3.6833,-3.5602,0.0,0.0,0.0,0.0,0.0,0.0,0.0,0.0,-4.0202,-4.1066,-4.1603,-4.2455,-4.3182,-4.3694,-4.2983,0.0,0.0,0.0,0.0,0.0,0.0,0.0,0.0,0.0,0.0,0.0,0.0,0.0,0.0,0.0,0.0,0.0,0.0,0.0,0.0,0.0,0.0,0.0,-4.242,0.0,0.0,-5.1089,-5.3351,-5.511,-5.3737,-5.1821,-4.9436,-4.6329,-4.4614,-4.2989,-4.0583,-4.0691,-4.1033,-4.0456,-4.073,-4.1406,-4.2655,-4.4726,0.0,0.0,0.0,0.0,0.0,0.0,0.0,0.0,0.0,0.0,0.0,0.0,0.0,0.0,0.0,-7.7223,-7.7223,-7.7223,-7.7223,-7.7223,-7.7223,-7.7268,-7.7446,-7.7754,-7.7736,-7.7341,-7.6871,0.0,0.0,0.0,0.0,0.0,-7.401,-7.401,-7.401,-7.401,-7.401,-7.401,-7.401,-7.401,-7.394,0.0,0.0,0.0,0.0,0.0,0.0,0.0,-2.7886,-2.9662,-3.3354,-3.3216,-3.4072,-3.7415,-3.6031,-3.5521,-3.728,-3.6621,0.0,0.0,0.0,0.0,0.0,0.0,0.0,-3.9926,-4.0815,-4.1817,-4.2943,-4.3782,-4.4594,-4.534,-4.4699,-4.4065,-4.3401,0.0,0.0,0.0,0.0,0.0,0.0,0.0,0.0,0.0,0.0,0.0,0.0,0.0,0.0,0.0,0.0,0.0,0.0,0.0,0.0,0.0,0.0,-4.1984,-4.5486,0.0,-5.0073,-5.1452,-5.0744,-4.9122,-4.7219,-4.5219,-4.3907,-4.2736,-4.127,-4.1089,-4.1089,-4.0583,-4.0399,-4.0766,-4.223,-4.3912,0.0,0.0,0.0,0.0,0.0,0.0,0.0,0.0,0.0,0.0,0.0,0.0,0.0,0.0,0.0,-7.6581,-7.6581,-7.7002,-7.7223,-7.7223,-7.7223,-7.7313,-7.7613,-7.7485,-7.736,-7.7083,-7.6205,0.0,0.0,0.0,0.0,0.0,-7.401,-7.401,-7.401,-7.401,-7.401,-7.401,-7.401,-7.401,-7.3869,0.0,0.0,0.0,0.0,0.0,0.0,0.0,-2.7186,-2.8905,-3.0485,-3.1529,-3.3306,-3.6509,-3.4846,-3.4771,-3.7925,0.0,0.0,0.0,0.0,0.0,0.0,0.0,0.0,-4.0626,-4.1528,-4.2755,-4.4332,-4.5247,-4.6067,-4.6802,-4.6741,-4.5879,-4.437,-4.4107,0.0,0.0,0.0,0.0,0.0,0.0,0.0,0.0,0.0,0.0,0.0,0.0,0.0,0.0,0.0,0.0,0.0,0.0,0.0,0.0,0.0,0.0,0.0,0.0,-4.7761,0.0,0.0,-4.7441,-4.5456,-4.4045,-4.2585,0.0,-4.1542,-4.0981,-4.0546,-4.0655,-3.9842,-3.9499,-4.056,-4.2347,0.0,0.0,0.0,0.0,0.0,0.0,0.0,0.0,0.0,0.0,0.0,0.0,0.0,0.0,0.0,-7.5631,-7.5673,-7.659,-7.7085,-7.7109,-7.7109,-7.7288,-7.7553,-7.7007,-7.6803,-7.6908,-7.5685,0.0,0.0,0.0,0.0,0.0,-7.401,-7.401,-7.401,-7.401,-7.401,-7.401,-7.401,-7.401,-7.3869,0.0,0.0,0.0,0.0,0.0,0.0,0.0,0.0,0.0,0.0,-3.1164,-3.2668,-3.4095,-3.4282,-3.5146,0.0,0.0,0.0,0.0,0.0,0.0,0.0,0.0,0.0,-3.9865,-4.1254,-4.2192,-4.2605,-4.4684,-4.6067,-4.6802,-4.6824,-4.6561,-4.5972,-4.4727,-4.3527,0.0,0.0,0.0,0.0,0.0,0.0,0.0,0.0,0.0,0.0,0.0,0.0,0.0,0.0,0.0,0.0,0.0,0.0,0.0,0.0,-3.6238,-3.6666,-3.9495,0.0,-4.3109,-4.3471,-4.2992,-4.2207,0.0,-4.0832,-4.0491,-4.0022,-4.0185,-4.0818,-4.2122,-4.1408,-4.1812,-4.5251,0.0,0.0,0.0,0.0,0.0,0.0,0.0,0.0,0.0,0.0,0.0,0.0,0.0,0.0,0.0,0.0,-7.5805,-7.6262,-7.607,-7.6123,-7.6361,-7.6361,-7.6581,-7.6972,-7.6257,-7.577,-7.5544,-7.5274,0.0,0.0,0.0,0.0,-7.401,-7.401,-7.401,-7.401,-7.401,-7.401,-7.401,-7.401,-7.401,-7.3869,0.0,0.0,0.0,0.0,0.0,0.0,0.0,0.0,0.0,0.0,0.0,-3.1879,-3.2705,-3.3569,0.0,0.0,0.0,0.0,0.0,0.0,0.0,0.0,0.0,-3.974,-4.0153,-4.1366,-4.2567,-4.3694,-4.5392,-4.681,-4.7941,-4.7937,-4.7431,-4.6531,-4.4861,-4.3847,0.0,0.0,0.0,0.0,0.0,0.0,0.0,0.0,0.0,0.0,0.0,-3.9742,0.0,-3.9842,-4.0376,-4.0709,0.0,0.0,0.0,0.0,-3.5766,-3.5258,-3.7172,-3.9157,-4.0802,-4.1391,-4.1348,-4.1228,-4.1254,-4.0431,-3.9697,0.0,0.0,0.0,0.0,0.0,0.0,0.0,0.0,0.0,0.0,0.0,0.0,0.0,0.0,0.0,0.0,0.0,0.0,0.0,0.0,0.0,0.0,0.0,-7.4897,-7.5638,-7.5635,-7.5872,-7.6307,-7.5829,-7.5915,-7.6517,-7.5541,-7.5113,-7.5063,-7.4747,-7.444,0.0,0.0,0.0,-7.3837,-7.356,-7.3555,-7.372,-7.372,-7.385,-7.401,-7.401,-7.401,-7.3869,0.0,0.0,0.0,0.0,0.0,0.0,0.0,0.0,0.0,0.0,0.0,0.0,0.0,0.0,0.0,0.0,0.0,0.0,0.0,0.0,0.0,0.0,-3.9552,-4.004,-4.0966,-4.1629,-4.3168,-4.551,-4.6525,-4.7716,-4.907,-4.9239,-4.8336,-4.6531,-4.4925,-4.4135,0.0,0.0,0.0,0.0,0.0,0.0,0.0,0.0,0.0,0.0,0.0,0.0,0.0,-3.8905,-3.9852,-4.078,-3.8996,0.0,0.0,0.0,0.0,0.0,-3.7338,-3.9058,-4.0477,-4.1118,-4.1271,-4.1471,-4.2203,0.0,0.0,0.0,0.0,0.0,0.0,0.0,0.0,0.0,0.0,0.0,0.0,0.0,0.0,0.0,0.0,0.0,0.0,0.0,0.0,0.0,0.0,0.0,0.0,0.0,0.0,-7.4744,-7.5162,-7.5613,-7.6172,-7.5325,-7.5296,-7.6006,-7.4904,-7.4595,-7.4888,-7.4291,-7.4092,0.0,0.0,0.0,-7.3613,-7.3048,-7.3011,-7.3285,-7.339,-7.3623,-7.3913,-7.4014,-7.401,-7.3905,0.0,0.0,0.0,0.0,0.0,0.0,0.0,0.0,0.0,0.0,0.0,0.0,0.0,0.0,0.0,0.0,0.0,0.0,0.0,0.0,0.0,-3.9577,-3.9589,-4.0303,-4.1779,-4.1929,-4.2868,-4.467,-4.6884,-4.8047,-4.8167,-4.9674,-4.9027,-4.6568,-4.5558,-4.4692,-4.3986,-4.3986,0.0,0.0,0.0,0.0,0.0,0.0,0.0,0.0,0.0,0.0,0.0,-3.8163,-3.9662,-4.1046,-3.8543,0.0,0.0,0.0,0.0,0.0,-3.8749,-4.0727,-4.2099,-4.1401,-4.165,-4.2067,-4.1863,-4.0756,0.0,0.0,0.0,0.0,0.0,0.0,0.0,0.0,0.0,0.0,0.0,0.0,0.0,0.0,0.0,0.0,0.0,0.0,0.0,0.0,0.0,0.0,0.0,0.0,0.0,-7.5334,-7.4324,-7.4038,-7.4655,-7.4921,-7.5148,-7.5234,-7.4457,-7.4106,-7.4185,-7.4045,-7.401,0.0,0.0,-7.3425,-7.3391,-7.2976,-7.2834,-7.2941,-7.3288,-7.3421,-7.3522,-7.3881,-7.401,-7.4014,0.0,0.0,0.0,0.0,0.0,0.0,0.0,0.0,0.0,0.0,0.0,0.0,0.0,0.0,0.0,0.0,0.0,0.0,0.0,0.0,-3.9965,-4.0854,-4.0891,-4.1216,-4.1967,-4.2905,-4.4393,-4.645,-4.7978,-4.915,-4.989,-4.933,-4.8182,-4.6504,-4.5191,-4.4395,-4.3986,-4.3986,-4.3986,0.0,0.0,0.0,0.0,0.0,0.0,0.0,0.0,0.0,0.0,0.0,-3.887,-3.993,-3.8559,0.0,0.0,0.0,0.0,0.0,-3.7747,-3.9812,-4.1735,-4.1089,-4.2895,-4.4671,-4.4073,-4.3146,-4.2343,0.0,0.0,0.0,0.0,0.0,0.0,0.0,0.0,0.0,0.0,0.0,0.0,0.0,0.0,0.0,0.0,0.0,0.0,0.0,0.0,0.0,0.0,0.0,0.0,0.0,-7.4612,-7.4184,-7.4119,-7.4283,-7.4123,-7.3699,-7.3232,-7.3188,-7.3498,-7.3649,-7.3729,-7.3807,0.0,-7.3012,-7.2866,-7.2317,-7.2177,-7.2368,-7.2869,-7.3147,-7.3305,-7.3811,-7.4167,-7.4364,0.0,0.0,0.0,0.0,0.0,0.0,0.0,0.0,0.0,0.0,0.0,0.0,0.0,0.0,0.0,0.0,0.0,0.0,0.0,-3.9477,-4.0228,-4.1667,-4.2079,-4.2567,-4.3168,-4.4444,-4.6179,-4.8443,-4.9375,-5.043,-5.1516,-4.9362,-4.7694,-4.6438,-4.4952,-4.4172,-4.3986,-4.3986,-4.3986,0.0,0.0,0.0,0.0,0.0,0.0,0.0,0.0,0.0,0.0,0.0,0.0,0.0,0.0,0.0,0.0,-3.9394,-3.8646,-3.811,-3.7867,-3.9577,-4.145,-4.1431,-4.386,-4.6368,-4.6668,-4.5757,-4.4906,0.0,0.0,0.0,0.0,0.0,0.0,0.0,0.0,0.0,0.0,0.0,0.0,0.0,0.0,0.0,0.0,0.0,0.0,0.0,0.0,0.0,0.0,0.0,0.0,0.0,-7.4686,-7.4187,-7.3726,-7.3226,-7.2797,-7.2476,-7.2331,-7.2503,-7.2955,-7.3104,-7.329,-7.3474,-7.2905,-7.2573,-7.2401,-7.1729,-7.1568,-7.1818,-7.2297,-7.2759,-7.3156,-7.3811,-7.4325,-7.4782,0.0,0.0,0.0,0.0,0.0,0.0,0.0,0.0,0.0,0.0,0.0,0.0,0.0,0.0,0.0,0.0,0.0,0.0,0.0,-3.9138,-3.9965,-4.0854,-4.2393,-4.4271,-4.6599,-4.6749,-4.7673,-4.9399,-5.0879,-5.1585,-5.1503,-5.0467,-4.8779,-4.6475,-4.5584,-4.4766,-4.3986,-4.3986,-4.3986,-4.3986,-4.4153,0.0,0.0,0.0,0.0,0.0,0.0,0.0,0.0,0.0,0.0,0.0,0.0,0.0,-4.1151,-4.102,-4.0636,-4.0444,-4.1556,-4.2092,-4.2523,-4.3348,-4.3884,-4.5136,-4.869,-4.7546,-4.6534,-4.9388,0.0,0.0,0.0,0.0,0.0,0.0,0.0,0.0,0.0,0.0,0.0,0.0,0.0,0.0,0.0,0.0,0.0,0.0,0.0,0.0,0.0,0.0,0.0,0.0,0.0,-7.2941,-7.2869,-7.1478,-7.1337,-7.2476,-7.2476,-7.2512,-7.2547,-7.2583,-7.2691,-7.2834,-7.243,-7.224,-7.2166,-7.1572,-7.1312,-7.1391,-7.1613,-7.2263,-7.3194,-7.3896,-7.456,-7.5118,0.0,0.0,0.0,0.0,0.0,0.0,0.0,0.0,0.0,0.0,0.0,0.0,0.0,0.0,0.0,0.0,0.0,0.0,0.0,-3.9076,-4.0165,-4.1426,-4.2629,-4.397,-4.542,-4.75,-4.9571,-5.1699,-5.2146,-5.2041,-5.1466,-4.9537,-4.7887,-4.6438,-4.5101,-4.4618,-4.4766,-4.4246,-4.4321,-4.4766,-4.4278,0.0,0.0,0.0,0.0,0.0,0.0,0.0,0.0,0.0,-3.768,-3.893,-3.9207,-4.0512,-4.1735,-4.0741,-4.0429,-4.0265,-3.9571,-4.1792,-4.4188,-4.3615,-4.5663,-4.8213,-4.986,-5.0796,-5.1742,-5.3115,-5.3207,0.0,0.0,0.0,0.0,0.0,0.0,0.0,0.0,0.0,0.0,0.0,0.0,0.0,0.0,0.0,0.0,0.0,0.0,0.0,0.0,0.0,0.0,0.0,0.0,-7.2442,-7.212,-7.1409,-7.1125,-7.1266,-7.1371,-7.1586,-7.1801,-7.1908,-7.1978,-7.2049,-7.1902,-7.1677,-7.1447,-7.1189,-7.1336,-7.1706,-7.2014,-7.2333,-7.2641,-7.3568,-7.4185,-7.4726,0.0,0.0,0.0,0.0,0.0,0.0,0.0,0.0,0.0,0.0,0.0,0.0,0.0,0.0,0.0,0.0,0.0,0.0,-3.7753,-3.8677,-3.989,-4.1437,-4.2391,-4.352,-4.4857,-4.765,-5.0022,-5.1869,-5.2485,-5.2192,-5.1076,-4.9053,-4.7664,-4.681,-4.5398,-4.5101,-4.5621,-4.4766,-4.4729,-4.5212,-4.4358,-4.3206,0.0,0.0,0.0,0.0,0.0,0.0,0.0,0.0,-3.7346,-3.8436,-3.9454,-4.0825,-4.1862,-4.1092,-4.1193,-4.1134,-3.9371,-4.1638,-4.4448,-4.3965,-4.6706,-4.9913,-5.1465,-5.3123,-5.4772,-5.6384,-5.6407,-5.6468,-5.7464,0.0,0.0,0.0,0.0,0.0,0.0,0.0,0.0,0.0,0.0,0.0,0.0,0.0,0.0,0.0,0.0,0.0,0.0,0.0,0.0,0.0,0.0,-7.2798,-7.2441,-7.1801,-7.1302,-7.0871,-7.1044,-7.1118,-7.1231,-7.1334,-7.1367,-7.1436,-7.1686,-7.1643,-7.1375,-7.1309,-7.1354,-7.1509,-7.1873,-7.2191,-7.2475,-7.3437,-7.4226,-7.4832,0.0,0.0,0.0,0.0,0.0,0.0,0.0,0.0,0.0,0.0,0.0,0.0,0.0,0.0,0.0,0.0,0.0,0.0,-3.6955,-3.7814,-3.9027,-4.0613,-4.1528,-4.3131,-4.5585,-4.7312,-4.8626,-4.9527,-5.1765,-5.1964,-5.0239,-4.9334,-4.8444,-4.7627,-4.6847,-4.6513,-4.6438,-4.5621,-4.5287,-4.5212,-4.4358,-4.3503,-4.2723,0.0,0.0,0.0,0.0,0.0,0.0,0.0,-3.7338,-3.6387,-4.1249,-4.2051,-4.143,-4.2477,-4.3355,-4.3652,-4.2017,-4.2082,-4.2938,-4.4596,0.0,0.0,-5.3746,-5.4122,-5.4747,-5.9038,-5.9076,-5.8708,-5.9889,0.0,0.0,0.0,0.0,0.0,0.0,0.0,0.0,0.0,0.0,0.0,0.0,0.0,0.0,0.0,0.0,0.0,0.0,0.0,0.0,0.0,0.0,0.0,-7.3976,-7.2441,-7.1692,-7.1692,-7.1692,-7.1367,-7.0821,-7.0821,-7.0886,-7.1051,-7.1878,-7.2204,-7.2168,-7.2,-7.1364,-7.0551,-7.0842,-7.173,-7.2869,-7.369,-7.469,-7.5689,0.0,0.0,0.0,0.0,0.0,0.0,0.0,0.0,0.0,0.0,0.0,0.0,0.0,0.0,0.0,0.0,0.0,0.0,-3.6932,-3.7741,-3.8428,-3.8864,-4.0825,-4.2013,-4.22,-4.4893,-4.7588,-5.0274,-5.0272,-4.9687,-4.8505,-4.764,-4.6773,-4.603,-4.6364,-4.6178,-4.5621,-4.5398,-4.5287,-4.5212,-4.4358,-4.3503,-4.2723,0.0,0.0,0.0,0.0,0.0,0.0,0.0,0.0,0.0,-4.043,-4.1548,-4.2105,-4.2009,-4.2909,-4.354,-4.1349,-4.332,0.0,-4.6502,0.0,0.0,0.0,-5.6606,0.0,0.0,-6.1564,-6.1577,0.0,0.0,0.0,0.0,0.0,0.0,0.0,0.0,0.0,0.0,0.0,0.0,0.0,0.0,0.0,0.0,0.0,0.0,0.0,0.0,0.0,0.0,0.0,0.0,-7.1549,-7.1085,-7.0871,-7.0871,-7.0871,-7.1048,-7.144,-7.194,-7.2225,-7.2258,-7.1972,-7.1865,-7.1865,-7.176,-7.1227,-7.0585,-7.1231,-7.1443,-7.1505,-7.2394,-7.2961,-7.3351,0.0,0.0,0.0,0.0,0.0,0.0,0.0,0.0,0.0,0.0,-3.5071,-3.5822,0.0,0.0,0.0,0.0,0.0,0.0,0.0,-3.7454,-3.8028,-3.8639,-4.0424,-4.1635,-4.2132,-4.4655,-4.6651,-4.8097,-4.8466,-4.8199,-4.7329,-4.7082,-4.6735,-4.629,-4.7107,-4.6995,-4.6215,-4.5918,-4.5769,-4.5695,-4.4841,-4.4209,-4.3652,0.0,0.0,0.0,0.0,0.0,0.0,0.0,0.0,0.0,-3.9175,-3.9977,-4.0733,-4.1022,-4.224,-4.3503,-4.3355,-4.5426,0.0,-4.9767,-5.2343,-5.5124,-5.7637,0.0,0.0,0.0,0.0,0.0,0.0,0.0,0.0,0.0,0.0,0.0,0.0,0.0,0.0,0.0,0.0,0.0,0.0,0.0,0.0,0.0,0.0,0.0,0.0,0.0,0.0,0.0,0.0,0.0,-7.1406,-7.1121,-7.0978,-7.0978,-7.0978,-7.1228,-7.1692,-7.1834,-7.187,-7.187,-7.1727,-7.1692,-7.1692,-7.1692,-7.1228,-7.055,-7.1014,-7.1224,-7.1357,-7.1888,-7.2168,-7.2307,0.0,0.0,0.0,0.0,0.0,0.0,0.0,0.0,0.0,0.0,-3.4594,-3.5232,0.0,0.0,0.0,0.0,0.0,0.0,0.0,-3.7014,-3.7776,-3.9314,-4.0424,-4.2118,-4.4453,-4.5783,-4.5783,-4.4401,-4.6541,-4.7143,-4.627,-4.7177,-4.7553,-4.7532,-4.8407,-4.8296,-4.7458,-4.6624,-4.6215,-4.6104,-4.5361,-4.5026,-4.4804,-4.328,0.0,0.0,0.0,0.0,0.0,0.0,0.0,0.0,-3.7839,-3.7907,-3.8204,-3.9728,-4.1423,-4.3466,-4.6479,0.0,0.0,0.0,0.0,0.0,0.0,0.0,0.0,0.0,0.0,0.0,0.0,0.0,0.0,0.0,0.0,0.0,0.0,0.0,0.0,0.0,0.0,0.0,0.0,0.0,0.0,0.0,0.0,0.0,0.0,0.0,0.0,0.0,0.0,0.0,-7.2335,-7.1657,-7.1336,0.0,-7.1336,-7.1371,-7.1371,-7.0907,-7.0657,-7.0657,-7.1371,-7.1656,-7.1585,-7.1513,-7.1049,-7.0371,-7.03,-7.0865,-7.1679,-7.1679,-7.1745,-7.1845,0.0,0.0,0.0,0.0,0.0,0.0,0.0,0.0,0.0,0.0,0.0,0.0,0.0,0.0,0.0,0.0,0.0,0.0,0.0,-3.6594,-3.7393,-3.8377,-4.1595,-4.4251,-4.6078,-4.5168,-4.4802,-4.509,-4.5658,-4.5152,-4.3759,-4.5802,-4.6434,-4.594,-4.7326,-4.7177,-4.5829,-4.491,-4.4172,-4.3578,-4.3392,-4.2946,-4.2352,-4.198,-4.1349,0.0,0.0,0.0,0.0,0.0,0.0,0.0,-3.7907,-3.7934,-3.8035,-3.8366,-4.0494,-4.3049,0.0,-4.7371,0.0,0.0,0.0,0.0,0.0,0.0,0.0,0.0,0.0,0.0,0.0,0.0,0.0,0.0,0.0,0.0,0.0,0.0,0.0,0.0,0.0,0.0,0.0,0.0,0.0,0.0,0.0,0.0,0.0,0.0,0.0,0.0,0.0,-6.8955,-6.8955,-6.8641,-6.8501,0.0,-6.8638,-6.8706,-6.8777,-7.1194,-7.1977,-7.1442,-7.162,-7.1335,-7.0728,-7.0086,-6.9729,-6.9515,-6.8873,-6.8863,-6.917,-6.917,-6.917,-6.9203,0.0,0.0,0.0,0.0,0.0,0.0,0.0,0.0,0.0,0.0,0.0,0.0,0.0,0.0,0.0,0.0,0.0,0.0,0.0,-3.698,-3.7816,-3.9754,-4.2954,-4.4764,-4.4839,-4.4355,-4.3945,-4.361,-4.402,-4.393,-4.3475,-4.5934,-4.688,-4.6541,-4.7755,-4.7384,-4.5834,-4.4559,-4.3763,-4.3355,-4.3355,-4.3132,-4.2612,-4.146,-4.0285,-3.9082,-3.8228,0.0,0.0,0.0,0.0,0.0,0.0,0.0,-3.6347,-3.7089,-3.8525,-4.0703,0.0,0.0,0.0,0.0,0.0,0.0,0.0,0.0,0.0,0.0,0.0,0.0,0.0,0.0,0.0,0.0,0.0,0.0,0.0,0.0,0.0,0.0,0.0,0.0,0.0,0.0,0.0,0.0,0.0,0.0,0.0,0.0,0.0,0.0,-6.7745,-6.7858,-6.779,-6.7652,-6.7583,-6.7583,-6.7722,-6.779,-6.7825,-6.9698,-7.0336,-6.9979,-6.9979,-6.9729,-6.9301,-6.8908,-6.873,-6.8694,-6.8266,-6.8153,-6.8288,-6.8288,-6.8005,-6.7751,0.0,0.0,0.0,0.0,0.0,0.0,0.0,0.0,0.0,0.0,0.0,0.0,0.0,0.0,0.0,0.0,0.0,0.0,0.0,-3.7578,-3.8738,-4.1771,-4.3871,-4.4429,-4.3319,-4.3573,-4.3193,-4.2169,-4.2387,-4.3334,-4.491,-4.6694,-4.7586,-4.7752,-4.831,-4.7698,-4.6211,-4.4373,-4.3519,-4.3392,-4.3392,-4.3206,-4.2723,-4.0717,-3.8934,-3.7373,-3.6556,-3.6458,-3.6891,-3.8228,0.0,0.0,0.0,0.0,-3.4513,-3.6036,-3.6606,-3.813,0.0,0.0,0.0,0.0,0.0,0.0,0.0,0.0,0.0,0.0,0.0,0.0,0.0,0.0,0.0,0.0,0.0,0.0,0.0,0.0,0.0,0.0,0.0,0.0,0.0,0.0,0.0,0.0,0.0,0.0,0.0,0.0,-6.6832,-6.6571,-6.7385,-6.771,-6.7475,-6.7547,-6.7583,-6.7583,-6.7618,-6.7581,-6.7475,-6.7777,-6.798,-6.8054,-6.8088,-6.8088,-6.8088,-6.7945,-6.7909,-6.7909,-6.7766,-6.7695,-6.7695,-6.7695,-6.7302,-6.6803,0.0,0.0,0.0,0.0,0.0,0.0,0.0,0.0,0.0,0.0,-3.5897,-3.5935,-3.6047,-3.5296,0.0,0.0,0.0,0.0,-3.6197,0.0,0.0,-4.2552,-4.3022,-4.3766,-4.4931,-4.3081,-4.2611,-4.372,-4.1828,-4.3475,-4.8389,-4.7276,-4.7197,-4.7911,-4.7298,-4.6429,-4.5398,-4.3014,-4.157,-4.0866,-4.0866,-4.0011,-3.8674,-3.8339,-3.7238,-3.5714,-3.4847,-3.5479,-3.6718,-3.6941,-3.7931,0.0,0.0,0.0,0.0,0.0,-3.616,-3.732,0.0,0.0,0.0,0.0,0.0,0.0,0.0,0.0,0.0,0.0,0.0,0.0,0.0,0.0,0.0,0.0,0.0,0.0,0.0,0.0,0.0,0.0,0.0,0.0,0.0,0.0,0.0,0.0,0.0,0.0,0.0,-6.6402,-6.6469,-6.5946,-6.7007,-6.7374,-6.6827,-6.7333,-6.7583,-6.7583,-6.779,-6.7467,-6.6827,-6.7059,-6.7451,-6.7923,-6.8057,-6.8088,-6.8052,-6.741,-6.7124,-6.7053,-6.6375,-6.6125,-6.6125,-6.6125,-6.6053,-6.6053,0.0,0.0,0.0,0.0,0.0,0.0,0.0,0.0,0.0,0.0,0.0,-3.6235,-3.7136,-3.5672,0.0,0.0,0.0,0.0,-3.6478,-3.8701,0.0,-4.1481,-4.1965,-4.2314,-4.2671,-4.0751,-4.0504,-4.2155,-4.0208,-4.2441,-4.8536,-4.8194,-4.9467,-5.1984,-5.0698,-4.9081,-4.712,-4.3751,-4.1839,-4.0954,-3.9565,-4.0197,-4.1534,-3.6891,-3.616,-3.7113,-3.3968,-3.3336,-3.4228,-3.6086,-3.7151,-3.7559,0.0,0.0,0.0,0.0,0.0,0.0,0.0,0.0,0.0,0.0,0.0,0.0,0.0,0.0,0.0,0.0,0.0,0.0,0.0,0.0,0.0,0.0,0.0,0.0,0.0,0.0,0.0,0.0,0.0,0.0,0.0,0.0,0.0,0.0,0.0,0.0,-6.5525,-6.6482,-6.6852,-6.641,-6.7003,-6.6969,-6.6264,-6.6488,-6.6538,-6.6309,-6.641,-6.6266,-6.5911,-6.6076,-6.6287,-6.6541,-6.6738,-6.6803,-6.6803,-6.6446,-6.6339,-6.6303,-6.5946,-6.5804,-6.5804,-6.5804,-6.6089,-6.6517,0.0,0.0,0.0,0.0,0.0,0.0,0.0,0.0,0.0,0.0,0.0,0.0,-3.785,0.0,0.0,0.0,0.0,0.0,-3.7192,0.0,0.0,0.0,-4.0812,-4.0863,-4.0551,-3.8749,-3.8738,-4.0646,-3.8989,-4.1911,-4.9043,-4.9615,-5.2373,-5.6685,-5.4224,-5.1448,-4.8404,-4.4963,-4.2976,-4.2054,-4.0225,-4.1549,-4.4061,-3.8525,-3.8191,-4.0048,-3.5343,-3.393,-3.4525,-3.616,-3.6965,-3.7127,0.0,0.0,0.0,0.0,0.0,0.0,0.0,0.0,0.0,0.0,0.0,0.0,0.0,0.0,0.0,0.0,0.0,0.0,0.0,0.0,0.0,0.0,0.0,0.0,0.0,0.0,0.0,0.0,0.0,0.0,0.0,0.0,0.0,0.0,0.0,0.0,-6.575,-6.6856,-6.7323,-6.6959,-6.7395,-6.7279,-6.651,-6.6726,-6.6648,-6.6371,-6.6245,-6.6245,-6.6307,-6.5999,-6.5892,-6.5989,-6.5843,-6.5911,-6.6089,-6.6089,-6.6232,-6.6375,-6.6375,-6.6375,-6.6375,-6.6375,-6.6767,-6.7302,0.0,0.0,0.0,0.0,0.0,0.0,0.0,0.0,0.0,0.0,0.0,0.0,-3.7073,-3.5645,-3.4958,-3.5897,-3.5897,0.0,0.0,0.0,0.0,0.0,0.0,0.0,-4.0411,-3.8137,-3.8139,-4.0496,-3.8963,-4.281,-5.1628,-5.1694,-5.515,-6.0964,-5.6182,-5.1725,-4.7744,-4.6072,-4.478,-4.3875,-4.3788,-4.3453,-4.3132,-4.5064,-4.5472,-4.4432,-4.0234,-3.9751,-4.0643,0.0,-3.7708,-3.8725,-3.7203,-3.6149,-3.5343,0.0,0.0,0.0,0.0,0.0,0.0,0.0,0.0,0.0,0.0,0.0,0.0,0.0,0.0,0.0,0.0,0.0,0.0,0.0,0.0,0.0,0.0,0.0,0.0,0.0,0.0,0.0,0.0,0.0,0.0,0.0,0.0,0.0,-6.7008,-6.762,-6.771,-6.7101,-6.8392,-6.8796,-6.8182,-6.8947,-6.9282,-6.9252,-6.8837,-6.8806,-6.9044,-6.7585,-6.7068,-6.7245,-6.6249,-6.6232,-6.691,-6.691,-6.7338,-6.798,-6.798,-6.798,-6.798,-6.798,-6.8016,-6.8159,0.0,0.0,0.0,0.0,0.0,0.0,0.0,0.0,0.0,0.0,0.0,0.0,0.0,-3.6423,-3.5972,-3.7324,-3.7401,0.0,0.0,0.0,0.0,0.0,0.0,0.0,-3.9635,-3.7293,-3.6783,-3.8265,-3.713,-3.9926,-4.633,-4.8359,-5.1116,-5.4352,-5.4166,-5.3179,-5.1341,-4.6541,-4.4628,-4.4729,-4.3683,-4.5303,-4.8073,-4.5769,-4.6698,-4.8593,-4.3912,0.0,0.0,0.0,0.0,-3.8116,-3.7065,-3.6173,-3.512,-3.3236,-3.3794,-3.5417,0.0,0.0,0.0,0.0,0.0,0.0,0.0,0.0,0.0,0.0,0.0,0.0,0.0,0.0,0.0,0.0,0.0,0.0,0.0,0.0,0.0,0.0,0.0,0.0,0.0,0.0,0.0,0.0,0.0,0.0,-6.6769,-6.7839,-6.8321,-6.8007,-6.8556,-6.8604,-6.799,-6.7943,-6.7948,-6.7948,-6.7775,-6.7775,-6.7862,-6.7047,-6.6726,-6.6782,-6.6101,-6.5946,-6.6232,-6.6232,-6.6696,-6.7374,-6.7374,-6.7659,-6.8088,-6.8088,-6.8639,-6.9329,0.0,0.0,0.0,0.0,0.0,0.0,0.0,0.0,-3.4808,-3.5371,0.0,0.0,0.0,0.0,-3.7136,-3.8225,-3.824,-3.8178,-3.8128,-3.8784,0.0,0.0,0.0,0.0,-3.9188,-3.7081,-3.6323,-3.6968,-3.6131,-3.8128,-4.281,-4.5485,-4.8151,-5.0807,-5.1347,-5.2117,-5.2754,-4.8367,-4.6508,-4.6475,-4.6248,-4.807,-5.0859,-4.9745,-5.1045,-5.294,0.0,0.0,0.0,0.0,0.0,0.0,-3.8143,-3.6024,-3.4029,-3.2593,-3.3373,-3.486,-3.5627,0.0,0.0,0.0,0.0,0.0,0.0,0.0,0.0,0.0,0.0,0.0,0.0,0.0,0.0,0.0,0.0,0.0,0.0,0.0,0.0,0.0,0.0,0.0,0.0,0.0,0.0,0.0,0.0,0.0,-6.6852,-6.8071,-6.8697,-6.8554,-6.8602,-6.842,-6.8033,-6.771,-6.7577,-6.7577,-6.7122,-6.7158,-6.755,-6.6713,-6.646,-6.6684,-6.6238,-6.6106,-6.6196,-6.6196,-6.666,-6.7407,-6.7819,-6.8314,-6.8776,-6.9221,-6.9909,-7.0625,0.0,0.0,0.0,0.0,0.0,0.0,0.0,0.0,-3.4669,-3.4706,0.0,0.0,0.0,0.0,0.0,-3.8438,-3.8352,-3.8278,-3.8278,-3.8848,-3.9215,-3.9215,0.0,0.0,-3.9133,-3.7612,-3.6857,-3.687,-3.6108,-3.7779,-4.1798,-4.3484,-4.68,-5.115,-4.7963,-4.8336,-5.1319,-5.1245,-5.0335,-4.915,-5.1581,-5.1675,-5.1008,-5.7398,-5.8921,0.0,-5.5763,-5.4648,0.0,-4.9299,0.0,0.0,-4.0514,-3.5889,-3.2166,-3.2827,-3.3076,-3.3287,0.0,0.0,0.0,0.0,0.0,0.0,0.0,0.0,0.0,0.0,0.0,0.0,0.0,0.0,0.0,0.0,0.0,0.0,0.0,0.0,0.0,0.0,0.0,0.0,0.0,0.0,0.0,0.0,0.0,-6.7471,-6.7393,-6.8306,-6.8814,-6.8697,-6.8554,-6.8481,-6.8481,-6.8481,-6.8481,-6.8481,-6.7257,-6.7319,-6.842,-6.6716,-6.6372,-6.7036,-6.6612,-6.6598,-6.6942,-6.6946,-6.7442,-6.8258,-6.9497,-6.9976,-7.0216,-7.1441,-7.1915,-7.1945,0.0,0.0,0.0,0.0,0.0,-3.6697,-3.6434,-3.6397,-3.661,0.0,0.0,0.0,-3.9138,-4.029,-4.1203,-4.1788,-4.125,-4.0624,-3.9973,-3.956,-3.9346,-3.9346,-3.9229,-3.9215,-3.932,-3.8236,-3.7119,-3.6033,-3.6383,-3.7144,-3.834,-4.0595,-4.3252,-4.6078,-4.5907,-4.6265,-4.688,-4.5095,-4.6417,-4.9745,-4.9279,-5.1658,0.0,0.0,0.0,0.0,0.0,-5.8178,-5.6209,0.0,-5.1231,-4.6884,0.0,-3.74,-3.5058,-3.3484,-3.4661,-3.6185,-3.4624,0.0,0.0,0.0,0.0,0.0,0.0,0.0,0.0,0.0,0.0,0.0,0.0,0.0,0.0,0.0,0.0,0.0,0.0,0.0,0.0,0.0,0.0,0.0,0.0,0.0,0.0,0.0,-6.5284,-6.6008,-6.6613,-6.7388,-6.8087,-6.8697,-6.8554,-6.8481,-6.8481,-6.8481,-6.8481,-6.8481,-6.8124,-6.8161,-6.8444,-6.7031,-6.6539,-6.6669,-6.5192,-6.4999,-6.573,-6.6034,-6.7135,-6.8706,-6.9079,-7.0087,-7.1405,-7.1745,-7.2153,-7.248,0.0,0.0,0.0,-3.7437,-3.8112,-3.8638,-3.8638,-3.8638,-3.8826,0.0,0.0,0.0,-4.1492,-4.3106,-4.3966,-4.3723,-4.2585,-4.1547,-4.0656,-3.9872,-3.9386,-3.9386,-3.9632,-3.9818,-3.9909,-3.937,-3.8314,-3.6742,-3.6857,-3.6907,-3.6994,-3.8712,-4.0198,-4.1504,-4.2112,-4.2507,-4.2575,-4.0486,0.0,0.0,-5.0562,0.0,0.0,-5.8624,-6.0019,0.0,0.0,0.0,-5.9065,-5.8185,-5.4092,0.0,0.0,-4.0085,-3.7894,-3.6086,-3.6891,-3.8079,-3.663,-3.7299,-3.8711,0.0,0.0,0.0,0.0,0.0,0.0,0.0,0.0,0.0,0.0,0.0,0.0,0.0,0.0,0.0,0.0,0.0,0.0,0.0,0.0,0.0,0.0,0.0,0.0,0.0,-6.4112,-6.4993,-6.5923,-6.6209,-6.6751,-6.7724,-6.7909,-6.8023,-6.8023,-6.8357,-6.8481,-6.8481,-6.8147,-6.8023,-6.7961,-6.6889,-6.6284,-6.6044,-6.494,-6.4654,-6.5048,-6.5616,-6.6848,-6.8486,-6.9563,-7.0727,-7.1801,-7.2333,-7.2705,-7.299,0.0,0.0,-3.8788,-3.9464,-4.0403,-4.1079,-4.1066,-4.1154,-4.1229,0.0,-4.1417,-4.2431,-4.4932,-4.6373,-4.6494,-4.4974,-4.3273,-4.186,-4.0819,-3.9997,-3.9524,-3.9449,-4.0184,-4.0558,-4.0483,-4.0656,-3.9898,-3.8215,-3.7505,-3.7168,-3.7142,-3.7753,-3.7949,-3.7888,-3.7875,-3.8245,-3.8762,-3.7774,0.0,-4.7049,-5.294,-5.4946,0.0,0.0,-6.1438,-6.0688,-6.2178,-6.2316,-6.1616,-6.0468,-5.6029,0.0,0.0,-4.3875,-4.1349,-3.9937,-3.9751,-3.9974,-3.9602,-3.9565,-4.0457,0.0,0.0,0.0,0.0,-4.551,0.0,0.0,0.0,0.0,0.0,0.0,0.0,0.0,0.0,0.0,0.0,0.0,0.0,0.0,0.0,0.0,0.0,0.0,-6.335,-6.2736,-6.3392,-6.4278,-6.5207,-6.4808,-6.5016,-6.6097,-6.6691,-6.702,-6.702,-6.7924,-6.837,-6.8357,-6.7725,-6.7428,-6.7428,-6.6611,-6.6012,-6.5593,-6.5359,-6.5066,-6.4831,-6.5524,-6.664,-6.8077,-7.0421,-7.1489,-7.1857,-7.2982,-7.3398,-7.3398,0.0,-3.8939,-4.0115,-3.9539,-4.1303,-4.2793,-4.2725,-4.3328,-4.4008,-4.4646,-4.5359,-4.6749,-4.9227,-4.8589,-4.7838,-4.7485,-4.5946,-4.4055,-4.1852,-4.0965,-4.0252,-3.959,-4.0289,-4.0388,-3.9815,-4.0948,-4.0486,-3.8276,-3.8777,-3.864,-3.7978,-3.8028,-3.7703,-3.7031,-3.7082,-3.7144,-3.7428,-3.9829,0.0,-4.6743,-4.861,0.0,-5.7955,-5.9701,-6.1447,-6.2978,-6.3423,-6.3466,-6.3041,-6.082,-5.8378,-5.5378,0.0,0.0,-4.8296,-4.3503,-4.3949,-4.5435,-4.2797,-4.2537,-4.276,0.0,0.0,0.0,0.0,-4.1542,0.0,0.0,0.0,0.0,0.0,0.0,0.0,0.0,0.0,0.0,0.0,0.0,0.0,0.0,0.0,0.0,0.0,0.0,-6.2002,-6.2593,-6.2827,-6.3339,-6.422,-6.3472,-6.3444,-6.4271,-6.4933,-6.5287,-6.5287,-6.6773,-6.754,-6.754,-6.8023,-6.8283,-6.8246,-6.7428,-6.7009,-6.6839,-6.5041,-6.468,-6.5279,-6.5312,-6.668,-6.8862,-7.0082,-7.1568,-7.3045,-7.3309,-7.3398,-7.3398,-3.8275,-3.999,-4.1404,-4.1327,-4.3079,-4.4782,-4.5579,-4.6044,-4.6636,-4.75,-4.8664,-4.9602,-5.0053,-4.9715,-4.8911,-4.7582,-4.6029,-4.4191,-4.2061,-4.1228,-4.044,-3.9627,-4.034,-4.0753,-4.0816,-4.1126,-4.0939,-4.0165,-3.8865,-3.8028,-3.7652,-3.7542,-3.7281,-3.692,-3.7355,-3.7953,-3.8721,0.0,-4.2634,-4.6301,-5.0357,0.0,-5.8921,-6.0964,-6.2547,-6.3714,-6.3823,-6.391,-6.343,-6.0082,-5.8661,0.0,0.0,-5.1936,-5.1714,0.0,-4.7029,-4.7715,-4.4819,-4.4352,0.0,-4.4634,0.0,0.0,0.0,0.0,0.0,0.0,0.0,0.0,0.0,0.0,0.0,0.0,0.0,0.0,0.0,0.0,0.0,0.0,0.0,0.0,0.0,0.0,-6.1416,-6.1917,-6.1608,-6.1948,-6.328,-6.2876,-6.2817,-6.3233,-6.3922,-6.4301,-6.4301,-6.5529,-6.6546,-6.7317,-6.7725,-6.8134,-6.8444,-6.7688,-6.7317,-6.7219,-6.5717,-6.5114,-6.521,-6.5521,-6.6408,-6.7728,-6.8937,-7.0038,-7.0995,-7.1403,-7.1552,-7.1626,-3.8988,-4.0553,-4.1929,-4.2455,-4.4294,-4.611,-4.7297,-4.7763,-4.8438,-4.979,-5.1367,-5.2081,-5.1255,-5.1593,-5.1035,-4.883,-4.6825,-4.4927,-4.3137,-4.205,-4.1079,-4.009,-4.0666,-4.1267,-4.1742,-4.1304,-4.1191,-4.1554,-3.8652,-3.7202,-3.711,-3.698,-3.6881,-3.6841,-3.7928,-3.9287,-4.0724,0.0,0.0,-4.7512,0.0,-5.6655,-5.7918,-6.1543,-6.2984,-6.3168,-6.3745,-6.4,-6.358,-5.9998,-5.9151,-5.892,-5.4874,-5.4222,0.0,0.0,0.0,0.0,0.0,0.0,0.0,0.0,0.0,-4.5175,0.0,0.0,0.0,-4.4098,0.0,0.0,0.0,0.0,0.0,0.0,0.0,0.0,0.0,0.0,0.0,0.0,0.0,0.0,0.0,0.0,-6.0561,-6.1204,-5.9959,-6.0075,-6.2263,-6.222,-6.222,-6.2417,-6.3025,-6.3333,-6.3311,-6.4115,-6.5202,-6.6635,-6.6945,-6.7503,-6.827,-6.7763,-6.754,-6.7503,-6.6685,-6.5989,-6.5448,-6.5766,-6.5877,-6.6081,-6.7638,-6.8357,-6.8556,-6.9224,-6.9447,-6.9558,-3.7373,-3.9276,-4.0715,-3.9976,-4.3103,-4.5495,-4.4913,-4.6142,-4.8213,-5.1217,-5.3095,-5.4897,-5.6907,-5.6587,-5.6061,-5.5781,-5.2231,-4.9234,-4.7491,-4.5302,-4.3328,-4.17,-4.179,-4.1554,-4.0966,-4.1554,-4.1229,-3.989,-3.8701,-3.78,-3.711,-3.7016,-3.663,-3.6016,-3.8203,-4.0106,0.0,0.0,-4.6536,0.0,-5.4556,-5.4426,0.0,-5.8673,-6.0501,-6.0841,-6.3215,-6.4183,-6.4076,0.0,-6.2317,-6.167,0.0,-5.8016,-5.8417,0.0,0.0,0.0,0.0,0.0,0.0,0.0,-5.0228,0.0,0.0,0.0,-4.4989,-4.1646,0.0,0.0,0.0,0.0,0.0,0.0,0.0,0.0,0.0,0.0,0.0,0.0,0.0,0.0,0.0,0.0,0.0,-6.0986,-5.7715,-5.7269,-6.1156,-6.072,-6.0708,-6.1416,-6.1649,-6.1687,-6.1582,-6.238,-6.3274,-6.4205,-6.558,-6.6695,-6.7533,-6.8108,-6.8357,-6.8296,-6.7503,-6.7131,-6.6908,-6.5534,-6.4939,-6.5125,-6.6797,-6.7874,-6.8506,-6.8617,-6.863,-6.8741,-3.6986,-3.9089,-4.054,-3.9652,-4.2554,-4.4895,-4.4529,-4.7935,-5.1067,-5.2456,-5.4934,-5.6962,-5.7995,-5.6907,-5.6344,-5.6796,0.0,-5.066,0.0,-4.6555,-4.467,-4.3478,-4.2517,-4.2079,-4.2243,-4.1642,-4.0966,-4.0303,-3.7512,-3.5972,-3.5645,-3.5612,-3.644,-3.8041,-4.1445,0.0,-4.7383,0.0,-4.8543,0.0,0.0,0.0,0.0,-5.9607,-6.23,-6.2575,-6.3705,-6.4203,-6.3946,0.0,-6.1367,0.0,0.0,0.0,0.0,0.0,0.0,0.0,0.0,0.0,0.0,0.0,0.0,0.0,-4.5695,0.0,-4.4692,0.0,0.0,0.0,0.0,0.0,0.0,0.0,0.0,0.0,0.0,0.0,0.0,0.0,0.0,0.0,0.0,0.0,0.0,0.0,0.0,-5.6756,-6.0485,-6.1293,-6.1537,-6.1425,-6.1528,-6.1511,-6.147,-6.1297,-6.1831,-6.305,-6.4197,-6.544,-6.6681,-6.7486,-6.8108,-6.8506,-6.8134,-6.7749,-6.73,-6.656,-6.6003,-6.5626,-6.578,-6.577,-6.5719,-6.6179,-6.6327,-6.6476,-3.6873,-3.8701,-3.9902,-3.9352,-4.1792,-4.4106,-4.5045,-4.8964,-5.2172,-5.3074,-5.5648,-5.7845,-5.899,-5.8051,0.0,-5.9403,-5.6326,-5.3737,0.0,0.0,-4.7222,-4.6869,-4.4369,-4.3431,-4.4308,-4.2205,-4.1004,-4.0816,-3.7099,-3.5409,-3.5597,-3.536,-3.6752,-3.9626,-4.3951,-4.7858,-5.1168,0.0,0.0,-5.3182,-5.3533,-5.4185,-5.5511,-6.0828,-6.3397,-6.4162,-6.4162,-6.4224,-6.3871,-6.1185,-6.1052,0.0,-6.026,0.0,0.0,0.0,0.0,0.0,-5.48,0.0,0.0,0.0,0.0,0.0,0.0,0.0,0.0,0.0,0.0,0.0,0.0,0.0,0.0,-4.2352,0.0,0.0,0.0,0.0,0.0,0.0,0.0,0.0,0.0,0.0,0.0,0.0,0.0,0.0,-5.9278,-6.0683,-6.1487,-6.1823,-6.1721,-6.1744,-6.1949,-6.1082,-6.1226,-6.23,-6.3093,-6.4227,-6.5597,-6.6602,-6.7486,-6.8219,-6.8442,-6.8267,-6.7743,-6.7462,-6.704,-6.6439,-6.5282,-6.4433,-6.3973,-6.4322,-6.447,-6.4582,-3.6772,-3.7727,-3.8302,-3.8326,-4.039,-4.3168,-4.6396,-4.7725,-4.9543,-5.2773,0.0,0.0,0.0,0.0,0.0,0.0,0.0,-6.0266,-6.0152,0.0,-5.2011,-5.2694,-4.8145,-4.5998,0.0,-4.3656,-4.1591,-4.0816,-3.8263,-3.7399,-3.815,-3.7328,-3.7865,-3.9802,-4.4498,-4.8,-5.0586,-5.2754,-5.6474,-6.0799,-5.9292,-6.0683,-6.3484,0.0,-6.2066,-6.4284,-6.4284,0.0,0.0,-6.327,-6.2911,0.0,0.0,0.0,0.0,0.0,0.0,0.0,0.0,0.0,0.0,-5.3107,0.0,0.0,0.0,0.0,-4.6999,0.0,0.0,0.0,0.0,-4.3949,-4.3392,-4.1869,-4.2277,0.0,0.0,0.0,0.0,0.0,0.0,0.0,0.0,0.0,0.0,0.0,0.0,0.0,-5.7175,-5.7804,-5.9415,-6.2571,-6.2101,-6.2142,-6.2847,-6.2081,-6.1669,-6.1724,-6.2342,-6.3163,-6.4192,-6.5545,-6.6607,-6.7482,-6.8338,-6.8674,-6.8623,-6.784,-6.7505,-6.7258,-6.5506,-6.4768,-6.4656,-6.3913,-6.3639,-6.375,-3.7129,-3.8477,-3.961,-3.9214,0.0,-4.3413,-4.7875,-5.0209,0.0,0.0,0.0,0.0,0.0,-6.4585,-6.5148,0.0,0.0,-6.282,-6.2255,-5.7808,0.0,0.0,0.0,-4.9678,0.0,-4.7237,-4.4909,-4.2431,-4.0478,-3.9439,-3.9138,-3.8851,-3.9564,-4.1325,-4.6156,-5.0291,0.0,0.0,0.0,0.0,0.0,-6.1162,-6.4131,0.0,0.0,-6.4284,-6.4284,-6.4284,0.0,-6.3984,-6.3513,-6.3061,-6.3343,-6.2648,-6.1726,-6.1966,-6.1813,0.0,0.0,0.0,-6.1011,-5.6089,0.0,0.0,0.0,0.0,0.0,0.0,0.0,0.0,0.0,-4.407,-4.3652,-4.2575,-4.2612,-4.1832,0.0,0.0,0.0,0.0,0.0,0.0,0.0,0.0,0.0,0.0,0.0,0.0,0.0,-5.6874,-5.8837,-6.1102,-6.1578,-6.22,-6.3023,-6.2158,-6.1706,-6.1706,-6.2449,-6.289,-6.3163,-6.4828,-6.5956,-6.6648,-6.7574,-6.8292,-6.8814,-6.8553,-6.8358,-6.8115,-6.6416,-6.5714,-6.5496,-6.4122,-6.3602,-6.3639,-3.8851,-3.9682,0.0,0.0,0.0,-4.54,-4.9224,0.0,0.0,0.0,-6.1017,0.0,-6.6483,0.0,-6.7176,0.0,-6.7326,-6.5561,-6.4472,-6.1093,0.0,-5.9853,-5.6174,0.0,0.0,-5.1271,-4.8363,-4.5021,-4.3369,-4.198,-4.0904,-4.0578,-4.114,-4.2561,0.0,-5.0698,-5.4075,0.0,-5.8534,0.0,0.0,-6.233,0.0,0.0,-6.4284,-6.4284,0.0,-6.4284,-6.4284,-6.4284,-6.3946,-6.3608,-6.4134,-6.3533,-6.2745,-6.2928,-6.2776,-6.2398,-6.1756,-6.2106,0.0,-5.7996,-5.6239,0.0,-4.9594,0.0,0.0,0.0,0.0,0.0,0.0,0.0,-4.4436,-4.415,-4.3385,-4.1578,0.0,0.0,0.0,0.0,0.0,0.0,0.0,0.0,-4.4147,-4.7548,0.0,0.0,0.0,0.0,-5.7509,-5.9889,-6.1128,-6.218,-6.3083,-6.2761,-6.2478,-6.2196,-6.268,-6.2882,-6.2816,-6.3883,-6.5073,-6.6374,-6.6919,-6.786,-6.8929,-6.8929,-6.8884,-6.8665,-6.723,-6.6453,-6.5914,-6.4233,-6.3602,-6.3602,0.0,0.0,0.0,0.0,-4.549,0.0,0.0,0.0,-5.745,0.0,-6.1768,-6.4247,-6.6783,-6.7701,-6.9128,-7.1494,-7.0233,-6.8677,-6.7084,-6.4697,0.0,0.0,-6.0154,-5.8689,-5.9403,-5.5365,-5.1684,-4.8438,-4.6599,-4.4946,-4.3444,-4.2476,-4.2514,-4.3482,-4.6569,0.0,-5.1984,-5.6836,-6.0404,-6.2853,-6.3903,-6.4284,-6.4284,-6.4284,-6.4284,-6.4284,-6.4284,-6.4284,-6.4284,-6.4284,-6.4284,-6.4284,-6.4284,-6.4284,-6.4134,-6.3383,-6.3603,-6.3784,-6.2231,-6.23,-6.2051,-5.8914,0.0,0.0,0.0,0.0,-5.2606,0.0,0.0,0.0,0.0,0.0,-4.5826,-4.6322,-4.4399,-4.145,-3.7424,0.0,0.0,0.0,0.0,0.0,0.0,0.0,-4.0011,-4.4692,-4.2983,0.0,0.0,0.0,-5.5473,-5.8971,-6.0732,-6.2103,-6.3083,-6.3871,-6.3871,-6.3158,-6.3021,-6.3021,-6.3063,-6.2795,-6.4081,-6.6555,-6.6447,-6.7382,-6.9027,-6.9027,-6.9027,-6.8908,-6.7896,-6.6946,-6.5955,-6.4242,-6.3602,-6.3602,-4.2708,-4.4907,-4.692,0.0,-4.6727,-4.8123,0.0,0.0,0.0,0.0,-6.5035,-6.7025,-7.0104,-7.063,-7.1006,-7.1644,-7.1284,0.0,0.0,0.0,0.0,-6.6725,-6.3571,-6.1618,-6.1168,-5.6512,-5.3357,-5.1909,-4.7725,-4.581,-4.6035,-4.4543,-4.3942,-4.4294,0.0,0.0,-5.2853,-5.5976,-5.9851,-6.3923,-6.4189,-6.4284,0.0,0.0,-6.4284,-6.4284,-6.4284,-6.4284,-6.4284,-6.4284,-6.4284,-6.4284,-6.4284,-6.4284,-6.4247,-6.4059,-6.4114,-6.4169,-6.3739,-6.3756,-6.3528,-6.2142,-6.0341,-5.839,0.0,0.0,0.0,0.0,0.0,0.0,0.0,0.0,0.0,-4.519,-4.3215,-4.1413,0.0,0.0,0.0,0.0,0.0,0.0,0.0,0.0,-4.094,-4.1623,0.0,0.0,0.0,0.0,0.0,-5.7377,-5.9703,-6.1599,-6.3083,-6.3308,-6.3608,-6.3984,-6.3964,-6.3586,-6.2963,-6.3563,-6.4537,-6.5753,-6.6395,-6.7637,-6.9138,-6.9138,-6.9094,-6.893,-6.795,-6.6597,-6.5036,-6.3973,-6.3602,-6.3602,-4.4569,0.0,0.0,-5.1631,0.0,0.0,-5.5862,0.0,0.0,-6.4322,-6.665,0.0,-7.0405,-7.1944,-7.2808,-7.2808,-7.2432,0.0,-7.0592,0.0,0.0,-6.8039,-6.6237,-6.4847,-6.3984,-6.0191,0.0,-5.4259,0.0,-4.7725,-4.6411,-4.5134,-4.4294,-4.4045,0.0,-4.8181,0.0,-5.6331,-6.0434,-6.3796,-6.4134,0.0,0.0,-6.4284,-6.4284,-6.4284,-6.4284,-6.4284,-6.4284,-6.4284,-6.4284,-6.4284,-6.4284,-6.4284,-6.4284,-6.4284,-6.4284,-6.4284,-6.4284,-6.4284,-6.4172,-6.3721,-6.2557,-6.098,-5.9065,-5.899,-5.8764,0.0,0.0,0.0,0.0,0.0,0.0,-4.4378,-4.2632,-4.1334,0.0,0.0,0.0,0.0,0.0,0.0,0.0,0.0,0.0,0.0,0.0,0.0,0.0,0.0,0.0,-5.5723,-5.8878,-6.1147,-6.2519,-6.2895,-6.3496,-6.4284,-6.4284,-6.4039,-6.3528,-6.3623,-6.4561,-6.6003,-6.6137,-6.7321,-6.9181,-6.9181,-6.916,-6.8997,-6.8062,-6.7008,-6.5858,-6.4659,-6.3944,-6.3602,0.0,0.0,0.0,0.0,0.0,0.0,0.0,-6.0641,0.0,-6.4847,0.0,-6.9707,-6.982,-7.247,-7.4197,-7.4197,0.0,-7.2432,-7.0893,-7.0818,-7.0067,-6.8415,-6.8227,-6.7739,-6.6821,-6.4021,0.0,0.0,-5.2869,-4.9415,-4.5547,-4.4834,-4.4008,0.0,0.0,0.0,0.0,-5.7323,-6.1428,0.0,-6.3909,-6.4209,-6.4284,-6.4284,-6.4284,-6.4284,-6.4284,-6.4284,-6.4284,-6.4284,-6.4284,-6.4284,-6.4284,-6.4284,-6.4264,-6.4264,-6.4264,-6.4264,-6.4264,-6.4284,-6.4284,-6.4284,-6.4284,-6.3533,-6.0604,-5.9929,-5.9929,-5.9929,-5.7397,-5.6388,0.0,0.0,0.0,0.0,0.0,0.0,0.0,0.0,0.0,0.0,0.0,0.0,0.0,0.0,0.0,0.0,0.0,0.0,0.0,0.0,0.0,-5.4183,-5.7959,0.0,-6.1768,0.0,-6.3345,-6.4134,-6.4247,-6.4247,-6.4134,-6.3416,-6.4391,-6.6575,-6.5891,-6.6903,-6.901,-6.9144,-6.9181,-6.9085,-6.815,-6.7703,-6.7404,-6.5672,-6.4517,-6.3795,0.0,0.0,0.0,0.0,0.0,-6.1025,-6.267,-6.347,-6.5185,-6.894,-7.1081,-7.2545,-7.3258,-7.3859,-7.4197,-7.4197,-7.4085,0.0,0.0,0.0,0.0,-7.0142,-6.9391,-6.8302,-6.6821,-6.2294,-5.8877,0.0,-5.1405,-4.7425,-4.4707,-4.4557,-4.3694,0.0,0.0,0.0,-5.3774,-5.7808,0.0,-6.4021,-6.3533,-6.3721,-6.4284,-6.4284,-6.4284,-6.4284,-6.4284,-6.4284,-6.4284,-6.4284,-6.4284,-6.4284,-6.4284,-6.4224,-6.4142,-6.4142,-6.4142,-6.4142,-6.4142,-6.4224,-6.4284,-6.4284,-6.4284,-6.4134,-6.3533,-6.3421,-6.3421,-6.3421,-6.1803,-6.0001,-5.8764,0.0,0.0,0.0,0.0,0.0,0.0,0.0,0.0,0.0,0.0,0.0,0.0,0.0,0.0,0.0,0.0,0.0,0.0,0.0,0.0,0.0,-5.6081,0.0,0.0,0.0,-6.2444,-6.3308,-6.3984,-6.3946,-6.3345,-6.3814,-6.4636,-6.5682,-6.6308,-6.7112,-6.8113,-6.8897,-6.9138,-6.8975,-6.8128,-6.7703,-6.7427,-6.5761,-6.5067,-6.4821,0.0,0.0,0.0,0.0,0.0,0.0,0.0,-6.8163,0.0,-6.9729,-7.0893,-7.1794,-7.2245,-7.3446,-7.4197,-7.4197,-7.4197,-7.4009,-7.3596,-7.3146,-7.2545,-7.1794,-7.0555,0.0,-6.8077,-6.4397,-6.1093,-5.8126,-5.3207,-4.9302,-4.6373,-4.5082,-4.3844,-4.2769,0.0,-4.9152,0.0,0.0,0.0,-6.3721,-6.4172,-6.4585,-6.496,-6.5431,-6.5619,-6.5619,-6.5619,-6.5298,-6.4847,-6.4434,-6.4284,-6.4284,-6.4224,-6.4162,-6.41,-6.4,-6.4042,-6.4121,-6.4121,-6.4203,-6.4284,-6.4284,-6.4284,-6.4284,-6.4284,-6.4284,-6.4284,-6.4284,-6.3188,-6.1175,-5.7732,-5.411,0.0,0.0,0.0,0.0,0.0,0.0,0.0,0.0,0.0,0.0,0.0,0.0,0.0,0.0,0.0,0.0,0.0,0.0,0.0,0.0,0.0,0.0,0.0,0.0,0.0,-6.2444,-6.327,-6.3458,-6.312,-6.3496,-6.4319,-6.5453,-6.6383,-6.7187,-6.7866,-6.88,-6.916,-6.9019,-6.815,-6.7747,-6.7516,-6.5805,-6.5185,-6.5073,0.0,-6.0691,0.0,0.0,-6.5919,0.0,-6.9895,-7.1884,-7.247,-7.0495,-7.0855,-7.1268,-7.1268,-7.3033,-7.4197,-7.4197,-7.4197,-7.4197,-7.4197,-7.3536,-7.3048,-7.2921,-7.1659,-7.042,-6.9219,-6.695,-6.3646,0.0,-5.5348,-5.1458,-4.7612,-4.566,-4.4608,0.0,0.0,0.0,0.0,0.0,-6.113,-6.3721,-6.481,-6.5336,-6.5561,-6.6237,-6.65,-6.65,-6.6333,-6.6049,-6.5636,-6.479,-6.4414,-6.4244,-6.4142,-6.4079,-6.4037,-6.3894,-6.3937,-6.4058,-6.4042,-6.4162,-6.4264,-6.4284,-6.4284,-6.4284,-6.4264,-6.4264,-6.4244,-6.4224,-6.3235,-6.1127,-5.6905,-5.4503,0.0,0.0,0.0,0.0,0.0,0.0,0.0,0.0,0.0,0.0,0.0,0.0,0.0,0.0,0.0,0.0,-4.0862,-4.3409,0.0,0.0,0.0,-5.6624,-5.9778,0.0,-6.1693,0.0,-6.2595,-6.2895,-6.2595,-6.2932,-6.3736,-6.4886,-6.6024,-6.6978,-6.7866,-6.88,-6.9181,-6.9106,-6.8172,-6.7791,-6.7626,-6.587,-6.525,-6.516,0.0,0.0,0.0,0.0,0.0,0.0,0.0,-7.2012,-7.4009,-7.3784,-7.3822,-7.3859,-7.3859,-7.4085,-7.4197,-7.4197,-7.4197,-7.4197,-7.4197,-7.4005,-7.3593,-7.2921,-7.2655,-7.147,-6.9257,-6.7551,-6.4247,0.0,0.0,0.0,0.0,-4.5697,-4.6373,0.0,0.0,0.0,0.0,-5.9666,-6.2332,-6.5223,-6.466,-6.4847,-6.5523,-6.5598,-6.5636,-6.5523,-6.481,-6.5469,-6.6537,-6.5549,-6.472,-6.4142,-6.4083,-6.3974,-6.3823,-6.3802,-6.3802,-6.3845,-6.3894,-6.4,-6.4162,-6.4264,-6.4284,-6.4264,-6.4162,-6.4142,-6.4063,-6.3958,-6.262,-6.0187,-5.6086,-5.6905,-5.7058,0.0,0.0,0.0,0.0,0.0,0.0,0.0,0.0,0.0,0.0,0.0,0.0,0.0,0.0,0.0,-4.1649,-4.2061,-4.4538,-4.9565,0.0,-5.4634,-5.7225,-6.0266,0.0,-6.0717,-6.2332,-6.2294,-6.0905,-6.2407,-6.3038,-6.304,-6.4774,-6.639,-6.7866,-6.88,-6.9181,-6.9106,-6.8172,-6.7857,-6.7793,-6.6036,-6.542,-6.5332,0.0,0.0,0.0,0.0,0.0,0.0,0.0,-7.3311,-7.4197,-7.4197,-7.4197,-7.4197,-7.4197,-7.4197,-7.4197,-7.4197,-7.4197,-7.4151,-7.408,-7.4033,-7.3859,-7.3474,-7.2974,-7.2024,-7.0631,-6.9047,-6.6233,0.0,0.0,0.0,0.0,0.0,0.0,0.0,0.0,-5.7,-5.8952,-6.1168,-6.3721,-6.6274,-6.6462,-6.6725,-6.7063,-6.7551,-6.7718,-6.7605,-6.6716,-6.6507,-6.6545,-6.5555,-6.5405,-6.556,-6.541,-6.53,-6.5136,-6.4584,-6.4458,-6.4413,-6.3935,-6.3931,-6.3867,-6.3443,-6.3705,-6.393,-6.3381,-6.3642,-6.3958,-6.3915,-6.2524,-6.048,-5.7793,-5.6977,-5.6627,0.0,0.0,0.0,0.0,0.0,0.0,0.0,0.0,0.0,0.0,0.0,0.0,0.0,0.0,0.0,-4.0908,-4.1108,-4.3418,-4.849,0.0,-5.4057,-5.6081,-5.9891,-6.113,-5.9853,-6.1506,-6.1731,-6.0642,-6.128,-6.2328,-6.3647,-6.5373,-6.6743,-6.7866,-6.88,-6.9181,-6.9069,-6.7648,-6.7101,-6.6957,-6.5266,-6.4629,-6.4653,-6.8493,0.0,-6.9581,0.0,-7.1692,-7.2079,-7.3865,-7.4127,-7.4151,-7.4174,-7.4197,-7.4197,-7.4197,-7.4151,-7.4127,-7.4127,-7.4104,-7.4033,-7.3961,-7.3912,-7.3864,-7.3815,-7.329,0.0,-7.1874,-7.0376,-6.8125,-6.5207,-6.1933,0.0,0.0,0.0,0.0,0.0,-5.7563,-5.9853,-6.1243,-6.3308,-6.5336,-6.7176,-6.7776,-6.8002,-6.8077,-6.864,-6.8865,-6.8693,-6.7535,-6.7042,-6.6759,-6.5559,-6.5895,-6.6761,-6.606,-6.5843,-6.5723,-6.5297,-6.5059,-6.4815,-6.4301,-6.4032,-6.3664,-6.2886,-6.3318,-6.367,-6.2865,-6.3291,-6.3739,-6.3211,-6.214,-6.0736,-5.8995,-5.7364,-5.6643,-5.7948,0.0,0.0,0.0,0.0,0.0,0.0,0.0,-4.4882,0.0,0.0,0.0,0.0,0.0,0.0,-4.1474,-4.1437,0.0,0.0,0.0,0.0,0.0,-5.9703,-6.0942,-5.9328,-6.098,-6.1243,-6.0229,-6.0679,-6.1933,-6.3859,-6.5769,-6.693,-6.7529,-6.8725,-6.9181,-6.9031,-6.7273,-6.6614,-6.6507,-6.5041,-6.4479,-6.4558,-7.0524,-7.0946,-7.1566,-7.328,-7.3678,-7.3826,-7.3985,-7.4009,-7.4056,-7.4174,-7.4197,-7.4197,-7.4197,-7.408,-7.4009,-7.4009,-7.3888,-7.3815,-7.3815,-7.369,-7.3665,0.0,0.0,-7.3452,-7.2712,-7.1239,-6.961,-6.7754,0.0,0.0,-5.8945,0.0,-5.8334,-5.9365,-6.2707,-6.466,-6.5486,-6.6387,-6.7213,-6.8002,-6.8002,-6.8002,-6.8002,-6.8002,-6.8002,-6.7793,-6.6057,-6.6443,-6.7485,-6.562,-6.6127,-6.7207,-6.5531,-6.4919,-6.4976,-6.5831,-6.5496,-6.4851,-6.4927,-6.4413,-6.3615,-6.2865,-6.3318,-6.367,-6.2817,-6.3221,-6.3311,-6.158,-6.1224,-6.0704,-5.9032,-5.8698,-5.8161,-5.6643,0.0,0.0,0.0,0.0,0.0,0.0,-4.6717,-4.4565,-4.5228,0.0,0.0,0.0,0.0,0.0,0.0,0.0,0.0,-4.9139,-5.1686,0.0,-5.5593,-5.9703,-6.0942,-5.9328,-6.098,-6.0942,-5.9365,-6.0902,-6.2061,-6.3035,-6.5507,-6.6593,-6.6764,-6.8463,-6.9181,-6.9031,-6.7273,-6.6678,-6.6687,-6.572,-6.5441,-6.5598,-7.1701,-7.2348,-7.2982,-7.3503,-7.3715,-7.3864,-7.3985,-7.4009,-7.4056,-7.4174,-7.4127,-7.408,-7.408,-7.4033,-7.3985,0.0,-7.3839,-7.3765,0.0,-7.364,-7.3589,-7.3501,-7.3603,-7.328,-7.2509,-7.2164,-7.0863,-6.8556,0.0,0.0,0.0,-6.2749,-6.281,-6.2663,-6.4977,-6.6083,-6.632,-6.7144,-6.7904,-6.8623,-6.8623,-6.8623,-6.8623,-6.8675,-6.8653,-6.8474,-6.7307,-6.6829,-6.6515,-6.5277,-6.5208,-6.5654,-6.5729,-6.6486,-6.7256,-6.702,-6.6722,-6.6263,-6.5337,-6.4859,-6.4401,-6.3205,-6.2994,-6.3019,-6.2736,-6.3184,-6.3201,-6.1521,-6.1187,-6.0704,-5.9032,-5.8698,-5.8549,-5.805,-5.7938,0.0,0.0,0.0,0.0,0.0,0.0,-4.671,0.0,-4.4463,0.0,0.0,0.0,0.0,0.0,0.0,0.0,0.0,-5.2986,0.0,-5.5593,-5.9178,-6.0417,-5.929,-6.0454,-6.0717,-6.0229,-6.1242,-6.2178,-6.3055,-6.5628,-6.6678,-6.6727,-6.8463,-6.9181,-6.9069,-6.7996,-6.7605,-6.7513,-6.6666,-6.6366,-6.6425,-7.2782,-7.3192,-7.3564,-7.3665,-7.3802,-7.3934,-7.4052,-7.4237,-7.4327,-7.426,-7.4191,-7.4099,-7.4033,-7.4009,0.0,-7.3888,-7.3839,-7.3765,-7.369,-7.369,-7.3578,-7.3398,-7.3501,-7.3354,-7.287,0.0,0.0,-7.0232,-6.8763,-6.727,-6.5695,-6.6007,-6.5908,-6.5544,-6.7016,-6.7594,-6.7529,-6.8054,-6.8489,-6.8921,-6.8921,-6.8921,-6.8884,-6.8952,-6.8929,-6.8786,-6.7881,-6.7201,-6.6551,-6.5594,-6.5543,-6.5895,-6.6156,-6.7133,-6.8171,-6.7594,-6.7198,-6.6723,-6.5549,-6.5015,-6.4495,-6.3288,-6.2928,-6.2786,-6.2704,-6.3184,-6.3156,-6.1521,-6.1187,-6.0704,-5.9032,-5.8698,-5.8698,-5.8698,-5.8029,-5.6915,-5.5243,0.0,0.0,0.0,0.0,0.0,0.0,-4.7256,0.0,0.0,0.0,0.0,0.0,0.0,0.0,-5.026,-5.439,0.0,-5.747,-5.9553,-6.0342,-5.9778,-6.0004,-6.0266,-6.0642,-6.1392,-6.2158,-6.3055,-6.5591,-6.6678,-6.6727,-6.8463,-6.9181,-6.9106,-6.8302,-6.8002,-6.7926,-6.7438,-6.7251,-6.7288,-7.3765,-7.3603,0.0,0.0,-7.3968,0.0,-7.4237,-7.4644,-7.4805,-7.4519,-7.4433,-7.4319,-7.409,-7.4019,-7.3995,-7.4019,0.0,0.0,0.0,-7.3815,-7.369,-7.3424,-7.3501,-7.3615,-7.3615,-7.2919,-7.2533,-7.241,-6.9917,-6.874,-6.8823,-6.8101,-6.7807,-6.7994,-6.8743,-6.9042,-6.8983,-6.8983,-6.8975,-6.8884,-6.8884,-6.8884,-6.8884,-6.8884,-6.8898,-6.8763,-6.7864,-6.7542,-6.737,-6.6472,-6.6835,-6.7464,-6.6739,-6.7192,-6.7921,-6.7606,-6.7001,-6.6297,-6.5649,-6.4943,-6.4136,-6.3329,-6.3065,-6.2948,-6.2762,-6.3125,-6.3082,-6.1596,-6.1261,-6.0704,-5.9069,-5.8735,-5.8698,-5.8624,-5.7881,-5.6729,-5.5094,0.0,0.0,0.0,0.0,0.0,0.0,-5.0413,-5.1639,0.0,0.0,0.0,0.0,0.0,-5.0121,-5.4072,-5.5865,-5.8016,-6.0567,-6.0529,-6.0529,-6.0492,-5.9741,-5.9853,-6.0717,-6.1389,-6.2173,-6.311,-6.5565,-6.6614,-6.6727,-6.8463,-6.9181,-6.9106,-6.8356,-6.8055,-6.8055,-6.8055,-6.8055,-6.8168,0.0,0.0,-7.3958,-7.4005,-7.4281,-7.4509,-7.473,-7.4998,-7.5191,-7.5221,-7.4923,-7.4687,-7.4644,-7.4274,-7.4145,-7.4365,-7.4183,-7.4029,-7.4029,-7.3875,-7.379,-7.3715,-7.3527,-7.3424,-7.3424,-7.3566,-7.3324,-7.2627,-7.1168,-7.0462,-7.0388,-7.0288,-6.9951,-6.9402,-6.972,-6.9458,-6.8768,-6.8768,-6.8777,-6.8809,-6.8809,-6.8809,-6.8832,-6.896,-6.88,-6.8602,-6.8487,-6.7956,-6.7351,-6.7267,-6.7396,-6.7599,-6.761,-6.8206,-6.8618,-6.717,-6.6705,-6.6474,-6.5772,-6.5497,-6.5275,-6.4595,-6.371,-6.2968,-6.2745,-6.2699,-6.2599,-6.219,-6.1633,-6.089,-5.9791,-5.9107,-5.8512,-5.7881,-5.6543,-5.502,-5.3385,-5.2828,0.0,0.0,-5.2048,-5.2717,-5.2122,-5.2382,-5.2345,0.0,0.0,0.0,0.0,-5.3478,-5.4016,-5.5132,-5.7398,-5.9234,-6.0604,-5.9929,-5.9591,-5.9628,-6.0079,-6.0717,-6.1543,-6.2387,-6.3153,-6.3934,-6.5912,-6.6678,-6.6727,-6.8463,-6.9181,-6.9181,-6.8869,-6.875,-6.875,-6.8698,-6.869,-6.8713,-7.3923,-7.4029,-7.4177,-7.4471,-7.4748,-7.5017,-7.5226,-7.5557,-7.576,-7.561,-7.5359,-7.5124,-7.4924,-7.4664,-7.4573,-7.467,-7.4454,-7.4282,-7.4282,-7.4183,-7.4066,-7.3947,-7.3703,-7.3552,-7.3552,-7.3815,-7.3723,-7.3354,-7.227,-7.1727,-7.1616,-7.1194,-7.0785,-7.0448,-7.0497,-7.0273,-6.9778,-6.9523,-6.9444,-6.9392,-6.9095,-6.899,-6.9027,-6.9394,-6.9122,-6.8674,-6.9035,-6.8626,-6.7989,-6.8091,-6.8294,-6.8452,-6.8203,-6.8494,-6.8669,-6.7228,-6.6808,-6.6565,-6.5462,-6.5257,-6.5143,-6.4474,-6.3917,-6.3326,-6.2493,-6.2614,-6.2747,-6.2004,-6.1819,-6.1373,-6.0147,-5.9552,-5.8735,-5.7212,-5.5874,-5.4314,-5.2345,-5.2382,0.0,-5.1491,-5.3497,-5.4648,-5.3868,-5.476,-5.4909,-5.3794,0.0,0.0,-5.5621,-5.6479,-5.6855,-5.6648,-5.824,-5.9776,-6.113,-6.0641,-5.9984,-5.9159,-6.002,-6.0845,-6.1706,-6.247,-6.3455,-6.4609,-6.5945,-6.6709,-6.7113,-6.8496,-6.9065,-6.9065,-6.8998,-6.8937,-6.8952,-6.8907,-6.8921,-6.8921,-7.4245,-7.4296,-7.4497,-7.4999,-7.5289,-7.5539,-7.5764,-7.6146,-7.6308,-7.5941,-7.5821,-7.5633,-7.5254,-7.5147,-7.5056,-7.4977,-7.4737,-7.4611,-7.4563,-7.4519,-7.4372,-7.4168,-7.3923,-7.3815,-7.3826,-7.3864,-7.3947,-7.4168,-7.3198,-7.2718,-7.267,-7.1789,-7.1343,-7.1243,-7.1156,-7.1044,-7.092,-7.0336,-7.0031,-6.9956,-6.9444,-6.9268,-6.9321,-6.9836,-6.9536,-6.8929,-6.9442,-6.9327,-6.8877,-6.8923,-6.915,-6.9408,-6.8749,-6.8659,-6.8622,-6.7676,-6.7257,-6.6819,-6.5294,-6.4783,-6.4554,-6.3944,-6.3936,-6.3743,-6.2503,-6.2762,-6.294,-6.1825,-6.1862,-6.1676,-6.0375,-5.9929,-5.8962,-5.6566,-5.5597,-5.4277,-5.1565,0.0,-5.2828,-5.1862,-5.4648,-5.6097,-5.4686,-5.6952,-5.7695,-5.5726,-5.7398,-5.8293,-5.7799,-5.8601,-5.8813,-5.8147,-5.8707,-5.9755,-6.1354,-6.1464,-6.0691,-5.9191,-5.9993,-6.0852,-6.1711,-6.254,-6.3668,-6.5046,-6.6,-6.6857,-6.758,-6.8516,-6.8921,-6.8898,-6.8898,-6.8875,-6.8875,-6.8852,-6.8852,-6.8852,-7.5075,-7.5289,-7.5474,-7.5593,-7.5908,-7.6159,-7.6216,-7.6457,-7.6642,-7.6621,-7.6383,-7.6159,-7.6096,-7.5827,-7.5539,-7.5257,-7.5203,-7.5076,-7.4854,-7.4627,-7.4498,-7.4454,-7.4019,-7.3875,-7.4052,-7.4052,-7.4168,-7.4454,-7.4018,-7.3747,-7.359,-7.361,-7.3041,-7.2011,-7.149,-7.0915,-7.0205,-6.9392,-6.9266,-6.9587,-6.9478,-6.946,-6.946,-6.957,-6.9407,-6.916,-6.9228,-6.9228,-6.9144,-6.9336,-6.944,-6.9542,-6.9606,-6.9683,-6.9493,-6.8565,-6.828,-6.7864,-6.6106,-6.5181,-6.4705,-6.4719,-6.4046,-6.3578,-6.4068,-6.2968,-6.2118,-6.3238,-6.1931,-6.0679,-6.1185,-6.0102,-5.8348,-5.5865,-5.5806,-5.476,-5.0859,0.0,-5.5169,-5.3608,-5.632,-5.8252,-5.7955,-5.7806,-5.7806,-5.8103,-5.7843,-5.7996,-5.8656,-5.9475,-5.9594,-5.8874,-5.8967,-5.9116,-5.9417,-6.0145,-6.0349,-6.003,-6.089,-6.1749,-6.2571,-6.4081,-6.4837,-6.5084,-6.6687,-6.7448,-6.758,-6.8516,-6.8921,-6.8898,-6.8805,-6.8721,-6.8697,-6.8602,-6.8554,-6.8578,-7.5292,-7.5413,-7.5632,-7.589,-7.6057,-7.6413,-7.7063,-7.6914,-7.6872,-7.7338,-7.6876,-7.6465,-7.6332,-7.6172,-7.595,-7.5587,-7.5391,-7.5239,-7.5132,-7.4859,-7.4729,-7.4729,-7.4365,-7.4229,-7.4305,-7.4305,-7.4454,-7.4729,-7.4454,-7.4297,-7.4183,-7.4122,-7.3794,-7.3228,-7.2913,-7.2384,-7.156,-7.0833,-7.0406,-7.0163,-6.9848,-6.9719,-6.9737,-7.007,-6.9855,-6.9411,-6.9735,-6.9627,-6.9378,-6.9481,-6.9582,-6.9738,-6.9872,-6.9891,-6.9816,-6.938,-6.8205,-6.6862,-6.6011,-6.5238,-6.4725,-6.4761,-6.4406,-6.3955,-6.3917,-6.3406,-6.2905,-6.2793,-6.2193,-6.1537,-6.105,-6.026,-5.8984,-5.6949,-5.6441,0.0,0.0,-5.4797,-5.6023,-5.5243,-5.7249,-5.8698,-5.8698,-5.8364,-5.8326,-5.8661,-5.8772,-5.8793,-5.8797,-5.9541,-5.9822,-5.9512,-5.9597,-5.943,-5.8842,-5.9743,-6.0153,-6.0034,-6.0927,-6.1747,-6.2603,-6.4242,-6.5225,-6.5663,-6.69,-6.7682,-6.8081,-6.8501,-6.8674,-6.8674,-6.8602,-6.8578,-6.8578,-6.8506,-6.8481,-6.8506,-7.5561,-7.5616,-7.5833,-7.6404,-7.6506,-7.69,-7.8015,-7.7642,-7.7486,-7.8108,-7.7632,-7.7176,-7.6969,-7.6947,-7.6802,-7.6524,-7.6056,-7.5769,-7.5598,-7.5209,-7.4957,-7.4895,-7.4691,-7.4563,-7.4519,-7.4563,-7.467,-7.4895,-7.467,-7.4563,-7.4498,-7.435,-7.4214,-7.4061,-7.398,-7.3552,-7.2936,-7.2284,-7.156,-7.0828,-7.0364,-7.0081,-6.9948,-7.0398,-7.0186,-6.9637,-7.0093,-7.0005,-6.9582,-6.9582,-6.9738,-6.9891,-6.9891,-6.9891,-6.9891,-6.9891,-6.8262,-6.6333,-6.5898,-6.537,-6.4915,-6.4745,-6.4652,-6.4445,-6.3802,-6.4049,-6.401,-6.2729,-6.2692,-6.2448,-6.1131,-6.0435,-5.9532,-5.7904,0.0,0.0,0.0,-5.6028,-5.6826,-5.6617,-5.7992,-5.9069,-5.9255,-5.9292,-5.9218,-5.8995,-5.9738,-5.9775,-5.8772,-5.9664,-6.011,-5.9924,-6.0091,-5.9719,-5.8735,-5.9599,-6.0083,-6.02,-6.1076,-6.1915,-6.2798,-6.4227,-6.5277,-6.5992,-6.6812,-6.7472,-6.802,-6.802,-6.8142,-6.8376,-6.8376,-6.845,-6.8636,-6.8636,-6.8602,-6.8506,-7.6287,-7.6347,-7.6664,-7.7539,-7.7711,-7.8064,-7.8889,-7.8977,-7.8938,-7.9016,-7.8977,-7.8938,-7.8917,-7.8878,-7.8789,-7.8488,-7.7768,-7.7059,-7.6461,-7.5697,-7.515,-7.4915,-7.4874,-7.4771,-7.4519,-7.475,-7.4874,-7.4895,-7.4874,-7.475,-7.4519,-7.4712,-7.4584,-7.4085,-7.3559,-7.3328,-7.3194,-7.2348,-7.1663,-7.1085,-7.1029,-7.0574,-6.9891,-6.9948,-6.991,-6.9872,-6.9929,-6.9891,-6.9872,-6.9872,-6.9891,-6.9891,-6.9891,-6.9891,-6.9891,-6.9891,-6.9133,-6.794,-6.6257,-6.5785,-6.554,-6.4878,-6.4707,-6.4725,-6.4777,-6.4865,-6.4827,-6.4445,-6.3396,-6.2399,-6.2048,-6.0712,-5.9128,-5.7524,0.0,0.0,-5.4632,-5.6836,-5.8458,-5.7529,-5.8846,-6.0147,-6.0964,-6.1038,-6.0704,-5.9865,-6.063,-6.0407,-5.8809,-6.0221,-6.0741,-5.9903,-5.9924,-5.9515,-5.8735,-5.9515,-6.0333,-6.1113,-6.193,-6.282,-6.3819,-6.4678,-6.5234,-6.5574,-6.6399,-6.6646,-6.6545,-6.6545,-6.7089,-6.7921,-6.7921,-6.8409,-6.9047,-6.9047,-6.8832,-6.8554,-7.6409,-7.6421,-7.6703,-7.7593,-7.7921,-7.8458,-7.9602,-7.9388,-7.9266,-7.9775,-7.941,-7.9083,-7.9083,-7.9083,-7.905,-7.8959,-7.8528,-7.8164,-7.7893,-7.7396,-7.6458,-7.4953,-7.4895,-7.4854,-7.4771,-7.4854,-7.4895,-7.4895,-7.4895,-7.4854,-7.4771,-7.4854,-7.4792,-7.4568,-7.456,-7.4258,-7.3782,-7.3636,-7.3177,-7.2461,-7.2227,-7.1987,-7.1609,-7.0915,-7.0649,-7.0574,-7.0081,-6.9891,-6.9929,-7.0109,-7.0487,-7.0776,-7.0243,-7.0472,-7.074,-7.01,-6.9645,-6.9096,-6.7994,-6.6767,-6.5747,-6.5445,-6.5535,-6.5711,-6.5745,-6.5846,-6.5765,-6.5171,-6.4061,-6.2838,-6.1695,-6.0894,-6.0182,-5.954,0.0,-5.9009,-5.8184,-5.8633,-5.8853,-5.8475,-5.8855,-5.9292,-5.9627,-6.011,-6.0078,-5.9367,-6.0976,-6.1374,-6.002,-6.1149,-6.1317,-6.0255,-6.024,-5.999,-5.9441,-5.9754,-6.0729,-6.2368,-6.2705,-6.3747,-6.5434,-6.6251,-6.6969,-6.7552,-6.7858,-6.8204,-6.8527,-6.7978,-6.8261,-6.9015,-6.9015,-6.9204,-6.9468,-6.9468,-6.9405,-6.9261,-7.6769,-7.6823,-7.7171,-7.8293,-7.8689,-7.9242,-8.042,-8.0171,-8.0063,-8.0609,-8.0206,-7.9842,-7.9842,-7.9842,-7.9842,-7.9842,-7.9441,-7.9159,-7.9078,-7.8531,-7.7534,-7.6027,-7.5588,-7.5396,-7.5396,-7.5049,-7.4895,-7.4895,-7.4895,-7.4895,-7.4895,-7.4895,-7.4895,-7.4915,-7.5169,-7.5004,-7.4503,-7.4843,-7.449,-7.3682,-7.3446,-7.3198,-7.2876,-7.2092,-7.1725,-7.1578,-7.1008,-7.0818,-7.0816,-7.0718,-7.1292,-7.1844,-7.0719,-7.0932,-7.1532,-7.1037,-7.0908,-7.0791,-7.0264,-6.8739,-6.7065,-6.6289,-6.6269,-6.6373,-6.6138,-6.6338,-6.633,-6.5451,-6.4921,-6.4193,-6.2705,-6.195,-6.1592,-6.1538,-6.0524,-5.9862,-6.0295,-5.9755,-5.9346,-5.9438,-5.9316,-5.9329,-5.9734,-6.0421,-6.0671,-6.0153,-6.1971,-6.2646,-6.1562,-6.1951,-6.1689,-6.0604,-6.0867,-6.0886,-6.0634,-6.0513,-6.1329,-6.3087,-6.3479,-6.4643,-6.6474,-6.7034,-6.7676,-6.8219,-6.8227,-6.8326,-6.845,-6.81,-6.843,-6.9198,-6.9429,-6.9659,-6.9887,-6.9959,-6.9697,-6.9416,-7.7543,-7.7713,-7.8216,-7.9918,-8.0188,-8.0498,-8.1387,-8.1504,-8.1504,-8.1491,-8.1491,-8.1491,-8.1491,-8.1491,-8.1491,-8.1491,-8.0779,-8.0215,-7.9933,-7.8846,-7.8256,-7.8256,-7.7141,-7.652,-7.652,-7.5454,-7.4895,-7.4895,-7.4895,-7.4895,-7.4895,-7.4895,-7.4895,-7.4915,-7.5187,-7.531,-7.5344,-7.5649,-7.5375,-7.4606,-7.4606,-7.412,-7.3325,-7.3325,-7.3123,-7.2805,-7.2805,-7.2805,-7.269,-7.1909,-7.2317,-7.2928,-7.1262,-7.1281,-7.2065,-7.287,-7.31,-7.31,-7.31,-7.1827,-6.9927,-6.7385,-6.6734,-6.6519,-6.58,-6.6235,-6.6509,-6.5451,-6.6115,-6.6576,-6.5498,-6.412,-6.3118,-6.3118,-6.1707,-6.0494,-6.0074,-6.0,-6.0118,-6.0454,-6.0319,-6.0697,-6.1943,-6.2615,-6.2856,-6.2498,-6.3866,-6.4287,-6.335,-6.2557,-6.1762,-6.0942,-6.1754,-6.2222,-6.2197,-6.1882,-6.2203,-6.3143,-6.4348,-6.5559,-6.6724,-6.6724,-6.683,-6.7039,-6.7,-6.6409,-6.5493,-6.6215,-6.7087,-6.81,-6.8794,-6.9572,-7.0298,-7.0432,-6.9687,-6.8773,-7.7639,-7.7736,-7.8216,-7.9918,-8.0225,-8.0546,-8.1387,-8.1577,-8.16,-8.1516,-8.1541,-8.1553,-8.1504,-8.1491,-8.1491,-8.1491,-8.1284,-8.1104,-8.1027,-8.0704,-8.0509,-8.0509,-7.8714,-7.7308,-7.652,-7.6198,-7.5665,-7.4895,-7.4895,-7.4895,-7.4895,-7.4895,-7.4895,-7.4915,-7.5451,-7.5634,-7.568,-7.6207,-7.6309,-7.6066,-7.5859,-7.5632,-7.531,-7.4535,-7.4163,-7.3959,-7.336,-7.3138,-7.3085,-7.311,-7.3678,-7.4204,-7.3073,-7.2727,-7.2617,-7.2356,-7.264,-7.3146,-7.3346,-7.299,-7.2087,-6.9896,-6.8589,-6.7755,-6.7537,-6.7269,-6.7128,-6.737,-6.711,-6.6758,-6.6471,-6.6068,-6.5575,-6.5013,-6.3489,-6.2311,-6.2247,-6.1121,-6.0297,-6.0423,-6.0258,-6.0288,-6.0654,-6.1346,-6.1529,-6.0995,-6.2533,-6.3816,-6.4468,-6.4476,-6.4007,-6.3025,-6.3302,-6.3394,-6.3231,-6.3133,-6.3676,-6.4882,-6.5934,-6.7147,-6.8365,-6.8365,-6.8733,-6.9265,-6.8064,-6.7648,-6.7817,-6.7426,-6.7768,-6.8494,-6.8728,-6.8986,-6.9179,-6.9215,-6.8986,-6.8732,-7.7661,-7.8026,-7.8673,-7.9993,-8.0582,-8.1004,-8.1511,-8.1646,-8.1658,-8.1553,-8.1577,-8.1577,-8.1504,-8.1491,-8.1491,-8.1491,-8.1491,-8.1491,-8.1491,-8.1491,-8.1491,-8.1491,-8.0222,-7.8954,-7.785,-7.6935,-7.6198,-7.555,-7.5107,-7.4895,-7.4895,-7.4895,-7.4895,-7.4935,-7.5513,-7.5822,-7.5851,-7.6426,-7.6687,-7.6669,-7.6516,-7.6465,-7.6366,-7.569,-7.5375,-7.5195,-7.4668,-7.4449,-7.441,-7.4328,-7.4375,-7.4556,-7.4738,-7.4347,-7.3745,-7.3328,-7.379,-7.4368,-7.4192,-7.414,-7.3832,-7.2632,-7.0876,-6.9307,-6.8651,-6.7805,-6.7241,-6.7383,-6.7411,-6.7447,-6.7486,-6.7577,-6.7523,-6.7055,-6.5534,-6.4376,-6.4343,-6.281,-6.1639,-6.1504,-6.0737,-6.0405,-6.0878,-6.1542,-6.2103,-6.2516,-6.3566,-6.452,-6.5238,-6.547,-6.5172,-6.4231,-6.4594,-6.4764,-6.4701,-6.5076,-6.5398,-6.5702,-6.6775,-6.7755,-6.8606,-6.8956,-6.9383,-6.9733,-6.8373,-6.8031,-6.8407,-6.7859,-6.7842,-6.8287,-6.8594,-6.8689,-6.87,-6.8741,-6.8568,-6.8287,-7.7644,-7.8441,-7.9227,-8.0063,-8.0883,-8.1508,-8.1575,-8.1586,-8.1602,-8.1612,-8.1612,-8.1589,-8.1504,-8.1491,-8.1491,-8.1491,-8.1491,-8.1491,-8.1491,-8.1504,-8.1504,-8.1491,-8.1504,-8.104,-8.0063,-7.7905,-7.669,-7.652,-7.5512,-7.4991,-7.4895,-7.4895,-7.4953,-7.5089,-7.5644,-7.5976,-7.6111,-7.6658,-7.6902,-7.6902,-7.6902,-7.6863,-7.6794,-7.6794,-7.6604,-7.6355,-7.6355,-7.6355,-7.6189,-7.5415,-7.4745,-7.4489,-7.6041,-7.5918,-7.521,-7.5188,-7.5747,-7.6243,-7.543,-7.5237,-7.5237,-7.5237,-7.3419,-7.1175,-6.9435,-6.8193,-6.7188,-6.634,-6.7381,-6.8461,-6.8461,-6.8674,-6.8946,-6.9004,-6.7691,-6.6558,-6.6409,-6.4919,-6.3767,-6.3515,-6.2,-6.1343,-6.2364,-6.2866,-6.3916,-6.577,-6.5886,-6.5854,-6.573,-6.5821,-6.5576,-6.484,-6.5735,-6.6301,-6.6438,-6.73,-6.7174,-6.6085,-6.7193,-6.7795,-6.7946,-6.8645,-6.8995,-6.8956,-6.8062,-6.7674,-6.7666,-6.7545,-6.7501,-6.7569,-6.8258,-6.8488,-6.8499,-6.8636,-6.8169,-6.7617,-7.771,-7.8028,-7.8424,-7.9227,-7.958,-7.996,-8.0577,-8.0756,-8.1028,-8.1546,-8.1646,-8.1635,-8.1516,-8.1491,-8.1491,-8.1491,-8.1491,-8.1491,-8.1491,-8.1553,-8.1553,-8.1504,-8.1553,-8.1424,-8.1169,-7.9827,-7.8295,-7.652,-7.6255,-7.5722,-7.4895,-7.4895,-7.5339,-7.6179,-7.6558,-7.7222,-7.8075,-7.8425,-7.8571,-7.8571,-7.8571,-7.8214,-7.7632,-7.7632,-7.7205,-7.6623,-7.6623,-7.6594,-7.6565,-7.641,-7.6235,-7.6061,-7.5741,-7.5904,-7.6079,-7.5404,-7.5747,-7.6359,-7.6165,-7.6127,-7.6127,-7.6127,-7.5198,-7.3651,-7.1291,-7.0071,-6.9148,-6.8337,-6.8453,-6.8723,-6.8723,-6.9269,-6.9797,-6.9895,-6.9061,-6.8381,-6.8433,-6.6966,-6.5863,-6.5782,-6.5416,-6.5019,-6.4602,-6.397,-6.3969,-6.4971,-6.5048,-6.5249,-6.5769,-6.6436,-6.6743,-6.6651,-6.7523,-6.8066,-6.8229,-6.8443,-6.8414,-6.822,-6.8601,-6.8777,-6.8801,-6.8296,-6.8062,-6.8024,-6.7169,-6.678,-6.678,-6.6757,-6.6749,-6.6749,-6.6927,-6.6997,-6.6997,-6.7013,-6.6904,-6.6788,-7.7244,-7.7661,-7.8069,-7.8476,-7.9253,-8.002,-8.0417,-8.0922,-8.1301,-8.163,-8.168,-8.1646,-8.1516,-8.1491,-8.1491,-8.1491,-8.1491,-8.1516,-8.1553,-8.1589,-8.16,-8.16,-8.16,-8.1589,-8.1553,-8.095,-7.9552,-7.7291,-7.6784,-7.5932,-7.4895,-7.5434,-7.597,-7.6539,-7.7415,-7.8146,-7.8733,-7.8983,-7.9083,-7.9083,-7.9083,-7.8832,-7.8476,-7.8476,-7.8214,-7.7855,-7.7855,-7.7836,-7.7777,-7.738,-7.7254,-7.7128,-7.6283,-7.6264,-7.6376,-7.5555,-7.5873,-7.64,-7.5952,-7.6134,-7.6444,-7.6444,-7.6072,-7.516,-7.3032,-7.1523,-7.0363,-6.9551,-6.9087,-6.8816,-6.8816,-6.9125,-6.9466,-6.9547,-6.9217,-6.909,-6.9606,-6.8186,-6.7223,-6.7705,-6.7014,-6.6446,-6.6342,-6.6205,-6.6301,-6.6681,-6.6709,-6.683,-6.7174,-6.7648,-6.7915,-6.795,-6.8431,-6.8953,-6.9517,-6.9506,-6.9718,-7.0171,-6.9437,-6.8878,-6.8451,-6.8024,-6.779,-6.7752,-6.6897,-6.6742,-6.7091,-6.6664,-6.6508,-6.6508,-6.6508,-6.6508,-6.6508,-6.6508,-6.6508,-6.6547,-7.671,-7.7281,-7.7757,-7.7719,-7.9068,-8.0222,-8.0377,-8.1116,-8.166,-8.1713,-8.1691,-8.1646,-8.1516,-8.1504,-8.1516,-8.1528,-8.1528,-8.1565,-8.1612,-8.1635,-8.1658,-8.1691,-8.1646,-8.1612,-8.16,-8.1541,-8.0509,-7.8497,-7.7552,-7.652,-7.5492,-7.6369,-7.6878,-7.7141,-7.8353,-7.9028,-7.9185,-7.9436,-7.9515,-7.9515,-7.9515,-7.9449,-7.9305,-7.9305,-7.9227,-7.9083,-7.9083,-7.9083,-7.9016,-7.833,-7.8116,-7.7941,-7.7146,-7.6885,-7.6661,-7.5857,-7.607,-7.6408,-7.5453,-7.583,-7.645,-7.6333,-7.6339,-7.6072,-7.4679,-7.3121,-7.164,-7.0634,-6.9783,-6.9164,-6.9048,-6.8893,-6.8837,-6.8898,-6.8907,-6.9169,-6.9959,-6.8851,-6.8286,-6.9173,-6.8008,-6.7385,-6.7966,-6.848,-6.8816,-6.8816,-6.8826,-6.8777,-6.8734,-6.8932,-6.903,-6.903,-6.9237,-6.9729,-7.052,-7.0516,-7.089,-7.1559,-7.0044,-6.8917,-6.8218,-6.7946,-6.779,-6.7752,-6.6897,-6.6897,-6.7519,-6.6819,-6.6508,-6.6508,-6.6508,-6.6508,-6.6508,-6.6508,-6.6586,-6.6819,-7.6717,-7.6794,-7.6872,-7.6872,-7.7688,-7.859,-7.9367,-8.0222,-8.1,-8.1635,-8.1691,-8.1646,-8.1516,-8.1553,-8.1612,-8.1669,-8.1669,-8.1669,-8.168,-8.1734,-8.1734,-8.1702,-8.1691,-8.1658,-8.1612,-8.1541,-8.0885,-7.9682,-7.9522,-7.8846,-7.7756,-7.7905,-7.8497,-7.9445,-7.9673,-8.0263,-8.113,-8.1155,-8.118,-8.118,-8.118,-8.074,-8.014,-8.014,-7.9698,-7.9083,-7.9083,-7.9083,-7.9083,-7.8977,-7.8938,-7.8783,-7.8001,-7.7748,-7.7553,-7.6759,-7.6575,-7.6408,-7.5453,-7.583,-7.6333,-7.5559,-7.5935,-7.645,-7.6271,-7.5382,-7.4154,-7.2568,-7.1562,-7.0711,-6.9976,-6.928,-6.8837,-6.8898,-6.8907,-6.8927,-6.9061,-6.895,-6.917,-7.0024,-6.9873,-6.9711,-6.9769,-6.9157,-6.8816,-6.8816,-6.8867,-6.8888,-6.8888,-6.9585,-7.0002,-7.0002,-7.0748,-7.1242,-7.1404,-7.1413,-7.1478,-7.1598,-7.0626,-7.0083,-6.9927,-6.8451,-6.779,-6.7752,-6.6897,-6.6586,-6.6664,-6.6547,-6.6508,-6.6508,-6.6508,-6.6508,-6.6508,-6.6508,-6.6975,-6.7519,-7.6687,-7.6687,-7.6687,-7.6687,-7.7813,-7.8862,-7.9251,-8.0455,-8.1437,-8.1716,-8.1713,-8.1658,-8.1565,-8.1589,-8.1635,-8.1691,-8.1691,-8.1713,-8.1745,-8.1765,-8.1775,-8.1824,-8.1723,-8.168,-8.1658,-8.1553,-8.1259,-8.0794,-8.0207,-7.9338,-7.8201,-7.8846,-7.943,-7.9919,-8.0547,-8.1066,-8.1491,-8.1491,-8.1491,-8.1491,-8.1491,-8.1284,-8.096,-8.096,-8.074,-8.0454,-8.0454,-8.0454,-8.0388,-7.9919,-7.9775,-7.9631,-7.8832,-7.8561,-7.8395,-7.7603,-7.7332,-7.7157,-7.6283,-7.5943,-7.5844,-7.5961,-7.589,-7.5918,-7.6485,-7.626,-7.5608,-7.4369,-7.3031,-7.1964,-7.1577,-7.0384,-6.9329,-6.8924,-6.8432,-6.8142,-6.8152,-6.8208,-6.8554,-6.9472,-6.9506,-6.9459,-6.9411,-6.9428,-6.9473,-6.9473,-6.999,-7.0292,-7.0292,-7.069,-7.0913,-7.0913,-7.1329,-7.158,-7.1598,-7.1594,-7.162,-7.1598,-7.1209,-7.0782,-7.0277,-6.9072,-6.8529,-6.849,-6.814,-6.7946,-6.7907,-6.7441,-6.7247,-6.7169,-6.6703,-6.6508,-6.6508,-6.6508,-6.6742,-6.7091]},{"header":{"parameterUnit":"m.s-1","parameterCategory":1,"la1":30.6,"la2":28.766,"lo1":-90.7593,"lo2":-88.6598,"dy":0.0162,"dx":0.0183,"nx":116,"ny":114,"refTime":"2024-05-25T12:00:00:Z","depth":0,"parameterNumber":3,"parameterNumberName":"V-component_of_WINDS"},"data":[0.0,0.0,0.0,0.0,0.0,0.0,0.0,0.0,0.0,0.0,0.0,0.0,0.0,0.0,0.0,0.0,0.0,0.0,0.0,0.0,0.0,0.0,0.0,0.0,0.0,0.0,0.0,0.0,0.0,0.0,0.0,0.0,0.0,0.0,0.0,0.0,0.0,0.0,0.0,0.0,0.0,0.0,0.0,0.0,0.0,0.0,0.0,0.0,0.0,0.0,0.0,0.0,0.0,0.0,0.0,0.0,0.0,0.0,0.0,0.0,0.0,0.0,0.0,0.0,0.0,0.0,0.0,0.0,0.0,0.0,0.0,0.0,0.0,0.0,0.0,0.0,0.0,0.0,0.0,0.0,0.0,0.0,0.0,0.0,0.0,0.0,0.0,0.0,0.0,0.0,0.0,0.0,0.0,0.0,0.0,0.0,0.0,0.0,0.0,0.0,0.0,0.0,0.0,0.0,0.0,0.0,0.0,0.0,0.0,0.0,0.0,0.0,0.0,0.0,0.0,0.0,0.0,0.0,0.0,0.0,0.0,0.0,0.0,0.0,0.0,0.0,0.0,0.0,0.0,0.0,0.0,0.0,0.0,0.0,0.0,0.0,0.0,0.0,0.0,0.0,0.0,0.0,0.0,0.0,0.0,0.0,0.0,0.0,0.0,0.0,0.0,0.0,0.0,0.0,0.0,0.0,0.0,0.0,0.0,0.0,0.0,0.0,0.0,0.0,0.0,0.0,0.0,0.0,0.0,0.0,0.0,0.0,0.0,0.0,0.0,0.0,0.0,0.0,0.0,0.0,0.0,0.0,0.0,0.0,0.0,0.0,0.0,0.0,0.0,0.0,0.0,0.0,0.0,0.0,0.0,0.0,0.0,0.0,0.0,0.0,0.0,0.0,0.0,0.0,0.0,0.0,0.0,0.0,0.0,0.0,0.0,0.0,0.0,0.0,0.0,0.0,0.0,0.0,0.0,0.0,0.0,0.0,0.0,0.0,0.0,0.0,0.0,0.0,0.0,0.0,0.0,0.0,0.0,0.0,0.0,0.0,0.0,0.0,0.0,0.0,0.0,0.0,0.0,0.0,0.0,0.0,0.0,0.0,0.0,0.0,0.0,0.0,0.0,0.0,0.0,0.0,0.0,0.0,0.0,0.0,0.0,0.0,0.0,0.0,0.0,0.0,0.0,0.0,0.0,0.0,0.0,0.0,0.0,0.0,0.0,0.0,0.0,0.0,0.0,0.0,0.0,0.0,0.0,0.0,0.0,0.0,0.0,0.0,0.0,0.0,0.0,0.0,0.0,0.0,0.0,0.0,0.0,0.0,0.0,0.0,0.0,0.0,0.0,0.0,0.0,0.0,0.0,0.0,0.0,0.0,0.0,0.0,0.0,0.0,0.0,0.0,0.0,0.0,0.0,0.0,0.0,0.0,0.0,0.0,0.0,0.0,0.0,0.0,0.0,0.0,0.0,0.0,0.0,0.0,0.0,0.0,0.0,0.0,0.0,0.0,0.0,0.0,0.0,0.0,0.0,0.0,0.0,0.0,0.0,0.0,0.0,0.0,0.0,0.0,0.0,0.0,0.0,0.0,0.0,0.0,0.0,0.0,0.0,0.0,0.0,0.0,0.0,0.0,0.0,0.0,0.0,0.0,0.0,0.0,0.0,0.0,0.0,0.0,0.0,0.0,0.0,0.0,0.0,0.0,0.0,0.0,0.0,0.0,0.0,0.0,0.0,0.0,0.0,0.0,0.0,0.0,0.0,0.0,0.0,0.0,0.0,0.0,0.0,0.0,0.0,0.0,0.0,0.0,0.0,0.0,0.0,0.0,0.0,0.0,0.0,0.0,0.0,0.0,0.0,0.0,0.0,0.0,0.0,0.0,0.0,0.0,0.0,0.0,0.0,0.0,0.0,0.0,0.0,0.0,0.0,0.0,0.0,0.0,0.0,0.0,0.0,0.0,0.0,0.0,0.0,0.0,0.0,0.0,0.0,0.0,0.0,0.0,0.0,0.0,0.0,0.0,0.0,0.0,0.0,0.0,0.0,0.0,0.0,0.0,0.0,0.0,0.0,0.0,0.0,0.0,0.0,0.0,0.0,0.0,0.0,0.0,0.0,0.0,0.0,0.0,0.0,0.0,0.0,0.0,0.0,0.0,0.0,0.0,0.0,0.0,0.0,0.0,0.0,0.0,0.0,0.0,0.0,0.0,0.0,0.0,0.0,0.0,0.0,0.0,0.0,0.0,0.0,0.0,0.0,0.0,0.0,0.0,0.0,0.0,0.0,0.0,0.0,0.0,0.0,0.0,0.0,0.0,0.0,0.0,0.0,0.0,0.0,0.0,0.0,0.0,0.0,0.0,0.0,0.0,0.0,0.0,0.0,0.0,0.0,0.0,0.0,0.0,0.0,0.0,0.0,0.0,0.0,0.0,0.0,0.0,0.0,0.0,0.0,0.0,0.0,0.0,0.0,0.0,0.0,0.0,0.0,0.0,0.0,0.0,0.0,0.0,0.0,0.0,0.0,0.0,0.0,0.0,0.0,0.0,0.0,0.0,0.0,0.0,0.0,0.0,0.0,0.0,0.0,0.0,0.0,0.0,0.0,0.0,0.0,0.0,0.0,0.0,0.0,0.0,0.0,0.0,0.0,0.0,0.0,0.0,0.0,0.0,0.0,0.0,0.0,0.0,0.0,0.0,0.0,0.0,0.0,0.0,0.0,0.0,0.0,0.0,0.0,0.0,0.0,0.0,0.0,0.0,0.0,0.0,0.0,0.0,0.0,0.0,0.0,0.0,0.0,0.0,0.0,0.0,0.0,0.0,0.0,0.0,0.0,0.0,0.0,0.0,0.0,0.0,0.0,0.0,0.0,0.0,0.0,0.0,0.0,0.0,0.0,0.0,0.0,0.0,0.0,0.0,0.0,0.0,0.0,0.0,0.0,0.0,0.0,0.0,0.0,0.0,0.0,0.0,0.0,0.0,0.0,0.0,0.0,0.0,0.0,0.0,0.0,0.0,0.0,0.0,0.0,0.0,0.0,0.0,0.0,0.0,0.0,0.0,0.0,0.0,0.0,0.0,0.0,0.0,0.0,0.0,0.0,0.0,0.0,0.0,0.0,0.0,0.0,0.0,0.0,0.0,0.0,0.0,0.0,0.0,0.0,0.0,0.0,0.0,0.0,0.0,0.0,0.0,0.0,0.0,0.0,0.0,0.0,0.0,0.0,0.0,0.0,0.0,0.0,0.0,0.0,0.0,0.0,0.0,0.0,0.0,0.0,0.0,0.0,0.0,0.0,0.0,0.0,0.0,0.0,0.0,0.0,0.0,0.0,0.0,0.0,0.0,0.0,0.0,0.0,0.0,0.0,0.0,0.0,0.0,0.0,0.0,0.0,0.0,0.0,0.0,0.0,0.0,0.0,0.0,0.0,0.0,0.0,0.0,0.0,0.0,0.0,0.0,0.0,0.0,0.0,0.0,0.0,0.0,0.0,0.0,0.0,0.0,0.0,0.0,0.0,0.0,0.0,0.0,0.0,0.0,0.0,0.0,0.0,0.0,0.0,0.0,0.0,0.0,0.0,0.0,0.0,0.0,0.0,0.0,0.0,0.0,0.0,0.0,0.0,0.0,0.0,0.0,0.0,0.0,0.0,0.0,0.0,0.0,0.0,0.0,0.0,0.0,0.0,0.0,0.0,0.0,0.0,0.0,0.0,0.0,0.0,0.0,0.0,0.0,0.0,0.0,0.0,0.0,0.0,0.0,0.0,0.0,0.0,0.0,0.0,0.0,0.0,0.0,0.0,0.0,0.0,0.0,0.0,0.0,0.0,0.0,0.0,0.0,0.0,0.0,0.0,0.0,0.0,0.0,0.0,0.0,0.0,0.0,0.0,0.0,0.0,0.0,0.0,0.0,0.0,0.0,0.0,0.0,0.0,0.0,0.0,0.0,0.0,0.0,0.0,0.0,0.0,0.0,0.0,0.0,0.0,0.0,0.0,0.0,0.0,0.0,0.0,0.0,0.0,0.0,0.0,0.0,0.0,0.0,0.0,0.0,0.0,0.0,0.0,0.0,0.0,0.0,0.0,0.0,0.0,0.0,0.0,0.0,0.0,0.0,0.0,0.0,0.0,0.0,0.0,0.0,0.0,0.0,0.0,0.0,0.0,0.0,0.0,0.0,0.0,0.0,0.0,0.0,0.0,0.0,0.0,0.0,0.0,0.0,0.0,0.0,0.0,0.0,0.0,0.0,0.0,0.0,0.0,0.0,0.0,0.0,0.0,0.0,0.0,0.0,0.0,0.0,0.0,0.0,0.0,0.0,0.0,0.0,0.0,0.0,0.0,0.0,0.0,0.0,0.0,0.0,0.0,0.0,0.0,0.0,0.0,0.0,0.0,0.0,0.0,0.0,0.0,0.0,0.0,0.0,0.0,0.0,0.0,0.0,0.0,0.0,0.0,0.0,0.0,0.0,0.0,0.0,0.0,0.0,0.0,0.0,0.0,0.0,0.0,0.0,0.0,0.0,0.0,0.0,0.0,0.0,0.0,0.0,0.0,0.0,0.0,0.0,0.0,0.0,0.0,0.0,0.0,0.0,0.0,0.0,0.0,0.0,0.0,0.0,0.0,0.0,0.0,0.0,0.0,0.0,0.0,0.0,0.0,0.0,0.0,0.0,0.0,0.0,0.0,0.0,0.0,0.0,0.0,0.0,0.0,0.0,0.0,0.0,0.0,0.0,0.0,0.0,0.0,0.0,0.0,0.0,0.0,0.0,0.0,0.0,0.0,0.0,0.0,0.0,0.0,0.0,0.0,0.0,0.0,0.0,0.0,0.0,0.0,0.0,0.0,0.0,0.0,0.0,0.0,0.0,0.0,0.0,0.0,0.0,0.0,0.0,0.0,0.0,0.0,0.0,0.0,0.0,0.0,0.0,0.0,0.0,0.0,0.0,0.0,0.0,0.0,0.0,0.0,0.0,0.0,0.0,0.0,0.0,0.0,0.0,0.0,0.0,0.0,0.0,0.0,0.0,0.0,0.0,0.0,0.0,0.0,0.0,0.0,0.0,0.0,0.0,0.0,0.0,0.0,0.0,0.0,0.0,0.0,0.0,0.0,0.0,0.0,0.0,0.0,0.0,0.0,0.0,0.0,0.0,0.0,0.0,0.0,0.0,0.0,0.0,0.0,0.0,0.0,0.0,0.0,0.0,0.0,0.0,0.0,0.0,0.0,0.0,0.0,0.0,0.0,0.0,0.0,0.0,0.0,0.0,0.0,0.0,0.0,0.0,0.0,0.0,0.0,0.0,0.0,0.0,0.0,0.0,0.0,0.0,0.0,0.0,0.0,0.0,0.0,0.0,0.0,0.0,0.0,0.0,0.0,0.0,0.0,0.0,0.0,0.0,0.0,0.0,0.0,0.0,0.0,0.0,0.0,0.0,0.0,0.0,0.0,0.0,0.0,0.0,0.0,0.0,0.0,0.0,0.0,0.0,0.0,0.0,0.0,0.0,0.0,0.0,0.0,0.0,0.0,0.0,0.0,0.0,0.0,0.0,0.0,0.0,0.0,0.0,0.0,0.0,0.0,0.0,0.0,0.0,0.0,0.0,0.0,0.0,0.0,0.0,0.0,0.0,0.0,0.0,0.0,0.0,0.0,0.0,0.0,0.0,0.0,0.0,0.0,0.0,0.0,0.0,0.0,0.0,0.0,0.0,0.0,0.0,0.0,0.0,0.0,0.0,0.0,0.0,0.0,0.0,0.0,0.0,0.0,0.0,0.0,0.0,0.0,0.0,0.0,0.0,0.0,0.0,0.0,0.0,0.0,0.0,0.0,0.0,0.0,0.0,0.0,0.0,0.0,0.0,0.0,0.0,0.0,0.0,0.0,0.0,0.0,0.0,0.0,0.0,0.0,0.0,0.0,0.0,0.0,0.0,0.0,0.0,0.0,0.0,0.0,0.0,0.0,0.0,0.0,0.0,0.0,0.0,0.0,0.0,0.0,0.0,0.0,0.0,0.0,0.0,0.0,0.0,0.0,0.0,0.0,0.0,0.0,0.0,0.0,0.0,0.0,0.0,0.0,0.0,0.0,0.0,0.0,0.0,0.0,0.0,0.0,0.0,-2.7366,0.0,0.0,0.0,0.0,0.0,0.0,0.0,0.0,0.0,0.0,0.0,0.0,0.0,0.0,0.0,0.0,0.0,0.0,0.0,0.0,0.0,0.0,0.0,0.0,-0.8194,-0.8458,-0.9141,-0.9382,-0.9646,-0.9991,0.0,0.0,0.0,0.0,0.0,-0.9643,-0.9368,-0.968,-1.0622,-1.1196,-1.2552,-1.4597,-1.4862,-1.4379,-1.3239,0.0,0.0,0.0,0.0,0.0,0.0,0.0,0.0,0.0,0.0,0.0,0.0,0.0,0.0,0.0,0.0,0.0,0.0,0.0,0.0,0.0,0.0,0.0,0.0,0.0,0.0,0.0,0.0,0.0,0.0,0.0,0.0,0.0,0.0,0.0,0.0,0.0,0.0,0.0,0.0,0.0,0.0,0.0,0.0,0.0,0.0,0.0,0.0,0.0,0.0,0.0,0.0,0.0,0.0,0.0,0.0,0.0,0.0,0.0,0.0,0.0,0.0,0.0,0.0,0.0,0.0,0.0,0.0,0.0,0.0,0.0,-2.9657,0.0,0.0,0.0,0.0,0.0,0.0,0.0,0.0,0.0,0.0,0.0,0.0,0.0,0.0,0.0,0.0,0.0,0.0,0.0,0.0,0.0,-0.7702,-0.8231,-0.8341,-0.8663,-0.939,-0.9633,-0.9896,-1.0174,-1.0432,0.0,0.0,0.0,-1.0084,-0.9666,-0.9851,-1.0466,-1.1601,-1.2757,-1.4597,-1.7104,-1.8003,-1.7549,-1.5983,-1.5081,0.0,0.0,0.0,0.0,0.0,0.0,0.0,0.0,0.0,0.0,0.0,0.0,0.0,0.0,0.0,0.0,0.0,0.0,0.0,0.0,0.0,0.0,0.0,0.0,0.0,0.0,0.0,0.0,0.0,0.0,0.0,0.0,0.0,0.0,0.0,0.0,0.0,0.0,0.0,0.0,0.0,0.0,0.0,0.0,0.0,0.0,0.0,0.0,0.0,0.0,0.0,0.0,0.0,0.0,0.0,0.0,0.0,0.0,0.0,0.0,0.0,0.0,0.0,-3.3522,-3.4247,-3.4228,-3.558,-3.6221,-3.6095,-3.3853,-3.3155,-3.3442,0.0,0.0,0.0,0.0,0.0,0.0,0.0,0.0,0.0,0.0,0.0,0.0,0.0,0.0,0.0,0.0,0.0,0.0,0.0,0.0,-0.8105,-0.859,-0.8906,-0.9434,-1.0344,-0.9921,-0.9969,-1.0814,-1.0371,0.0,0.0,-1.0136,-1.0007,-0.994,-1.0322,-1.124,-1.2774,-1.5831,-1.7986,-1.9299,-1.9778,-1.9874,-1.9513,-1.7215,-1.5716,-1.4828,0.0,0.0,0.0,0.0,0.0,0.0,0.0,0.0,0.0,0.0,0.0,0.0,0.0,0.0,0.0,0.0,0.0,0.0,0.0,0.0,0.0,0.0,0.0,0.0,0.0,0.0,0.0,0.0,0.0,0.0,0.0,0.0,0.0,0.0,0.0,0.0,0.0,0.0,0.0,0.0,0.0,-1.7974,-1.9426,0.0,0.0,0.0,0.0,0.0,0.0,0.0,0.0,0.0,0.0,0.0,0.0,0.0,0.0,-3.1979,-3.4472,-3.5915,-3.631,-3.8358,-3.9324,-3.9325,-3.9953,-4.0454,-4.0801,-4.0431,0.0,-3.5539,-3.4727,0.0,0.0,0.0,0.0,0.0,0.0,0.0,0.0,0.0,0.0,0.0,0.0,0.0,0.0,0.0,0.0,0.0,0.0,0.0,0.0,0.0,-1.031,-1.0935,-1.1692,-1.2009,-1.1996,-1.1474,-1.1534,-1.1177,-1.0337,-1.0213,-1.0252,-1.0456,-1.1264,-1.2963,-1.5569,-1.8268,-2.0096,-2.1028,-2.161,-2.1671,-2.1343,-2.056,-1.8729,-1.6085,-1.4517,0.0,0.0,0.0,0.0,0.0,0.0,0.0,0.0,0.0,0.0,0.0,0.0,0.0,0.0,0.0,0.0,0.0,0.0,0.0,0.0,0.0,0.0,0.0,0.0,0.0,0.0,0.0,0.0,0.0,0.0,0.0,0.0,0.0,0.0,0.0,0.0,0.0,0.0,0.0,-1.7402,-1.9376,-2.0529,-2.0531,-2.0343,0.0,0.0,0.0,0.0,0.0,0.0,0.0,0.0,0.0,-3.1651,-3.3437,-3.5128,-3.6599,-3.8546,-3.984,-4.0525,-4.1757,-4.2442,-4.2704,-4.2922,-4.2988,-4.2922,-4.2922,-4.1655,-3.9471,-3.7898,-3.5195,-3.1902,0.0,0.0,0.0,0.0,-2.6632,-2.7229,0.0,0.0,0.0,0.0,0.0,0.0,0.0,0.0,0.0,0.0,0.0,0.0,-1.0752,-1.1443,-1.2196,-1.3122,-1.3739,-1.365,-1.2648,-1.257,-1.1994,-1.0797,-1.0405,-1.0463,-1.0956,-1.2711,-1.5158,-1.8209,-2.0275,-2.1658,-2.2449,-2.2997,-2.2994,-2.2611,-2.2889,-2.1047,-1.7601,-1.6298,-1.4653,-1.2871,0.0,0.0,0.0,0.0,0.0,0.0,0.0,0.0,0.0,0.0,0.0,0.0,0.0,0.0,0.0,0.0,0.0,0.0,0.0,0.0,0.0,0.0,0.0,0.0,0.0,0.0,0.0,0.0,0.0,0.0,0.0,0.0,0.0,0.0,0.0,0.0,0.0,-1.9213,-2.0852,-2.1609,-2.2206,-2.2312,0.0,0.0,0.0,0.0,0.0,0.0,-2.8482,-3.0892,-3.3206,-3.5317,-3.736,-3.9199,-4.0736,-4.2003,-4.2988,-4.3731,-4.4189,-4.4604,-4.4954,-4.5085,-4.4932,-4.4582,-4.4342,-4.3818,-4.2966,-4.0432,-3.7881,-3.5423,-3.3055,-3.1165,-2.9762,-2.944,-2.9717,-3.0513,0.0,0.0,0.0,0.0,0.0,0.0,0.0,0.0,0.0,0.0,0.0,-0.9599,-1.0941,-1.1736,-1.2815,-1.4473,-1.4078,-1.4006,-1.4688,-1.2945,-1.185,-1.1919,-1.0697,-1.0462,-1.1435,-1.4946,-1.7787,-1.9878,-2.1677,-2.2877,-2.3614,-2.3631,-2.3631,-2.3578,-2.3118,-2.1796,-1.9765,-1.8253,-1.6915,-1.5496,-1.3155,0.0,0.0,0.0,0.0,0.0,0.0,0.0,0.0,0.0,0.0,0.0,0.0,0.0,0.0,0.0,0.0,0.0,0.0,0.0,0.0,0.0,0.0,0.0,0.0,0.0,0.0,0.0,0.0,0.0,0.0,0.0,0.0,0.0,0.0,0.0,0.0,0.0,0.0,-2.2997,-2.4607,0.0,0.0,0.0,0.0,-2.5737,-2.6842,-2.8209,-2.9739,-3.2852,-3.5563,-3.7649,-4.0577,-4.2657,-4.366,-4.467,-4.5172,-4.5216,-4.5675,-4.5915,-4.5937,-4.6417,-4.6614,-4.6526,-4.5631,-4.5216,-4.4954,-4.207,-3.9604,-3.7436,-3.5261,-3.3467,-3.2097,-3.2777,-3.3071,-3.3322,0.0,0.0,0.0,0.0,0.0,-0.8008,-0.8126,-0.8296,-0.8601,-0.9161,-1.0244,-1.1448,-1.2711,-1.3995,-1.5225,-1.6283,-1.633,-1.6071,-1.5462,-1.4052,-1.3296,-1.3329,-1.2027,-1.2392,-1.4729,-1.6912,-1.8832,-2.0527,-2.1606,-2.2593,-2.3432,-2.3432,-2.3566,-2.3854,-2.4019,-2.319,-2.1493,-1.9766,-1.8086,-1.6463,-1.4697,-1.353,0.0,0.0,0.0,0.0,0.0,0.0,0.0,0.0,0.0,0.0,0.0,0.0,0.0,0.0,0.0,0.0,0.0,0.0,0.0,0.0,0.0,0.0,0.0,0.0,0.0,0.0,0.0,0.0,0.0,0.0,0.0,0.0,0.0,0.0,0.0,0.0,0.0,-2.5172,-2.6302,0.0,0.0,-2.6902,-2.7723,-2.8083,-3.0218,-3.2398,-3.4596,-3.7154,-3.9857,-4.2583,-4.3681,-4.4888,-4.6177,-4.5915,-4.5915,-4.6221,-4.6068,-4.6002,-4.6002,-4.6177,-4.609,-4.5828,-4.5762,-4.5412,-4.4728,-4.2869,-4.1192,-3.9391,-3.6912,-3.5439,-3.4554,-3.3854,-3.4702,-3.6304,0.0,0.0,0.0,0.0,-0.7992,-0.8049,-0.8167,-0.8526,-0.9015,-0.9715,-1.0993,-1.2428,-1.3982,-1.5399,-1.6591,-1.7556,-1.7759,-1.7408,-1.6484,-1.5189,-1.4439,-1.4352,-1.3512,-1.4208,-1.6633,-1.8192,-1.9626,-2.1065,-2.1963,-2.2759,-2.3486,-2.3706,-2.395,-2.42,-2.459,-2.4122,-2.2869,-2.1544,-1.9891,-1.8054,-1.6675,-1.5525,-1.4505,0.0,0.0,0.0,0.0,0.0,0.0,0.0,0.0,0.0,0.0,0.0,0.0,0.0,0.0,0.0,0.0,0.0,0.0,0.0,0.0,0.0,0.0,0.0,0.0,0.0,0.0,0.0,0.0,0.0,0.0,0.0,0.0,0.0,0.0,0.0,-2.5566,-2.6559,-2.7912,-2.8511,-2.7895,-2.8974,-2.9915,-3.0412,-3.2316,-3.436,-3.6455,-3.8623,-4.1083,-4.4058,-4.4497,-4.5492,-4.7225,-4.657,-4.6505,-4.6985,-4.6658,-4.6592,-4.6723,-4.657,-4.633,-4.6046,-4.6024,-4.5335,-4.409,-4.2562,-4.1102,-3.9529,-3.7671,-3.673,-3.6342,-3.5321,-3.6121,-3.7728,0.0,0.0,0.0,-0.7987,-0.7992,-0.8049,-0.8188,-0.8606,-0.9226,-1.0099,-1.1,-1.2411,-1.4657,-1.573,-1.6796,-1.8147,-1.7969,-1.7806,-1.7806,-1.6142,-1.5077,-1.4832,-1.5057,-1.5755,-1.6947,-1.8698,-2.0269,-2.1612,-2.2702,-2.3502,-2.3921,-2.4479,-2.4757,-2.4812,-2.483,-2.4496,-2.3904,-2.3596,-2.2356,-2.047,-1.9031,-1.7866,-1.6775,0.0,0.0,0.0,0.0,0.0,0.0,0.0,0.0,0.0,0.0,0.0,0.0,0.0,0.0,0.0,0.0,0.0,0.0,0.0,0.0,0.0,0.0,0.0,0.0,0.0,0.0,0.0,0.0,0.0,0.0,0.0,0.0,0.0,-2.3151,-2.548,-2.7141,-2.721,-2.947,-3.06,-2.9521,-3.0754,-3.2007,-3.2728,-3.3174,-3.3895,-3.5106,-3.688,-3.9071,-4.1719,-4.2843,-4.4453,-4.6561,-4.6615,-4.6855,-4.7411,-4.7389,-4.7684,-4.8099,-4.7662,-4.7466,-4.74,-4.6311,-4.4955,-4.3339,-4.1161,-3.9297,-3.7787,-3.7403,-3.7257,-3.7257,-3.7257,-3.7316,-3.7704,0.0,0.0,-0.7919,-0.7987,-0.7992,-0.809,-0.8311,-0.886,-0.9479,-1.0115,-1.185,-1.3496,-1.4772,-1.6352,-1.7518,-1.789,-1.787,-1.7711,-1.7429,-1.5842,-1.505,-1.5348,-1.6624,-1.7767,-1.8634,-1.9391,-2.0369,-2.1612,-2.2193,-2.2911,-2.3921,-2.4089,-2.4368,-2.483,-2.5104,-2.4957,-2.4552,-2.476,-2.4213,-2.3003,-2.0817,-1.913,-1.785,0.0,0.0,0.0,0.0,0.0,0.0,0.0,0.0,0.0,0.0,0.0,0.0,0.0,0.0,0.0,0.0,0.0,0.0,0.0,0.0,0.0,0.0,0.0,0.0,0.0,0.0,0.0,0.0,0.0,0.0,0.0,0.0,-2.4898,-2.6182,-2.7244,-2.8494,-3.0205,-3.0977,-3.1508,-3.173,-3.293,-3.3809,-3.4018,-3.4828,-3.6156,-3.7904,-3.8463,-3.993,-4.2537,-4.284,-4.3479,-4.4482,-4.408,-4.4453,-4.5544,-4.5209,-4.555,-4.6614,-4.5494,-4.5562,-4.6289,-4.4535,-4.3664,-4.3345,-4.099,-3.9411,-3.8225,-3.6967,-3.6393,-3.6393,-3.6393,-3.7499,-3.9273,0.0,-0.7925,-0.7919,-0.7987,-0.8049,-0.8152,-0.8373,-0.8983,-0.966,-1.0401,-1.2304,-1.3989,-1.5079,-1.6613,-1.7663,-1.7806,-1.7695,-1.7456,-1.708,-1.609,-1.5817,-1.6446,-1.7752,-1.8779,-1.9514,-1.9798,-2.0372,-2.1223,-2.1907,-2.2632,-2.3357,-2.395,-2.4479,-2.483,-2.5206,-2.5258,-2.5069,-2.5275,-2.4991,-2.4149,-2.2392,-2.095,-1.9726,-1.8117,-1.727,-1.6819,-1.5486,-1.5173,-1.5272,-1.4857,0.0,0.0,0.0,0.0,0.0,0.0,0.0,0.0,0.0,0.0,0.0,0.0,0.0,0.0,0.0,0.0,0.0,0.0,0.0,0.0,0.0,0.0,0.0,0.0,-2.5035,-2.7073,-2.858,-2.8991,-2.9727,-3.1371,-3.1987,-3.2591,-3.3396,-3.4226,-3.4883,-3.5197,-3.5922,-3.6949,-3.8024,-3.8401,-3.9559,-4.1745,-4.1846,-4.2288,-4.3277,-4.2848,-4.3078,-4.3958,-4.4038,-4.4334,-4.469,-4.4256,-4.4251,0.0,-4.3101,-4.2365,-4.1778,-4.0197,-3.886,0.0,0.0,0.0,0.0,0.0,-3.7149,-3.8974,0.0,-0.7919,-0.7925,-0.8008,-0.8126,-0.8229,-0.8373,-0.8983,-0.9777,-1.0783,-1.2492,-1.4096,-1.5418,-1.6619,-1.7382,-1.7636,-1.7472,-1.7159,-1.6749,-1.6669,-1.6979,-1.7742,-1.8449,-1.9155,-1.9852,-2.012,-2.0442,-2.0835,-2.1992,-2.26,-2.2711,-2.4161,-2.4812,-2.4885,-2.5297,-2.5469,-2.5434,-2.5469,-2.5167,-2.4554,-2.369,-2.2814,-2.1824,-1.975,-1.89,-1.8641,-1.7339,-1.6571,-1.6129,-1.5823,0.0,0.0,0.0,0.0,0.0,0.0,0.0,0.0,0.0,0.0,0.0,0.0,0.0,0.0,0.0,0.0,0.0,0.0,0.0,0.0,0.0,0.0,0.0,0.0,-2.7107,-2.8802,-3.0343,-3.06,-3.0891,-3.1611,-3.2728,-3.3702,-3.4441,-3.4953,-3.5494,-3.6176,-3.655,-3.6806,-3.6761,0.0,0.0,0.0,0.0,-4.0851,-4.2414,-4.1948,-4.2091,-4.2644,-4.3318,-4.3397,-4.2809,-4.3436,-4.3118,-4.2184,-4.1879,-4.099,-3.9695,-3.9068,-3.7996,-3.6525,-3.6217,-3.6097,-3.6097,-3.6322,-3.679,-3.762,0.0,-0.7987,-0.8028,-0.8147,-0.8188,-0.8229,-0.8373,-0.8983,-0.9825,-1.0994,-1.2602,-1.4087,-1.5288,-1.656,-1.7191,-1.6953,-1.7143,-1.7195,-1.6967,-1.7172,-1.7582,-1.8169,-1.8854,-1.9477,-2.0135,-2.0457,-2.1018,-2.1854,-2.2573,-2.3135,-2.3638,-2.4445,-2.4923,-2.5145,-2.5896,-2.6052,-2.5735,-2.6087,-2.5806,-2.5099,-2.3931,-2.3037,-2.2236,-2.0991,-2.0339,-1.9984,-1.8938,-1.855,-1.852,-1.8288,-1.7809,-1.7195,-1.6672,-1.5475,0.0,0.0,0.0,0.0,0.0,0.0,0.0,0.0,0.0,0.0,0.0,0.0,0.0,0.0,0.0,0.0,0.0,0.0,0.0,-2.6747,-2.8015,-2.9299,-3.1097,-3.1611,-3.197,-3.2415,-3.3574,-3.4458,-3.4842,-3.5832,-3.6542,-3.6701,-3.6955,-3.7352,-3.767,-3.777,0.0,-3.8698,-3.8715,-3.8885,-3.9208,-3.9137,-3.9635,-4.0777,0.0,0.0,-4.23,-4.1442,-4.1466,-4.2043,-3.9974,-3.9319,-3.9632,-3.8182,-3.7059,-3.6183,-3.6131,-3.6097,-3.6241,-3.7631,-3.7958,-3.7929,-0.807,-0.809,-0.8126,-0.8188,-0.825,-0.825,-0.807,-0.8813,-0.9666,-1.0392,-1.2011,-1.3374,-1.4145,-1.5119,-1.5554,-1.5189,-1.5809,-1.6462,-1.6974,-1.7462,-1.8078,-1.8796,-1.9403,-2.0082,-2.0898,-2.1077,-2.1354,-2.1856,-2.2903,-2.3458,-2.3474,-2.471,-2.5453,-2.5758,-2.6355,-2.6677,-2.6637,-2.6714,-2.6226,-2.5313,-2.4049,-2.3239,-2.2633,-2.1456,-2.0787,-2.0265,-1.9612,-1.9328,-1.9235,-1.925,-1.8887,-1.8426,-1.8297,-1.7094,-1.5567,0.0,0.0,0.0,0.0,0.0,0.0,0.0,0.0,0.0,0.0,0.0,0.0,0.0,0.0,-2.1904,0.0,0.0,-2.6199,-2.7912,-2.9145,-3.0292,-3.1405,-3.2056,-3.2552,-3.2929,-3.3874,-3.4783,-3.5551,-3.6365,-3.6958,-3.733,-3.7654,-3.7918,-3.7802,-3.8013,-3.8135,-3.8323,-3.8323,-3.8323,-3.8323,-3.8323,-3.8647,-3.9285,-3.9993,-4.0299,-4.0216,-4.0299,-4.0299,-4.0151,-3.8901,-3.8507,-3.8683,-3.7387,-3.6594,-3.6097,-3.6097,-3.6097,-3.6322,-3.795,-3.8231,-3.8076,-0.8085,-0.8023,-0.8023,-0.8209,-0.825,-0.8131,-0.7765,-0.8593,-0.9356,-0.9583,-1.1238,-1.2508,-1.2864,-1.3502,-1.385,-1.3711,-1.4601,-1.5725,-1.6944,-1.7614,-1.8423,-1.9368,-1.993,-2.0604,-2.143,-2.1658,-2.179,-2.1907,-2.3382,-2.3909,-2.3601,-2.5128,-2.6054,-2.6501,-2.6911,-2.7249,-2.7552,-2.7011,-2.6317,-2.5393,-2.3998,-2.3146,-2.2692,-2.1623,-2.0847,-2.0342,-1.9852,-1.945,-1.919,-1.9356,-1.9241,-1.9019,-1.9352,-1.8452,-1.7126,-1.6258,-1.5288,0.0,0.0,0.0,0.0,0.0,0.0,0.0,0.0,0.0,-2.132,-2.3083,-2.3665,-2.4419,-2.6107,-2.7227,-2.8134,-2.9059,-3.0292,-3.1285,-3.1713,-3.2364,-3.2946,-3.334,-3.4118,-3.5071,-3.6082,-3.6621,-3.7188,-3.7816,-3.8223,-3.8198,-3.7825,-3.8118,-3.8323,-3.8323,-3.8323,-3.8323,-3.8323,-3.8323,-3.8323,-3.8323,-3.9418,-3.9352,-3.8323,-3.9418,-3.9352,-3.8323,-3.8255,-3.7998,-3.7604,-3.6902,-3.6422,-3.6097,-3.6097,-3.6097,-3.6241,-3.7542,-3.7758,-3.7734,0.0,-0.7412,-0.7405,-0.8229,-0.8049,-0.7765,-0.7703,-0.8327,-0.8825,-0.8987,-1.0464,-1.1722,-1.224,-1.278,-1.3353,-1.3995,-1.4744,-1.5725,-1.6944,-1.7614,-1.8529,-1.9691,-2.0047,-2.0384,-2.0776,-2.1872,-2.256,-2.2944,-2.4099,-2.5013,-2.5662,-2.6053,-2.6575,-2.7215,-2.7611,-2.7809,-2.7768,-2.6598,-2.5902,-2.5319,-2.3454,-2.2487,-2.2142,-2.147,-2.1123,-2.0855,-1.9761,-1.9212,-1.8992,-1.8844,-1.8993,-1.9272,-1.9427,-1.8941,-1.8239,-1.7861,0.0,-1.5213,-1.5363,-1.5797,-1.6703,-1.8817,-1.9315,-2.0408,0.0,0.0,-2.4264,-2.6182,-2.661,-2.7004,-2.8237,-2.8563,-2.9111,-3.0532,-3.1183,-3.1748,-3.2467,-3.2929,-3.334,-3.3734,-3.4726,-3.5677,-3.6177,-3.6851,-3.7472,-3.7834,-3.7912,-3.7882,-3.7825,-3.8118,-3.8323,-3.8323,-3.8323,-3.8323,-3.8323,-3.8323,-3.8323,-3.8323,-3.8443,-3.846,-3.8323,-3.846,-3.846,-3.8306,-3.7964,-3.7621,-3.7244,-3.6799,-3.6422,-3.6097,-3.6097,-3.6097,-3.6046,-3.5925,-3.5994,-3.6299,0.0,-0.714,-0.7133,-0.751,-0.7426,-0.7237,-0.7146,-0.7743,-0.8255,-0.8318,-0.948,-1.0437,-1.0814,-1.1282,-1.1897,-1.279,-1.3918,-1.5169,-1.6581,-1.769,-1.8739,-1.9749,-2.0062,-2.0714,-2.1708,-2.2576,-2.3279,-2.382,-2.5181,-2.5895,-2.5926,-2.6793,-2.7443,-2.7976,-2.8141,-2.8213,-2.8137,-2.7257,-2.611,-2.482,-2.3664,-2.2389,-2.1204,-2.0629,-2.0336,-2.0152,-1.9673,-1.9102,0.0,-1.903,-1.9197,-1.925,-1.9634,-1.9383,-1.8894,-1.8326,-1.773,0.0,-1.747,-1.7712,0.0,0.0,-2.1622,-2.2712,-2.5785,-2.5994,-2.596,-2.7432,-2.7723,-2.8083,-2.923,-2.9607,-3.0087,0.0,-3.1645,-3.2073,-3.2604,-3.2826,-3.2912,-3.2844,-3.3661,-3.4672,-3.5737,-3.6613,-3.7303,-3.7825,-3.8118,-3.8219,-3.8066,-3.8238,-3.8323,-3.8323,-3.8323,-3.8323,-3.8323,-3.8323,-3.8426,-3.8683,-3.8683,-3.8683,-3.8683,-3.8683,-3.8597,-3.8289,-3.7707,-3.7347,-3.7159,-3.6559,-3.6234,-3.6097,-3.6097,-3.6097,-3.6224,-3.6993,-3.6807,-3.6224,0.0,-0.6732,-0.6689,-0.6782,-0.6762,-0.6715,-0.6701,-0.7268,-0.7694,-0.7643,-0.8644,-0.9506,-0.983,-1.0248,-1.0878,-1.1789,-1.3155,-1.4558,-1.5918,-1.7492,-1.8562,-1.9012,-1.9798,-2.0424,-2.0996,-2.2672,-2.3624,-2.3835,-2.5719,-2.6547,-2.6349,-2.7225,-2.782,-2.8223,-2.8223,-2.8165,-2.7915,-2.711,-2.5799,-2.4204,-2.3324,-2.1979,-2.0516,-1.9979,-1.945,-1.9069,-1.8979,-1.8577,-1.8165,-1.8255,-1.8473,-1.8753,-1.9067,-1.9209,-1.9177,-1.8846,-1.8768,-1.8716,-1.8582,0.0,0.0,-2.2072,-2.336,-2.4571,-2.6446,-2.69,-2.7244,-2.8289,-2.8426,-2.8665,-2.971,-3.0104,0.0,-3.1422,-3.197,-3.2381,-3.2638,-3.2689,-3.2587,-3.2313,-3.2689,-3.3541,-3.4984,-3.593,-3.6799,-3.7648,-3.8218,-3.8522,-3.846,-3.858,-3.8666,-3.8512,-3.8512,-3.8409,-3.8323,-3.8323,-3.8512,-3.9025,-3.9025,-3.9025,-3.9195,-3.9025,-3.8768,-3.8289,-3.7535,-3.721,-3.7159,-3.6405,-3.6097,-3.6097,-3.6097,-3.6029,-3.6104,-3.7436,-3.717,-3.6224,0.0,0.0,-0.5868,-0.6252,-0.6157,-0.6191,-0.6634,-0.6988,-0.7182,-0.7039,-0.819,-0.9223,-0.9744,-1.0223,-1.0767,-1.1467,-1.279,-1.3995,-1.4879,-1.6857,-1.7779,-1.723,-1.9138,-1.9306,-1.7318,-2.1632,-2.3457,-2.2671,-2.5284,-2.6995,-2.7728,-2.7361,-2.7398,-2.784,-2.784,-2.7498,-2.6849,-2.5549,-2.4466,-2.3467,-2.1902,-2.0822,-2.0179,-1.9784,-1.8781,-1.7636,-1.7369,-1.7445,-1.7482,-1.5872,-1.635,-1.761,-1.7355,-1.7989,0.0,-1.9641,-1.9537,-1.9005,0.0,0.0,-2.1283,-2.2314,-2.3958,-2.5737,-2.7286,-2.7946,-2.8357,-2.9128,-2.9008,-2.8991,-2.9761,-2.9915,-3.0275,-3.1458,-3.2193,-3.2672,-3.2689,-3.2689,-3.2672,-3.2672,-3.2364,-3.2621,0.0,-3.4907,-3.6141,-3.723,-3.8059,-3.8623,-3.899,-3.9451,-3.9451,-3.9025,-3.8939,-3.8768,-3.8323,-3.8323,-3.8512,-3.9025,-3.9025,-3.9281,-3.9689,-3.9195,-3.8768,-3.8289,-3.7535,-3.721,-3.7159,-3.6405,-3.6097,-3.6097,-3.6097,-3.5857,-3.5566,-3.6023,-3.6178,-3.6029,0.0,0.0,0.0,-0.6302,-0.6307,-0.6368,-0.6643,-0.6806,-0.6951,-0.7182,-0.8015,0.0,0.0,0.0,0.0,0.0,-1.2324,-1.3567,-1.475,-1.6459,-1.7538,-1.7807,-1.9118,-1.9343,-1.8306,-2.0387,-2.1773,-2.2265,-2.3677,-2.4962,-2.6232,-2.6355,-2.6364,-2.6255,-2.6255,-2.5887,-2.5229,-2.4404,-2.3561,-2.2689,-2.077,-1.9961,-1.9818,-1.8893,-1.7992,-1.7175,0.0,-1.6503,-1.6191,-1.5957,-1.6124,-1.6503,-1.7085,0.0,0.0,-1.8527,-1.9247,-1.9709,0.0,0.0,-2.2162,-2.3601,-2.499,-2.6289,-2.7752,-2.8384,-2.8712,-2.9146,-2.8776,-2.8673,-2.9561,-2.9595,-2.9948,-3.1288,-3.1976,-3.2398,-3.2655,-3.2912,-3.2792,-3.2039,-3.2056,0.0,0.0,0.0,0.0,-3.6811,-3.7689,-3.8418,-3.9028,-3.948,-3.9604,-3.9451,-3.9433,-3.9366,-3.9263,-3.9263,-3.9433,-3.9979,-3.9979,-3.9752,-3.9334,-3.9073,-3.863,-3.7929,-3.769,-3.7433,-3.7176,-3.6662,-3.6303,-3.6097,-3.6097,-3.6011,-3.5909,-3.6046,-3.6097,-3.608,0.0,0.0,0.0,0.0,0.0,0.0,0.0,0.0,0.0,0.0,0.0,0.0,0.0,0.0,0.0,0.0,0.0,0.0,-1.3899,-1.5227,-1.5993,-1.6031,-1.7383,-1.758,-1.6549,-1.8268,-1.9468,-1.9984,-2.1556,-2.29,-2.3913,-2.4671,-2.4842,-2.4508,-2.4642,-2.4294,-2.3559,-2.276,-2.2038,-2.1197,-1.9275,-1.8464,-1.8352,-1.7446,-1.672,0.0,-1.5619,-1.5324,-1.5181,-1.5175,-1.5465,-1.5889,-1.6632,-1.727,-1.7888,-1.8273,-1.928,-2.0382,-2.0903,-2.1774,-2.2869,-2.4254,-2.5405,-2.6438,-2.7425,-2.816,-2.8618,-2.8645,-2.8258,-2.8078,-2.8647,-2.8449,-2.884,-3.0597,-3.127,-3.1799,-3.257,-3.2895,-3.2792,-3.2056,-3.2176,0.0,0.0,0.0,0.0,-3.6587,-3.7791,-3.8694,-3.9336,-3.9916,-4.0113,-3.9961,-3.9961,-3.9876,-3.9689,-3.9536,-3.9706,-4.0131,-4.0469,-4.0102,-3.9139,-3.919,-3.8731,-3.7758,-3.7758,-3.7553,-3.7176,-3.6782,-3.6422,-3.6097,-3.6097,-3.6011,-3.5909,-3.6046,-3.6011,-3.5909,0.0,0.0,0.0,0.0,0.0,0.0,0.0,0.0,0.0,0.0,0.0,0.0,0.0,0.0,0.0,0.0,0.0,0.0,-1.2385,-1.3341,-1.3421,-1.2287,-1.4289,-1.443,-1.2303,-1.5462,-1.6769,-1.6048,-1.9029,-2.0698,-2.1049,-2.2366,-2.2808,-2.2584,-2.2919,-2.2609,-2.1717,-2.0617,-1.9805,-1.9083,-1.741,-1.6433,-1.5932,-1.5669,-1.5092,-1.4422,-1.4041,-1.42,-1.4451,-1.3716,0.0,0.0,0.0,0.0,0.0,-1.8945,-1.9732,-2.0953,-2.1643,-2.2551,-2.3475,-2.4306,-2.5302,-2.6187,-2.653,-2.7393,-2.798,-2.761,-2.7399,-2.7199,0.0,0.0,-2.7098,-2.9433,-3.0172,-3.0994,-3.2484,-3.2724,-3.2758,0.0,0.0,0.0,0.0,0.0,0.0,-3.6841,0.0,-3.9339,-3.9801,-4.0654,-4.0892,-4.0488,-4.0488,-4.0216,-3.9774,-3.9366,-3.9281,-3.9774,-4.0639,-4.0421,-3.9139,-3.9511,-3.8968,-3.7758,-3.7758,-3.7553,-3.7176,-3.6782,-3.6422,-3.6097,-3.6097,-3.5857,-3.5583,-3.596,-3.5857,-3.5583,0.0,0.0,0.0,0.0,0.0,0.0,0.0,0.0,0.0,0.0,0.0,0.0,0.0,0.0,0.0,0.0,0.0,0.0,0.0,-1.2909,-1.3492,-1.312,-1.4412,-1.4526,-1.3182,-1.4469,-1.5179,-1.527,-1.6101,-1.7164,-1.8454,-1.9305,-1.9617,-1.9556,-2.0112,-1.9887,-1.897,-1.8249,-1.7674,-1.716,-1.5248,-1.4874,-1.5464,-1.5123,-1.4636,-1.4216,-1.495,-1.4688,0.0,0.0,0.0,0.0,0.0,0.0,-1.9517,0.0,0.0,-2.2191,-2.2931,-2.3846,-2.4675,-2.4889,-2.5353,-2.5924,-2.6791,-2.6561,-2.6332,-2.6929,-2.6158,-2.5368,0.0,0.0,0.0,-2.8622,-3.02,0.0,-3.2552,-3.3426,0.0,0.0,0.0,-3.4633,-3.5298,-3.5976,0.0,0.0,-3.8481,-3.9069,-3.9814,-4.0675,-4.106,-4.0892,-4.0892,-4.0892,-4.0723,-4.0639,-4.0469,-4.0216,-4.0807,-4.0421,-3.9139,-3.9511,-3.8968,-3.7758,-3.7758,-3.7553,-3.7176,-3.6782,-3.6422,-3.6097,-3.6097,-3.6029,-3.596,-3.6063,-3.6029,-3.596,0.0,0.0,0.0,0.0,0.0,0.0,0.0,0.0,0.0,0.0,0.0,0.0,0.0,0.0,0.0,0.0,0.0,0.0,0.0,-1.1525,-1.1898,-1.1888,-1.2531,-1.2675,-1.2317,-1.2667,-1.3043,-1.3365,-1.3946,-1.4807,-1.5967,-1.6711,-1.7199,-1.7371,-1.7664,-1.742,-1.6801,-1.6022,-1.5617,0.0,0.0,-1.336,-1.3894,-1.3812,-1.3714,-1.3643,0.0,0.0,0.0,0.0,0.0,-1.905,-1.8749,-1.9578,-2.0673,-2.0844,0.0,-2.3082,-2.3688,-2.4431,-2.5077,-2.5078,-2.527,-2.5459,-2.5707,-2.5391,-2.5069,-2.5082,-2.4542,0.0,0.0,0.0,0.0,0.0,0.0,0.0,-3.2261,-3.3563,-3.4393,0.0,-3.5019,0.0,-3.6338,-3.7024,-3.7747,0.0,-3.9021,-3.944,-4.0088,-4.0795,-4.106,-4.106,-4.106,-4.0976,-4.0807,-4.0976,-4.0892,-4.0403,-4.0892,-4.0421,-3.9139,-3.9511,-3.8968,-3.7758,0.0,-3.7553,-3.7176,-3.6782,-3.6422,-3.6097,-3.6097,-3.6097,-3.6097,-3.6097,-3.6097,-3.6097,0.0,0.0,0.0,0.0,0.0,0.0,0.0,0.0,0.0,0.0,0.0,0.0,0.0,0.0,0.0,0.0,0.0,0.0,0.0,0.0,0.0,-1.0008,-1.0043,-1.0346,-1.0845,-1.0941,-1.109,-1.1313,0.0,-1.3151,-1.3652,-1.4613,-1.5207,-1.5513,-1.5531,-1.5299,-1.4905,-1.4063,-1.3755,-1.3649,-1.2617,-1.2167,-1.2089,0.0,0.0,0.0,0.0,0.0,0.0,0.0,-2.1288,-2.0933,-2.0592,-2.1316,-2.2218,-2.2009,-2.2717,-2.3702,-2.4092,-2.4686,-2.5085,-2.5137,-2.4982,-2.4765,-2.4223,-2.4075,-2.3748,-2.2697,0.0,-2.2723,-2.2324,0.0,-2.4562,-2.6209,0.0,-3.0197,-3.185,-3.3466,-3.4581,-3.5068,-3.5922,-3.6711,-3.7456,-3.7939,-3.8497,-3.9274,-3.9722,-4.0171,-4.0455,-4.084,-4.106,-4.106,-4.106,-4.0892,-4.0403,-4.0892,-4.0892,-4.0403,-4.0807,-4.0373,-3.921,-3.9462,-3.8968,-3.7842,0.0,0.0,-3.7107,-3.6713,-3.6371,-3.6097,-3.6097,-3.6097,-3.6097,-3.6097,-3.6097,-3.6097,0.0,0.0,0.0,0.0,0.0,0.0,0.0,0.0,0.0,0.0,-0.8692,-0.8562,0.0,0.0,0.0,0.0,0.0,0.0,0.0,0.0,0.0,-1.0078,-1.0396,-1.0741,-1.1128,0.0,0.0,0.0,0.0,0.0,-1.179,-1.3018,-1.3356,-1.2983,-1.4172,-1.409,-1.3074,-1.2868,-1.2627,-1.2312,-1.1936,-1.1771,-1.1793,-1.2115,0.0,0.0,0.0,0.0,0.0,0.0,-2.1669,-2.2463,-2.2498,-2.2713,-2.3051,-2.3216,-2.3447,-2.377,-2.4709,-2.5002,-2.5122,-2.5115,-2.4464,-2.3944,-2.4328,-2.3026,0.0,0.0,0.0,-2.0121,-2.0484,-2.1428,0.0,-2.5734,0.0,0.0,0.0,0.0,-3.4755,0.0,0.0,0.0,0.0,0.0,0.0,0.0,0.0,0.0,-4.0473,-4.084,-4.106,-4.106,-4.106,-4.0892,-4.0403,-4.0892,-4.0892,-4.0403,-4.0469,-4.018,-3.96,-3.9246,-3.8646,-3.7741,-3.7433,0.0,-3.6696,-3.6337,-3.6148,-3.6097,-3.6097,-3.6097,-3.6097,-3.6097,-3.6097,-3.6097,0.0,0.0,0.0,0.0,0.0,0.0,0.0,-0.8882,-0.9344,-1.0214,-1.0065,-0.9793,-0.9586,-0.9424,-0.9372,0.0,0.0,0.0,0.0,0.0,0.0,0.0,0.0,-1.0659,0.0,0.0,0.0,0.0,0.0,0.0,0.0,0.0,0.0,0.0,0.0,0.0,0.0,0.0,0.0,0.0,0.0,0.0,0.0,0.0,0.0,0.0,0.0,0.0,0.0,0.0,-2.1495,-2.2885,-2.3304,-2.3688,-2.3943,-2.3881,-2.4084,-2.4466,-2.5002,-2.5119,-2.5113,-2.5122,-2.4342,-2.3454,-2.2866,0.0,0.0,0.0,0.0,-1.9457,-1.97,0.0,0.0,0.0,0.0,0.0,0.0,0.0,0.0,0.0,0.0,0.0,0.0,0.0,0.0,0.0,0.0,0.0,-4.0767,-4.095,-4.106,-4.106,-4.106,-4.0976,-4.0723,-4.0976,-4.0892,-4.0403,-4.0639,-4.03,-3.9366,-3.9366,-3.8798,-3.7741,-3.7364,0.0,-3.6594,-3.6234,-3.6097,-3.6097,-3.6097,-3.6097,-3.6097,-3.6097,-3.6097,-3.6097,0.0,0.0,0.0,0.0,0.0,0.0,0.0,-0.9391,-0.9908,-1.1176,-1.14,-1.1109,-1.0254,-1.0006,-0.9781,0.0,0.0,0.0,0.0,0.0,0.0,0.0,0.0,0.0,0.0,0.0,0.0,0.0,0.0,0.0,0.0,0.0,0.0,0.0,0.0,0.0,0.0,0.0,0.0,0.0,0.0,0.0,0.0,0.0,0.0,0.0,0.0,0.0,0.0,0.0,-2.0822,-2.2029,-2.3129,-2.3846,-2.4236,-2.3936,-2.4301,-2.4841,-2.4987,-2.5075,-2.5099,-2.5032,-2.4183,-2.2991,-2.1334,-2.0312,0.0,0.0,-1.8332,-1.9035,-1.9255,0.0,0.0,0.0,0.0,0.0,0.0,0.0,0.0,0.0,0.0,0.0,0.0,0.0,0.0,0.0,0.0,0.0,-4.1042,-4.106,-4.106,-4.106,-4.106,-4.106,-4.106,-4.106,-4.0892,-4.0554,-4.0723,-4.0216,-3.9195,-3.9348,-3.8763,-3.7621,-3.733,0.0,0.0,-3.6217,-3.6097,-3.6097,-3.6097,-3.6097,-3.6097,-3.6097,-3.6097,-3.6097,0.0,0.0,0.0,0.0,0.0,0.0,0.0,-0.9688,-1.0418,-1.1958,-1.1982,-1.1814,-1.1718,-1.1056,-1.0418,0.0,0.0,0.0,0.0,0.0,0.0,0.0,0.0,0.0,0.0,0.0,0.0,0.0,0.0,0.0,0.0,0.0,0.0,0.0,0.0,0.0,0.0,0.0,0.0,0.0,0.0,0.0,0.0,0.0,0.0,0.0,0.0,0.0,0.0,0.0,0.0,-1.9124,-2.1278,-2.2545,-2.3231,-2.3201,0.0,0.0,-2.4452,-2.4899,-2.504,-2.4749,-2.3651,-2.2334,-2.0985,0.0,0.0,-1.7234,-1.7286,-1.787,-1.8782,-1.9228,0.0,0.0,0.0,0.0,0.0,0.0,0.0,0.0,0.0,0.0,0.0,0.0,0.0,0.0,0.0,0.0,0.0,-4.106,-4.106,-4.106,-4.106,-4.106,-4.106,-4.106,-4.106,-4.106,-4.0198,-3.9774,-3.9604,-3.8837,-3.8014,-3.7261,-3.7227,0.0,0.0,-3.6114,-3.6097,-3.6097,-3.6097,-3.6097,-3.6097,-3.6097,-3.6097,-3.6097,0.0,0.0,0.0,0.0,0.0,0.0,-0.9772,-0.987,-1.0456,-1.2289,-1.2296,-1.2134,-1.2135,-1.171,-1.1068,-1.0214,0.0,0.0,0.0,0.0,0.0,0.0,0.0,0.0,0.0,0.0,0.0,0.0,0.0,0.0,0.0,0.0,0.0,0.0,0.0,0.0,0.0,0.0,0.0,0.0,0.0,0.0,0.0,0.0,0.0,0.0,0.0,0.0,0.0,0.0,0.0,0.0,-1.9475,-2.0237,0.0,0.0,-2.2991,-2.3647,-2.4166,-2.4657,-2.5084,-2.4958,-2.3606,-2.2024,-2.0693,0.0,-1.7998,-1.6751,-1.7134,-1.7768,-1.7941,-1.8774,-1.9716,-2.0732,-2.1414,-2.2929,0.0,0.0,0.0,0.0,0.0,0.0,0.0,0.0,0.0,0.0,0.0,0.0,0.0,-4.106,-4.106,-4.106,-4.106,-4.106,-4.106,-4.106,-4.0976,-4.0639,-4.03,-3.9791,-3.9263,-3.8696,-3.7959,-3.7193,-3.6953,0.0,0.0,-3.6097,-3.6097,-3.6097,-3.6097,-3.6097,-3.6097,-3.6097,-3.6097,-3.6097,0.0,0.0,0.0,0.0,0.0,-0.8451,-0.9844,-0.9805,-1.0289,-1.2244,-1.223,-1.207,-1.2322,-1.1899,-1.1307,-1.0633,-1.048,0.0,0.0,0.0,0.0,0.0,0.0,0.0,0.0,0.0,0.0,0.0,-1.1813,0.0,0.0,0.0,0.0,0.0,0.0,0.0,0.0,0.0,0.0,0.0,0.0,0.0,0.0,0.0,0.0,0.0,0.0,0.0,0.0,0.0,0.0,0.0,0.0,0.0,0.0,0.0,-2.2311,-2.3108,-2.3765,-2.4342,-2.4753,-2.4693,-2.3337,-2.1642,0.0,0.0,-1.7682,-1.6445,-1.7033,-1.7681,-1.7433,-1.854,-1.9443,-1.9443,-2.0306,-2.1867,-2.4453,0.0,0.0,0.0,0.0,0.0,0.0,0.0,0.0,0.0,0.0,0.0,0.0,-4.106,-4.106,-4.106,-4.106,-4.106,-4.106,-4.106,-4.0892,-4.0554,-4.03,-3.9876,-3.9178,-3.8539,-3.7905,-3.7193,0.0,0.0,0.0,-3.6097,-3.6097,-3.6097,-3.6097,-3.6097,-3.6097,-3.6097,-3.6097,-3.6097,0.0,0.0,0.0,0.0,0.0,0.0,-0.9328,-0.9437,-1.0042,-1.1782,-1.1607,-1.1569,-1.2323,-1.1512,-1.097,-1.1158,-1.0877,0.0,0.0,0.0,0.0,0.0,0.0,0.0,0.0,0.0,-1.1782,-1.2004,-1.2066,-1.2094,0.0,0.0,0.0,0.0,0.0,0.0,0.0,0.0,0.0,0.0,0.0,0.0,0.0,0.0,0.0,0.0,0.0,0.0,0.0,0.0,0.0,0.0,0.0,0.0,0.0,0.0,-2.1283,-2.1902,-2.3167,-2.3794,-2.4013,-2.3691,-2.2652,-2.1189,0.0,-1.8252,-1.7399,-1.64,-1.685,-1.7386,-1.7386,-1.8346,-1.9095,-1.9095,-2.108,-2.3117,-2.4607,0.0,0.0,0.0,0.0,0.0,0.0,0.0,0.0,0.0,0.0,0.0,0.0,-4.106,-4.106,-4.106,-4.106,-4.106,-4.106,-4.106,-4.106,-4.106,-4.0113,-3.9689,-3.9671,-3.8353,-3.757,0.0,0.0,0.0,0.0,-3.6097,-3.6097,-3.6097,-3.6097,-3.6097,-3.6097,-3.6097,-3.6097,-3.6097,0.0,0.0,0.0,0.0,0.0,0.0,0.0,-0.8954,-0.9422,-1.098,-1.0808,-1.0822,-1.1576,-1.1185,-1.101,-1.1261,-1.114,0.0,0.0,0.0,0.0,0.0,0.0,0.0,0.0,-1.1718,-1.1824,-1.2077,-1.2224,-1.2382,-1.2581,-1.2783,0.0,0.0,0.0,0.0,0.0,0.0,0.0,0.0,0.0,0.0,0.0,0.0,0.0,0.0,0.0,0.0,0.0,0.0,0.0,0.0,0.0,0.0,0.0,-1.872,0.0,0.0,-2.1096,-2.1963,-2.2616,-2.2053,-2.1267,-2.0288,-1.9013,-1.8252,-1.7478,-1.6551,-1.6699,-1.6996,-1.6757,-1.771,-1.8598,-1.8769,-2.0916,0.0,0.0,0.0,0.0,0.0,0.0,0.0,0.0,0.0,0.0,0.0,0.0,0.0,0.0,0.0,-4.106,-4.106,-4.106,-4.106,-4.106,-4.106,-4.0976,-4.0639,-4.0046,-3.9395,-3.8877,-3.7804,0.0,0.0,0.0,0.0,0.0,-3.6097,-3.6097,-3.6097,-3.6097,-3.6097,-3.6097,-3.6097,-3.6097,-3.6063,0.0,0.0,0.0,0.0,0.0,0.0,0.0,-0.8592,-0.8927,-1.0078,-0.9997,-1.0133,-1.095,-1.0673,-1.0606,-1.1131,-1.1152,0.0,0.0,0.0,0.0,0.0,0.0,0.0,-1.1827,-1.1848,-1.204,-1.2364,-1.2554,-1.284,-1.3215,-1.3453,-1.3525,-1.3424,0.0,0.0,0.0,0.0,0.0,0.0,0.0,0.0,0.0,0.0,0.0,0.0,0.0,0.0,0.0,0.0,0.0,0.0,0.0,0.0,0.0,0.0,-1.8255,-1.9308,0.0,-2.0997,-2.1444,-2.1214,-2.0536,-1.9619,-1.8731,-1.8019,-1.7375,-1.6727,-1.6653,-1.6653,-1.6448,-1.7096,-1.7726,-1.798,-2.007,0.0,0.0,0.0,0.0,0.0,0.0,0.0,0.0,0.0,0.0,0.0,0.0,0.0,0.0,0.0,-4.0185,-4.0185,-4.0727,-4.106,-4.106,-4.106,-4.0892,-4.0403,-3.9801,-3.9099,-3.8432,-3.7477,0.0,0.0,0.0,0.0,0.0,-3.6097,-3.6097,-3.6097,-3.6097,-3.6097,-3.6097,-3.6097,-3.6097,-3.6029,0.0,0.0,0.0,0.0,0.0,0.0,0.0,-0.8344,-0.8596,-0.9175,-0.9227,-0.955,-1.0426,-0.9992,-0.997,-1.0875,0.0,0.0,0.0,0.0,0.0,0.0,0.0,0.0,-1.1938,-1.2055,-1.231,-1.2764,-1.2974,-1.3373,-1.3919,-1.4123,-1.4136,-1.399,-1.4172,0.0,0.0,0.0,0.0,0.0,0.0,0.0,0.0,0.0,0.0,0.0,0.0,0.0,0.0,0.0,0.0,0.0,0.0,0.0,0.0,0.0,0.0,0.0,0.0,-2.0643,0.0,0.0,-2.0199,-1.9178,-1.83,-1.7639,0.0,-1.6889,-1.6609,-1.6433,-1.6477,-1.6605,-1.6817,-1.7217,-1.9076,0.0,0.0,0.0,0.0,0.0,0.0,0.0,0.0,0.0,0.0,0.0,0.0,0.0,0.0,0.0,-3.8536,-3.8453,-4.0083,-4.0987,-4.1108,-4.1108,-4.0771,-4.0264,-3.9449,-3.8817,-3.8345,-3.7118,0.0,0.0,0.0,0.0,0.0,-3.6097,-3.6097,-3.6097,-3.6097,-3.6097,-3.6097,-3.6097,-3.6097,-3.6029,0.0,0.0,0.0,0.0,0.0,0.0,0.0,0.0,0.0,0.0,-0.9083,-0.9367,-0.9776,-0.983,-1.0078,0.0,0.0,0.0,0.0,0.0,0.0,0.0,0.0,0.0,-1.1478,-1.1878,-1.2148,-1.2267,-1.2813,-1.3373,-1.3919,-1.3981,-1.4179,-1.4495,-1.4156,-1.3933,0.0,0.0,0.0,0.0,0.0,0.0,0.0,0.0,0.0,0.0,0.0,0.0,0.0,0.0,0.0,0.0,0.0,0.0,0.0,0.0,-1.6087,-1.6181,-1.7122,0.0,-1.841,-1.7951,-1.8083,-1.8134,0.0,-1.7175,-1.6876,-1.6271,-1.6389,-1.6699,-1.7018,-1.7417,-1.7964,-1.8859,0.0,0.0,0.0,0.0,0.0,0.0,0.0,0.0,0.0,0.0,0.0,0.0,0.0,0.0,0.0,0.0,-3.8105,-3.7093,-3.8447,-3.9627,-4.0602,-4.0602,-4.0185,-3.9431,-3.8855,-3.8088,-3.705,-3.6713,0.0,0.0,0.0,0.0,-3.6097,-3.6097,-3.6097,-3.6097,-3.6097,-3.6097,-3.6097,-3.6097,-3.6097,-3.6029,0.0,0.0,0.0,0.0,0.0,0.0,0.0,0.0,0.0,0.0,0.0,-0.9141,-0.9378,-0.9626,0.0,0.0,0.0,0.0,0.0,0.0,0.0,0.0,0.0,-1.1489,-1.1466,-1.191,-1.2256,-1.2581,-1.3177,-1.3755,-1.4201,-1.4485,-1.4671,-1.4671,-1.4252,-1.4088,0.0,0.0,0.0,0.0,0.0,0.0,0.0,0.0,0.0,0.0,0.0,-1.4613,0.0,-1.6401,-1.7347,-1.8338,0.0,0.0,0.0,0.0,-1.5412,-1.5011,-1.4877,-1.632,-1.7741,-1.7357,-1.7658,-1.8034,-1.7778,-1.7318,-1.685,0.0,0.0,0.0,0.0,0.0,0.0,0.0,0.0,0.0,0.0,0.0,0.0,0.0,0.0,0.0,0.0,0.0,0.0,0.0,0.0,0.0,0.0,0.0,-3.6328,-3.5774,-3.6686,-3.7622,-3.8671,-3.9685,-3.9519,-3.8254,-3.8283,-3.7655,-3.6611,-3.6457,-3.6106,0.0,0.0,0.0,-3.4922,-3.4595,-3.4789,-3.5261,-3.5261,-3.5621,-3.6097,-3.6097,-3.6097,-3.6029,0.0,0.0,0.0,0.0,0.0,0.0,0.0,0.0,0.0,0.0,0.0,0.0,0.0,0.0,0.0,0.0,0.0,0.0,0.0,0.0,0.0,0.0,-1.1435,-1.1434,-1.1747,-1.1986,-1.2429,-1.305,-1.3616,-1.4134,-1.4652,-1.5171,-1.5182,-1.4671,-1.4435,-1.434,0.0,0.0,0.0,0.0,0.0,0.0,0.0,0.0,0.0,0.0,0.0,0.0,0.0,-1.6314,-1.738,-1.837,-1.7669,0.0,0.0,0.0,0.0,0.0,-1.3682,-1.5632,-1.7705,-1.7401,-1.7838,-1.8356,-1.8241,0.0,0.0,0.0,0.0,0.0,0.0,0.0,0.0,0.0,0.0,0.0,0.0,0.0,0.0,0.0,0.0,0.0,0.0,0.0,0.0,0.0,0.0,0.0,0.0,0.0,0.0,-3.4458,-3.4949,-3.546,-3.5925,-3.8276,-3.8676,-3.7173,-3.755,-3.7294,-3.6525,-3.6234,-3.5838,0.0,0.0,0.0,-3.3644,-3.281,-3.3081,-3.4076,-3.4222,-3.4919,-3.585,-3.5999,-3.6097,-3.6046,0.0,0.0,0.0,0.0,0.0,0.0,0.0,0.0,0.0,0.0,0.0,0.0,0.0,0.0,0.0,0.0,0.0,0.0,0.0,0.0,0.0,-1.1348,-1.1305,-1.1509,-1.2029,-1.2073,-1.2343,-1.2862,-1.3499,-1.4118,-1.4669,-1.495,-1.4931,-1.4683,-1.4638,-1.4521,-1.4292,-1.4292,0.0,0.0,0.0,0.0,0.0,0.0,0.0,0.0,0.0,0.0,0.0,-1.5759,-1.653,-1.737,-1.6959,0.0,0.0,0.0,0.0,0.0,-1.4923,-1.6403,-1.7384,-1.5531,-1.6934,-1.8455,-1.734,-1.7353,0.0,0.0,0.0,0.0,0.0,0.0,0.0,0.0,0.0,0.0,0.0,0.0,0.0,0.0,0.0,0.0,0.0,0.0,0.0,0.0,0.0,0.0,0.0,0.0,0.0,-3.3148,-3.3969,-3.3936,-3.2946,-3.5736,-3.7059,-3.6796,-3.6516,-3.6344,-3.6183,-3.6114,-3.6097,0.0,0.0,-3.4239,-3.4126,-3.2969,-3.2618,-3.2857,-3.3883,-3.4432,-3.4675,-3.5736,-3.6097,-3.5999,0.0,0.0,0.0,0.0,0.0,0.0,0.0,0.0,0.0,0.0,0.0,0.0,0.0,0.0,0.0,0.0,0.0,0.0,0.0,0.0,-1.1554,-1.1715,-1.1725,-1.1867,-1.2083,-1.2354,-1.2834,-1.3594,-1.4212,-1.4793,-1.5313,-1.5141,-1.5019,-1.4886,-1.4629,-1.4425,-1.4292,-1.4292,-1.4292,0.0,0.0,0.0,0.0,0.0,0.0,0.0,0.0,0.0,0.0,0.0,-1.6399,-1.7001,-1.7117,0.0,0.0,0.0,0.0,0.0,-1.3926,-1.4984,-1.5864,-1.5363,-1.7604,-1.9714,-1.8935,-1.8816,-1.8797,0.0,0.0,0.0,0.0,0.0,0.0,0.0,0.0,0.0,0.0,0.0,0.0,0.0,0.0,0.0,0.0,0.0,0.0,0.0,0.0,0.0,0.0,0.0,0.0,0.0,-3.3806,-3.371,-3.271,-3.4245,-3.4959,-3.4759,-3.4832,-3.5105,-3.5451,-3.5227,-3.497,-3.4711,0.0,-3.2794,-3.1967,-3.0976,-3.1103,-3.1937,-3.2921,-3.3818,-3.4769,-3.5702,-3.5774,-3.5271,0.0,0.0,0.0,0.0,0.0,0.0,0.0,0.0,0.0,0.0,0.0,0.0,0.0,0.0,0.0,0.0,0.0,0.0,0.0,-1.1273,-1.1488,-1.1997,-1.2116,-1.2256,-1.2429,-1.2797,-1.3405,-1.4292,-1.486,-1.5418,-1.5873,-1.5564,-1.5267,-1.5089,-1.4606,-1.4352,-1.4292,-1.4292,-1.4292,0.0,0.0,0.0,0.0,0.0,0.0,0.0,0.0,0.0,0.0,0.0,0.0,0.0,0.0,0.0,0.0,-1.4876,-1.3971,-1.3262,-1.3363,-1.3918,-1.4831,-1.6111,-1.8336,-2.0222,-2.0413,-2.0253,-2.0052,0.0,0.0,0.0,0.0,0.0,0.0,0.0,0.0,0.0,0.0,0.0,0.0,0.0,0.0,0.0,0.0,0.0,0.0,0.0,0.0,0.0,0.0,0.0,0.0,0.0,-3.3644,-3.3419,-3.2825,-3.2986,-3.308,-3.3125,-3.3441,-3.3905,-3.4505,-3.4186,-3.3787,-3.3291,-3.2459,-3.1368,-3.0175,-2.9345,-2.9736,-3.0948,-3.2,-3.3446,-3.4991,-3.5702,-3.5352,-3.4376,0.0,0.0,0.0,0.0,0.0,0.0,0.0,0.0,0.0,0.0,0.0,0.0,0.0,0.0,0.0,0.0,0.0,0.0,0.0,-1.1177,-1.1413,-1.1715,-1.2156,-1.2694,-1.3362,-1.3405,-1.3726,-1.4223,-1.5011,-1.5648,-1.6177,-1.6215,-1.5849,-1.5101,-1.4811,-1.4545,-1.4292,-1.4292,-1.4292,-1.4292,-1.4027,0.0,0.0,0.0,0.0,0.0,0.0,0.0,0.0,0.0,0.0,0.0,0.0,0.0,-1.4623,-1.4526,-1.3844,-1.3434,-1.4767,-1.5009,-1.5425,-1.7734,-1.8177,-1.8523,-2.0355,-2.055,-2.0718,-2.1989,0.0,0.0,0.0,0.0,0.0,0.0,0.0,0.0,0.0,0.0,0.0,0.0,0.0,0.0,0.0,0.0,0.0,0.0,0.0,0.0,0.0,0.0,0.0,0.0,0.0,-3.2475,-3.2444,-3.1824,-3.2042,-3.3125,-3.3125,-3.3141,-3.3253,-3.3174,-3.2936,-3.2523,-3.1306,-3.0757,-3.0633,-2.9829,-2.9538,-2.9754,-3.1324,-3.3123,-3.4912,-3.5345,-3.4669,-3.3444,0.0,0.0,0.0,0.0,0.0,0.0,0.0,0.0,0.0,0.0,0.0,0.0,0.0,0.0,0.0,0.0,0.0,0.0,0.0,-1.1251,-1.1565,-1.2124,-1.2324,-1.2608,-1.3078,-1.362,-1.4331,-1.513,-1.5818,-1.6159,-1.6165,-1.5916,-1.5559,-1.5089,-1.4654,-1.4497,-1.4545,-1.4377,-1.4401,-1.4545,-1.428,0.0,0.0,0.0,0.0,0.0,0.0,0.0,0.0,0.0,-1.508,-1.5532,-1.5148,-1.4896,-1.4728,-1.4377,-1.3724,-1.3229,-1.3819,-1.4085,-1.4678,-1.6524,-1.6846,-1.7608,-2.11,-2.1693,-2.1963,-2.351,-2.3689,0.0,0.0,0.0,0.0,0.0,0.0,0.0,0.0,0.0,0.0,0.0,0.0,0.0,0.0,0.0,0.0,0.0,0.0,0.0,0.0,0.0,0.0,0.0,0.0,-3.2633,-3.211,-3.2168,-3.2133,-3.201,-3.1776,-3.206,-3.2816,-3.2487,-3.2235,-3.2078,-3.1638,-3.098,-3.0327,-3.0035,-3.0189,-3.0715,-3.2157,-3.325,-3.4163,-3.4208,-3.3613,-3.2686,0.0,0.0,0.0,0.0,0.0,0.0,0.0,0.0,0.0,0.0,0.0,0.0,0.0,0.0,0.0,0.0,0.0,0.0,-1.1183,-1.1227,-1.1532,-1.2225,-1.2306,-1.2479,-1.2916,-1.3663,-1.4462,-1.5241,-1.6046,-1.6331,-1.6104,-1.5761,-1.5487,-1.5209,-1.4751,-1.4654,-1.4823,-1.4545,-1.4533,-1.469,-1.4413,-1.4039,0.0,0.0,0.0,0.0,0.0,0.0,0.0,0.0,-1.4758,-1.5189,-1.4604,-1.4607,-1.4721,-1.4199,-1.3783,-1.3464,-1.3317,-1.368,-1.4388,-1.5569,-1.6253,-1.7614,-2.1515,-2.2208,-2.2617,-2.481,-2.5336,-2.5957,-2.7872,0.0,0.0,0.0,0.0,0.0,0.0,0.0,0.0,0.0,0.0,0.0,0.0,0.0,0.0,0.0,0.0,0.0,0.0,0.0,0.0,0.0,0.0,-3.2793,-3.2253,-3.2344,-3.2119,-3.1554,-3.126,-3.1478,-3.1994,-3.1667,-3.1495,-3.1339,-3.1449,-3.1058,-3.0297,-3.0452,-3.0841,-3.1465,-3.266,-3.3185,-3.3316,-3.3371,-3.2854,-3.2247,0.0,0.0,0.0,0.0,0.0,0.0,0.0,0.0,0.0,0.0,0.0,0.0,0.0,0.0,0.0,0.0,0.0,0.0,-1.099,-1.0977,-1.1283,-1.1982,-1.2055,-1.2418,-1.3071,-1.3566,-1.3943,-1.4202,-1.5456,-1.6011,-1.5901,-1.5911,-1.5741,-1.5475,-1.5221,-1.5113,-1.5089,-1.4823,-1.4714,-1.469,-1.4413,-1.4135,-1.3882,0.0,0.0,0.0,0.0,0.0,0.0,0.0,-1.4239,-1.484,-1.4103,-1.4172,-1.4417,-1.4007,-1.4087,-1.4183,-1.3652,-1.408,-1.4837,-1.5301,0.0,0.0,-2.151,-2.1935,-2.2677,-2.6054,-2.6923,-2.7532,-2.9048,0.0,0.0,0.0,0.0,0.0,0.0,0.0,0.0,0.0,0.0,0.0,0.0,0.0,0.0,0.0,0.0,0.0,0.0,0.0,0.0,0.0,0.0,0.0,-3.2936,-3.2253,-3.1919,-3.1919,-3.1919,-3.1495,-3.0794,-3.0794,-3.0547,-3.0159,-3.0511,-3.0742,-3.0727,-3.112,-3.1308,-3.1504,-3.2752,-3.2878,-3.2444,-3.2713,-3.2573,-3.2031,0.0,0.0,0.0,0.0,0.0,0.0,0.0,0.0,0.0,0.0,0.0,0.0,0.0,0.0,0.0,0.0,0.0,0.0,-1.1203,-1.1224,-1.1383,-1.1697,-1.2093,-1.2345,-1.24,-1.3351,-1.4153,-1.4713,-1.513,-1.5309,-1.5294,-1.5307,-1.5197,-1.4956,-1.5065,-1.5004,-1.4823,-1.4751,-1.4714,-1.469,-1.4413,-1.4135,-1.3882,0.0,0.0,0.0,0.0,0.0,0.0,0.0,0.0,0.0,-1.3479,-1.3952,-1.4498,-1.3802,-1.3942,-1.4147,-1.3435,-1.4442,0.0,-1.6126,0.0,0.0,0.0,-2.3086,0.0,0.0,-2.8057,-2.8959,0.0,0.0,0.0,0.0,0.0,0.0,0.0,0.0,0.0,0.0,0.0,0.0,0.0,0.0,0.0,0.0,0.0,0.0,0.0,0.0,0.0,0.0,0.0,0.0,-3.1856,-3.1649,-3.1554,-3.1554,-3.1554,-3.154,-3.162,-3.1842,-3.1874,-3.17,-3.1575,-3.1528,-3.1528,-3.1669,-3.1619,-3.1427,-3.2087,-3.1902,-3.1277,-3.129,-3.1158,-3.1041,0.0,0.0,0.0,0.0,0.0,0.0,0.0,0.0,0.0,0.0,-1.0056,-1.0272,0.0,0.0,0.0,0.0,0.0,0.0,0.0,-1.1094,-1.1219,-1.1629,-1.207,-1.2382,-1.263,-1.3599,-1.4151,-1.4361,-1.476,-1.4966,-1.4866,-1.5128,-1.5185,-1.504,-1.5306,-1.527,-1.5016,-1.492,-1.4871,-1.4847,-1.457,-1.4364,-1.4183,0.0,0.0,0.0,0.0,0.0,0.0,0.0,0.0,0.0,-1.2918,-1.3231,-1.3679,-1.3428,-1.3725,-1.4135,-1.4087,-1.5531,0.0,-1.744,-1.9505,-2.2062,-2.4169,0.0,0.0,0.0,0.0,0.0,0.0,0.0,0.0,0.0,0.0,0.0,0.0,0.0,0.0,0.0,0.0,0.0,0.0,0.0,0.0,0.0,0.0,0.0,0.0,0.0,0.0,0.0,0.0,0.0,-3.1792,-3.1665,-3.1601,-3.1601,-3.1601,-3.1713,-3.1919,-3.1983,-3.1999,-3.1999,-3.1935,-3.1919,-3.1919,-3.1919,-3.1713,-3.1411,-3.1617,-3.1432,-3.0934,-3.0886,-3.0727,-3.06,0.0,0.0,0.0,0.0,0.0,0.0,0.0,0.0,0.0,0.0,-0.9879,-1.0061,0.0,0.0,0.0,0.0,0.0,0.0,0.0,-1.0789,-1.0966,-1.1692,-1.207,-1.2676,-1.3591,-1.4052,-1.4052,-1.3628,-1.4507,-1.4808,-1.4589,-1.5215,-1.5451,-1.5387,-1.5728,-1.5692,-1.5363,-1.5149,-1.5016,-1.498,-1.4739,-1.463,-1.4558,-1.4063,0.0,0.0,0.0,0.0,0.0,0.0,0.0,0.0,-1.2478,-1.2271,-1.2367,-1.2861,-1.3459,-1.4123,-1.5214,0.0,0.0,0.0,0.0,0.0,0.0,0.0,0.0,0.0,0.0,0.0,0.0,0.0,0.0,0.0,0.0,0.0,0.0,0.0,0.0,0.0,0.0,0.0,0.0,0.0,0.0,0.0,0.0,0.0,0.0,0.0,0.0,0.0,0.0,0.0,-3.23,-3.1997,-3.1854,0.0,-3.1854,-3.1776,-3.1776,-3.157,-3.1458,-3.1458,-3.1776,-3.1903,-3.1872,-3.184,-3.1633,-3.1331,-3.13,-3.1181,-3.1074,-3.1074,-3.0824,-3.0589,0.0,0.0,0.0,0.0,0.0,0.0,0.0,0.0,0.0,0.0,0.0,0.0,0.0,0.0,0.0,0.0,0.0,0.0,0.0,-1.097,-1.1298,-1.1687,-1.2916,-1.3846,-1.4418,-1.4187,-1.418,-1.4433,-1.4451,-1.4237,-1.385,-1.4772,-1.4975,-1.4595,-1.5263,-1.5215,-1.456,-1.4484,-1.4352,-1.4159,-1.4099,-1.3954,-1.3761,-1.364,-1.3435,0.0,0.0,0.0,0.0,0.0,0.0,0.0,-1.2271,-1.2188,-1.2129,-1.2374,-1.3157,-1.4143,0.0,-1.6601,0.0,0.0,0.0,0.0,0.0,0.0,0.0,0.0,0.0,0.0,0.0,0.0,0.0,0.0,0.0,0.0,0.0,0.0,0.0,0.0,0.0,0.0,0.0,0.0,0.0,0.0,0.0,0.0,0.0,0.0,0.0,0.0,0.0,-3.1243,-3.1243,-3.1462,-3.1579,0.0,-3.128,-3.113,-3.1163,-3.1884,-3.2046,-3.1808,-3.1887,-3.176,-3.149,-3.1204,-3.1045,-3.095,-3.0664,-3.03,-2.9986,-2.9986,-2.9986,-2.9911,0.0,0.0,0.0,0.0,0.0,0.0,0.0,0.0,0.0,0.0,0.0,0.0,0.0,0.0,0.0,0.0,0.0,0.0,0.0,-1.1042,-1.1517,-1.2392,-1.3543,-1.4168,-1.4191,-1.4038,-1.3909,-1.3802,-1.3932,-1.3957,-1.3969,-1.487,-1.5119,-1.4898,-1.5459,-1.5339,-1.4672,-1.4424,-1.422,-1.4087,-1.4087,-1.4014,-1.3845,-1.3471,-1.3041,-1.2699,-1.2421,0.0,0.0,0.0,0.0,0.0,0.0,0.0,-1.1635,-1.2006,-1.2518,-1.3274,0.0,0.0,0.0,0.0,0.0,0.0,0.0,0.0,0.0,0.0,0.0,0.0,0.0,0.0,0.0,0.0,0.0,0.0,0.0,0.0,0.0,0.0,0.0,0.0,0.0,0.0,0.0,0.0,0.0,0.0,0.0,0.0,0.0,0.0,-3.0695,-3.1014,-3.1162,-3.1367,-3.1515,-3.1515,-3.131,-3.1162,-3.1178,-3.1305,-3.1315,-3.1157,-3.1157,-3.1045,-3.0855,-3.068,-3.0601,-3.0585,-3.0394,-3.0166,-2.9958,-2.9958,-2.9923,-2.9723,0.0,0.0,0.0,0.0,0.0,0.0,0.0,0.0,0.0,0.0,0.0,0.0,0.0,0.0,0.0,0.0,0.0,0.0,0.0,-1.1087,-1.1843,-1.3271,-1.3885,-1.4062,-1.3815,-1.3791,-1.3567,-1.3044,-1.3263,-1.3767,-1.4484,-1.5059,-1.5347,-1.5343,-1.5522,-1.5383,-1.4903,-1.4364,-1.4088,-1.4099,-1.4099,-1.4039,-1.3882,-1.323,-1.265,-1.2143,-1.1878,-1.1802,-1.1986,-1.2421,0.0,0.0,0.0,0.0,-1.1214,-1.1709,-1.185,-1.2343,0.0,0.0,0.0,0.0,0.0,0.0,0.0,0.0,0.0,0.0,0.0,0.0,0.0,0.0,0.0,0.0,0.0,0.0,0.0,0.0,0.0,0.0,0.0,0.0,0.0,0.0,0.0,0.0,0.0,0.0,0.0,0.0,-2.9581,-3.0163,-3.0355,-3.0679,-3.1285,-3.1408,-3.1515,-3.1515,-3.1441,-3.1334,-3.1285,-3.0531,-3.0267,-3.0389,-3.0315,-3.0315,-3.0315,-3.0251,-3.0235,-3.0235,-3.0172,-3.014,-3.014,-3.014,-2.9965,-2.9743,0.0,0.0,0.0,0.0,0.0,0.0,0.0,0.0,0.0,0.0,-1.0293,-1.0304,-1.0336,-1.0121,0.0,0.0,0.0,0.0,-1.0379,0.0,0.0,-1.3775,-1.372,-1.3957,-1.4545,-1.3532,-1.3333,-1.41,-1.3088,-1.3448,-1.5141,-1.4906,-1.4768,-1.4705,-1.4573,-1.4472,-1.4368,-1.3614,-1.3257,-1.3278,-1.3278,-1.3,-1.2566,-1.2457,-1.2054,-1.1561,-1.1323,-1.1528,-1.1886,-1.1958,-1.2324,0.0,0.0,0.0,0.0,0.0,-1.1706,-1.2306,0.0,0.0,0.0,0.0,0.0,0.0,0.0,0.0,0.0,0.0,0.0,0.0,0.0,0.0,0.0,0.0,0.0,0.0,0.0,0.0,0.0,0.0,0.0,0.0,0.0,0.0,0.0,0.0,0.0,0.0,0.0,-2.8015,-2.7958,-2.9361,-2.8788,-2.9121,-3.0543,-3.1219,-3.1515,-3.1515,-3.1162,-3.0835,-3.0543,-3.0032,-3.0208,-3.0776,-3.0479,-3.0315,-3.0299,-3.0013,-2.9886,-2.9854,-2.9552,-2.9441,-2.9441,-2.9441,-2.9409,-2.9409,0.0,0.0,0.0,0.0,0.0,0.0,0.0,0.0,0.0,0.0,0.0,-1.039,-1.0649,-1.0229,0.0,0.0,0.0,0.0,-1.0675,-1.1694,0.0,-1.3278,-1.3433,-1.3494,-1.3403,-1.2605,-1.248,-1.309,-1.2245,-1.2824,-1.4665,-1.4849,-1.536,-1.6079,-1.5742,-1.5416,-1.514,-1.4005,-1.3443,-1.3258,-1.2856,-1.3061,-1.3495,-1.1986,-1.1706,-1.2059,-1.0996,-1.0791,-1.108,-1.1682,-1.2071,-1.2204,0.0,0.0,0.0,0.0,0.0,0.0,0.0,0.0,0.0,0.0,0.0,0.0,0.0,0.0,0.0,0.0,0.0,0.0,0.0,0.0,0.0,0.0,0.0,0.0,0.0,0.0,0.0,0.0,0.0,0.0,0.0,0.0,0.0,0.0,0.0,0.0,-2.7983,-2.6692,-2.6502,-2.7593,-2.7071,-2.7569,-2.9416,-2.9776,-3.0236,-3.092,-3.0703,-3.0549,-3.0385,-3.0026,-3.0034,-3.0324,-2.9888,-2.9743,-2.9743,-2.9584,-2.9536,-2.952,-2.9361,-2.9298,-2.9298,-2.9298,-2.9425,-2.9615,0.0,0.0,0.0,0.0,0.0,0.0,0.0,0.0,0.0,0.0,0.0,0.0,-1.0853,0.0,0.0,0.0,0.0,0.0,-1.1017,0.0,0.0,0.0,-1.3064,-1.3031,-1.2591,-1.1939,-1.1843,-1.2281,-1.1688,-1.2415,-1.4469,-1.4874,-1.6012,-1.7669,-1.6902,-1.6222,-1.5611,-1.4447,-1.386,-1.3664,-1.2973,-1.345,-1.4316,-1.2518,-1.2409,-1.3012,-1.1441,-1.0984,-1.1176,-1.1706,-1.2011,-1.2018,0.0,0.0,0.0,0.0,0.0,0.0,0.0,0.0,0.0,0.0,0.0,0.0,0.0,0.0,0.0,0.0,0.0,0.0,0.0,0.0,0.0,0.0,0.0,0.0,0.0,0.0,0.0,0.0,0.0,0.0,0.0,0.0,0.0,0.0,0.0,0.0,-2.6732,-2.5413,-2.5171,-2.6123,-2.5534,-2.6163,-2.8061,-2.8152,-2.8634,-2.9464,-2.9841,-2.9841,-2.9608,-2.9817,-2.9769,-2.9553,-2.9401,-2.9345,-2.9425,-2.9425,-2.9488,-2.9552,-2.9552,-2.9552,-2.9552,-2.9552,-2.9727,-2.9965,0.0,0.0,0.0,0.0,0.0,0.0,0.0,0.0,0.0,0.0,0.0,0.0,-1.0587,-1.0179,-1.0024,-1.0293,-1.0293,0.0,0.0,0.0,0.0,0.0,0.0,0.0,-1.3033,-1.1933,-1.1797,-1.2768,-1.1773,-1.2681,-1.5232,-1.5006,-1.6271,-1.8639,-1.7311,-1.6123,-1.5111,-1.4306,-1.4119,-1.4256,-1.4017,-1.3909,-1.4014,-1.4642,-1.4775,-1.4437,-1.3073,-1.2916,-1.3206,0.0,-1.2252,-1.2536,-1.1909,-1.1615,-1.1441,0.0,0.0,0.0,0.0,0.0,0.0,0.0,0.0,0.0,0.0,0.0,0.0,0.0,0.0,0.0,0.0,0.0,0.0,0.0,0.0,0.0,0.0,0.0,0.0,0.0,0.0,0.0,0.0,0.0,0.0,0.0,0.0,0.0,-2.589,-2.4361,-2.4227,-2.5758,-2.464,-2.4785,-2.6429,-2.6725,-2.6942,-2.7018,-2.8162,-2.8237,-2.7546,-2.9124,-2.9336,-2.863,-2.9064,-2.9488,-2.979,-2.979,-2.9981,-3.0267,-3.0267,-3.0267,-3.0267,-3.0267,-3.0283,-3.0346,0.0,0.0,0.0,0.0,0.0,0.0,0.0,0.0,0.0,0.0,0.0,0.0,0.0,-1.0444,-1.0315,-1.0702,-1.0857,0.0,0.0,0.0,0.0,0.0,0.0,0.0,-1.264,-1.1624,-1.129,-1.1653,-1.1087,-1.1827,-1.3724,-1.4439,-1.5445,-1.6617,-1.656,-1.6576,-1.6558,-1.4898,-1.4339,-1.4533,-1.4088,-1.4665,-1.562,-1.4871,-1.5173,-1.5789,-1.4268,0.0,0.0,0.0,0.0,-1.2385,-1.1954,-1.1666,-1.1369,-1.0719,-1.0899,-1.1465,0.0,0.0,0.0,0.0,0.0,0.0,0.0,0.0,0.0,0.0,0.0,0.0,0.0,0.0,0.0,0.0,0.0,0.0,0.0,0.0,0.0,0.0,0.0,0.0,0.0,0.0,0.0,0.0,0.0,0.0,-2.4302,-2.3028,-2.2694,-2.35,-2.2855,-2.3204,-2.4831,-2.5741,-2.6168,-2.6168,-2.6612,-2.6612,-2.639,-2.7686,-2.8152,-2.7918,-2.8913,-2.9361,-2.9488,-2.9488,-2.9695,-2.9997,-2.9997,-3.0124,-3.0315,-3.0315,-2.9934,-2.9518,0.0,0.0,0.0,0.0,0.0,0.0,0.0,0.0,-0.9981,-1.0143,0.0,0.0,0.0,0.0,-1.0649,-1.0961,-1.1191,-1.14,-1.1566,-1.2089,0.0,0.0,0.0,0.0,-1.2497,-1.1647,-1.1192,-1.1082,-1.0745,-1.1294,-1.2681,-1.3689,-1.4721,-1.5655,-1.576,-1.6308,-1.7014,-1.5599,-1.4999,-1.5101,-1.4915,-1.5503,-1.6525,-1.6163,-1.6585,-1.7201,0.0,0.0,0.0,0.0,0.0,0.0,-1.2302,-1.1618,-1.0934,-1.0551,-1.0803,-1.1285,-1.1576,0.0,0.0,0.0,0.0,0.0,0.0,0.0,0.0,0.0,0.0,0.0,0.0,0.0,0.0,0.0,0.0,0.0,0.0,0.0,0.0,0.0,0.0,0.0,0.0,0.0,0.0,0.0,0.0,0.0,-2.2775,-2.1953,-2.166,-2.2109,-2.196,-2.2396,-2.3426,-2.4227,-2.4596,-2.4596,-2.4929,-2.4943,-2.467,-2.6111,-2.6852,-2.7027,-2.8202,-2.9001,-2.9472,-2.9472,-2.9679,-2.9923,-2.9665,-2.9704,-2.9816,-2.9472,-2.9047,-2.8534,0.0,0.0,0.0,0.0,0.0,0.0,0.0,0.0,-0.99,-0.9911,0.0,0.0,0.0,0.0,0.0,-1.1067,-1.1224,-1.1338,-1.1338,-1.2016,-1.2412,-1.2412,0.0,0.0,-1.2668,-1.204,-1.1577,-1.1272,-1.0824,-1.1235,-1.2381,-1.2881,-1.4197,-1.6128,-1.5065,-1.5182,-1.6242,-1.6219,-1.6113,-1.597,-1.6449,-1.6541,-1.6573,-1.865,-1.9145,0.0,-1.8118,-1.7756,0.0,-1.6018,0.0,0.0,-1.2969,-1.1402,-1.0219,-1.0587,-1.0707,-1.0816,0.0,0.0,0.0,0.0,0.0,0.0,0.0,0.0,0.0,0.0,0.0,0.0,0.0,0.0,0.0,0.0,0.0,0.0,0.0,0.0,0.0,0.0,0.0,0.0,0.0,0.0,0.0,0.0,0.0,-2.087,-2.1249,-2.121,-2.1285,-2.166,-2.2109,-2.2334,-2.2334,-2.2334,-2.2334,-2.2334,-2.3159,-2.3098,-2.2396,-2.4448,-2.5478,-2.5817,-2.6997,-2.8355,-2.9717,-2.9806,-2.9939,-3.0123,-2.9321,-2.8985,-2.8815,-2.7962,-2.7605,-2.7527,0.0,0.0,0.0,0.0,0.0,-1.0479,-1.0404,-1.0394,-1.0498,0.0,0.0,0.0,-1.1177,-1.1553,-1.1912,-1.2279,-1.217,-1.2082,-1.2078,-1.2095,-1.2123,-1.2123,-1.2369,-1.2412,-1.2209,-1.201,-1.1526,-1.0802,-1.0993,-1.1312,-1.1676,-1.2314,-1.3378,-1.4805,-1.431,-1.4476,-1.5119,-1.4544,-1.5026,-1.6163,-1.5952,-1.6722,0.0,0.0,0.0,0.0,0.0,-1.8903,-1.8263,0.0,-1.6646,-1.5234,0.0,-1.2062,-1.1306,-1.0839,-1.1262,-1.1757,-1.125,0.0,0.0,0.0,0.0,0.0,0.0,0.0,0.0,0.0,0.0,0.0,0.0,0.0,0.0,0.0,0.0,0.0,0.0,0.0,0.0,0.0,0.0,0.0,0.0,0.0,0.0,0.0,-2.0271,-2.0575,-2.0604,-2.1005,-2.1386,-2.166,-2.2109,-2.2334,-2.2334,-2.2334,-2.2334,-2.2334,-2.2546,-2.2558,-2.2321,-2.3572,-2.4136,-2.4348,-2.6339,-2.7423,-2.7901,-2.897,-2.9278,-2.8987,-2.8702,-2.8406,-2.7947,-2.772,-2.6977,-2.6201,0.0,0.0,0.0,-1.0735,-1.0929,-1.1079,-1.1079,-1.1079,-1.1133,0.0,0.0,0.0,-1.1898,-1.2361,-1.2763,-1.2899,-1.2614,-1.2405,-1.2381,-1.2142,-1.1995,-1.1995,-1.2259,-1.2316,-1.2154,-1.2178,-1.1759,-1.0884,-1.118,-1.1284,-1.1266,-1.1928,-1.2674,-1.3335,-1.3227,-1.3403,-1.3833,-1.3057,0.0,0.0,-1.6429,0.0,0.0,-1.9048,-1.9429,0.0,0.0,0.0,-1.8694,-1.8625,-1.7445,0.0,0.0,-1.3025,-1.2312,-1.1682,-1.1986,-1.2373,-1.1902,-1.2119,-1.2578,0.0,0.0,0.0,0.0,0.0,0.0,0.0,0.0,0.0,0.0,0.0,0.0,0.0,0.0,0.0,0.0,0.0,0.0,0.0,0.0,0.0,0.0,0.0,0.0,0.0,-1.9831,-2.0025,-1.9919,-2.0717,-2.1207,-2.111,-2.1819,-2.2102,-2.2102,-2.2211,-2.2334,-2.2334,-2.2225,-2.2102,-2.2164,-2.2543,-2.2985,-2.355,-2.4847,-2.5794,-2.6281,-2.7263,-2.786,-2.8193,-2.7402,-2.6884,-2.6578,-2.6148,-2.5568,-2.4866,0.0,0.0,-1.1122,-1.1316,-1.1585,-1.1779,-1.1824,-1.1801,-1.1822,0.0,-1.1876,-1.2167,-1.2937,-1.3297,-1.3442,-1.3215,-1.2767,-1.2449,-1.2382,-1.2133,-1.1942,-1.192,-1.219,-1.2303,-1.228,-1.2381,-1.2055,-1.1275,-1.1332,-1.1231,-1.1046,-1.1723,-1.2011,-1.1946,-1.1987,-1.2242,-1.2548,-1.2046,0.0,-1.5231,-1.7201,-1.7853,0.0,0.0,-1.974,-1.9135,-1.9605,-1.9424,-1.8911,-1.8921,-1.78,0.0,0.0,-1.4256,-1.3435,-1.2976,-1.2916,-1.2988,-1.2868,-1.2856,-1.3145,0.0,0.0,0.0,0.0,-1.5283,0.0,0.0,0.0,0.0,0.0,0.0,0.0,0.0,0.0,0.0,0.0,0.0,0.0,0.0,0.0,0.0,0.0,0.0,-1.9519,-1.9255,-1.9381,-1.9422,-1.9315,-2.0356,-2.0734,-2.0287,-2.1268,-2.1776,-2.1776,-2.2152,-2.2297,-2.2211,-2.2005,-2.1909,-2.1909,-2.1643,-2.2087,-2.3067,-2.3145,-2.3843,-2.4805,-2.507,-2.6082,-2.7332,-2.5805,-2.514,-2.4918,-2.4154,-2.376,-2.376,0.0,-1.1165,-1.1598,-1.1618,-1.199,-1.2321,-1.2554,-1.2578,-1.2619,-1.2802,-1.3007,-1.3405,-1.4116,-1.3933,-1.3717,-1.3672,-1.3229,-1.2737,-1.2199,-1.1892,-1.1685,-1.1446,-1.1839,-1.1916,-1.1511,-1.2227,-1.2137,-1.1066,-1.144,-1.1491,-1.125,-1.1626,-1.1752,-1.1676,-1.1514,-1.1578,-1.1846,-1.2415,0.0,-1.4906,-1.5736,0.0,-1.8831,-1.9398,-1.9965,-2.0311,-2.0073,-1.9935,-1.9725,-1.9104,-1.8406,-1.7527,0.0,0.0,-1.5692,-1.4135,-1.428,-1.4763,-1.3906,-1.3821,-1.3894,0.0,0.0,0.0,0.0,-1.3598,0.0,0.0,0.0,0.0,0.0,0.0,0.0,0.0,0.0,0.0,0.0,0.0,0.0,0.0,0.0,0.0,0.0,0.0,-1.9772,-1.9586,-1.9358,-1.9289,-1.9481,-1.9785,-2.0004,-2.011,-2.0863,-2.1292,-2.1292,-2.1776,-2.1945,-2.1945,-2.2102,-2.2186,-2.2174,-2.1909,-2.1934,-2.2202,-2.2873,-2.3302,-2.3599,-2.3852,-2.4434,-2.5064,-2.4903,-2.4556,-2.4087,-2.3908,-2.376,-2.376,-1.093,-1.1467,-1.1921,-1.2046,-1.2455,-1.2894,-1.3231,-1.3312,-1.3373,-1.362,-1.3954,-1.4223,-1.4352,-1.4256,-1.4083,-1.4038,-1.3362,-1.2828,-1.2459,-1.1968,-1.1596,-1.1316,-1.1663,-1.1782,-1.1704,-1.2036,-1.1981,-1.1565,-1.142,-1.1219,-1.0975,-1.1344,-1.1398,-1.1243,-1.1287,-1.1603,-1.2162,0.0,-1.3391,-1.4877,-1.6301,0.0,-1.9145,-1.9808,-2.0247,-2.0318,-1.997,-1.9692,-1.9392,-1.8584,-1.8285,0.0,0.0,-1.6875,-1.6803,0.0,-1.5167,-1.5331,-1.4509,-1.4304,0.0,-1.4449,0.0,0.0,0.0,0.0,0.0,0.0,0.0,0.0,0.0,0.0,0.0,0.0,0.0,0.0,0.0,0.0,0.0,0.0,0.0,0.0,0.0,0.0,-1.9807,-1.9522,-1.9203,-1.9161,-1.9347,-1.9599,-1.9656,-1.9634,-2.0308,-2.066,-2.066,-2.1055,-2.1462,-2.1873,-2.2005,-2.2138,-2.2321,-2.1993,-2.1873,-2.1922,-2.2228,-2.2183,-2.1898,-2.2321,-2.2623,-2.2744,-2.3317,-2.335,-2.3068,-2.32,-2.3249,-2.3273,-1.1134,-1.1628,-1.2073,-1.2224,-1.2753,-1.3222,-1.3618,-1.3696,-1.389,-1.4277,-1.4729,-1.4934,-1.4697,-1.4794,-1.4755,-1.4638,-1.3704,-1.3095,-1.3085,-1.2356,-1.1779,-1.1543,-1.1661,-1.1833,-1.2019,-1.1844,-1.1811,-1.1964,-1.1312,-1.0843,-1.0597,-1.1042,-1.11,-1.0825,-1.128,-1.1918,-1.2694,0.0,0.0,-1.5323,0.0,-1.8408,-1.8819,-1.9922,-2.0161,-1.9841,-1.9565,-1.9262,-1.8758,-1.8057,-1.8155,-1.8507,-1.7565,-1.7552,0.0,0.0,0.0,0.0,0.0,0.0,0.0,0.0,0.0,-1.4678,0.0,0.0,0.0,-1.4328,0.0,0.0,0.0,0.0,0.0,0.0,0.0,0.0,0.0,0.0,0.0,0.0,0.0,0.0,0.0,0.0,-1.9531,-1.9444,-1.8977,-1.887,-1.9333,-1.9469,-1.9469,-1.9232,-1.9645,-1.9969,-2.0038,-2.0215,-2.0793,-2.1571,-2.1752,-2.1933,-2.21,-2.2017,-2.1945,-2.1933,-2.1667,-2.1282,-2.0793,-2.121,-2.1246,-2.0994,-2.1895,-2.2211,-2.2358,-2.2576,-2.2648,-2.2685,-1.0672,-1.1262,-1.1771,-1.1794,-1.2512,-1.3099,-1.3144,-1.3395,-1.3825,-1.4686,-1.5225,-1.5741,-1.6385,-1.6226,-1.6075,-1.6061,-1.4977,-1.4234,-1.4068,-1.3204,-1.2578,-1.2303,-1.2131,-1.1964,-1.1747,-1.1964,-1.1822,-1.1391,-1.1143,-1.0884,-1.0597,-1.0921,-1.085,-1.0583,-1.1589,-1.231,0.0,0.0,-1.4784,0.0,-1.7661,-1.7684,0.0,-1.864,-1.9076,-1.9037,-1.9025,-1.8784,-1.8449,0.0,-1.8755,-1.9002,0.0,-1.8641,-1.9051,0.0,0.0,0.0,0.0,0.0,0.0,0.0,-1.632,0.0,0.0,0.0,-1.4618,-1.3532,0.0,0.0,0.0,0.0,0.0,0.0,0.0,0.0,0.0,0.0,0.0,0.0,0.0,0.0,0.0,0.0,0.0,-1.9742,-1.8683,-1.8539,-1.9723,-1.9291,-1.9069,-1.9291,-1.9069,-1.908,-1.9417,-1.9743,-2.0026,-2.0321,-2.115,-2.151,-2.1455,-2.1965,-2.2211,-2.2273,-2.1933,-2.1812,-2.174,-2.1293,-2.11,-2.116,-2.1704,-2.2054,-2.2259,-2.2295,-2.2382,-2.2418,-1.0606,-1.1209,-1.1673,-1.1511,-1.2303,-1.2926,-1.2926,-1.3802,-1.4643,-1.5042,-1.5752,-1.6334,-1.6698,-1.6385,-1.6223,-1.6487,0.0,-1.4646,0.0,-1.3514,-1.2862,-1.2621,-1.2292,-1.2116,-1.2113,-1.1941,-1.1747,-1.1509,-1.0756,-1.0315,-1.0179,-1.0296,-1.0664,-1.1313,-1.2473,0.0,-1.4826,0.0,-1.5305,0.0,0.0,0.0,0.0,-1.8794,-1.9345,-1.8982,-1.9022,-1.8714,-1.8336,0.0,-1.8251,0.0,0.0,0.0,0.0,0.0,0.0,0.0,0.0,0.0,0.0,0.0,0.0,0.0,-1.4847,0.0,-1.4521,0.0,0.0,0.0,0.0,0.0,0.0,0.0,0.0,0.0,0.0,0.0,0.0,0.0,0.0,0.0,0.0,0.0,0.0,0.0,0.0,-1.7963,-1.8998,-1.9032,-1.9034,-1.9,-1.8664,-1.8586,-1.872,-1.8887,-1.9273,-1.9955,-2.0473,-2.0947,-2.1425,-2.1602,-2.1965,-2.2259,-2.2138,-2.1931,-2.1543,-2.1546,-2.1366,-2.1007,-2.1294,-2.1449,-2.1354,-2.1583,-2.1631,-2.168,-1.0573,-1.1143,-1.1489,-1.1284,-1.1984,-1.2699,-1.297,-1.404,-1.4899,-1.5156,-1.5957,-1.6655,-1.6915,-1.6646,0.0,-1.7314,-1.6284,-1.5536,0.0,0.0,-1.3596,-1.355,-1.2775,-1.2505,-1.2705,-1.2102,-1.1758,-1.1704,-1.0638,-1.0153,-1.0207,-1.0181,-1.0712,-1.1738,-1.3228,-1.4746,-1.6072,0.0,0.0,-1.7088,-1.6623,-1.6631,-1.7104,-1.8815,-1.9231,-1.8854,-1.8854,-1.8643,-1.8315,-1.7761,-1.794,0.0,-1.8136,0.0,0.0,0.0,0.0,0.0,-1.7542,0.0,0.0,0.0,0.0,0.0,0.0,0.0,0.0,0.0,0.0,0.0,0.0,0.0,0.0,-1.3761,0.0,0.0,0.0,0.0,0.0,0.0,0.0,0.0,0.0,0.0,0.0,0.0,0.0,0.0,-1.8406,-1.8625,-1.8799,-1.8901,-1.8429,-1.8216,-1.835,-1.8384,-1.8719,-1.9345,-1.9818,-2.0251,-2.084,-2.1159,-2.1602,-2.2001,-2.2073,-2.1853,-2.144,-2.1676,-2.146,-2.1028,-2.1054,-2.1013,-2.0786,-2.0977,-2.1026,-2.1062,-1.0501,-1.0996,-1.1255,-1.1035,-1.1629,-1.2429,-1.3359,-1.3685,-1.4148,-1.507,0.0,0.0,0.0,0.0,0.0,0.0,0.0,-1.7423,-1.7675,0.0,-1.5037,-1.5484,-1.3919,-1.319,0.0,-1.257,-1.1975,-1.1704,-1.0972,-1.0724,-1.0939,-1.0969,-1.1081,-1.1413,-1.3711,-1.5077,-1.5707,-1.6887,-1.8077,-1.917,-1.8624,-1.8625,-1.8805,0.0,-1.809,-1.8433,-1.8433,0.0,0.0,-1.8142,-1.8262,0.0,0.0,0.0,0.0,0.0,0.0,0.0,0.0,0.0,0.0,-1.6936,0.0,0.0,0.0,0.0,-1.4875,0.0,0.0,0.0,0.0,-1.428,-1.4099,-1.3604,-1.3737,0.0,0.0,0.0,0.0,0.0,0.0,0.0,0.0,0.0,0.0,0.0,0.0,0.0,-1.8577,-1.8018,-1.8094,-1.913,-1.8248,-1.7966,-1.8616,-1.8316,-1.8194,-1.8283,-1.9209,-1.9462,-1.9167,-2.0745,-2.1401,-2.1358,-2.1629,-2.1735,-2.1637,-2.139,-2.1284,-2.1287,-2.1126,-2.1122,-2.1086,-2.0844,-2.0678,-2.0714,-1.0954,-1.1626,-1.2063,-1.1337,0.0,-1.2705,-1.4011,-1.4516,0.0,0.0,0.0,0.0,0.0,-1.8519,-1.8681,0.0,0.0,-1.8013,-1.7998,-1.6644,0.0,0.0,0.0,-1.4245,0.0,-1.3545,-1.2877,-1.2167,-1.1607,-1.1262,-1.1177,-1.1186,-1.1532,-1.2192,-1.4166,-1.5736,0.0,0.0,0.0,0.0,0.0,-1.8117,-1.8541,0.0,0.0,-1.8433,-1.8433,-1.8433,0.0,-1.8347,-1.8287,-1.8306,-1.8313,-1.8186,-1.8138,-1.8429,-1.853,0.0,0.0,0.0,-1.9017,-1.7349,0.0,0.0,0.0,0.0,0.0,0.0,0.0,0.0,0.0,-1.416,-1.4183,-1.3833,-1.3845,-1.3592,0.0,0.0,0.0,0.0,0.0,0.0,0.0,0.0,0.0,0.0,0.0,0.0,0.0,-1.7456,-1.7848,-1.8317,-1.7948,-1.7909,-1.8295,-1.8191,-1.8205,-1.8205,-1.8721,-1.9153,-1.9462,-1.9897,-2.048,-2.1014,-2.1063,-2.1124,-2.1285,-2.1204,-2.1307,-2.1558,-2.11,-2.1114,-2.1281,-2.0834,-2.0665,-2.0678,-1.1739,-1.2227,0.0,0.0,0.0,-1.3287,-1.4406,0.0,0.0,0.0,-1.7496,0.0,-1.8985,0.0,-1.9262,0.0,-1.9305,-1.8799,-1.8487,-1.7518,0.0,-1.7163,-1.6108,0.0,0.0,-1.4641,-1.3868,-1.291,-1.2436,-1.2038,-1.1681,-1.1683,-1.1991,-1.2557,0.0,-1.5742,-1.6985,0.0,-1.8035,0.0,0.0,-1.802,0.0,0.0,-1.8433,-1.8433,0.0,-1.8433,-1.8433,-1.8433,-1.8336,-1.8239,-1.839,-1.8218,-1.7992,-1.8342,-1.8446,-1.8483,-1.8586,-1.8914,0.0,-1.7524,-1.6993,0.0,-1.4808,0.0,0.0,0.0,0.0,0.0,0.0,0.0,-1.4171,-1.4292,-1.3992,-1.3359,0.0,0.0,0.0,0.0,0.0,0.0,0.0,0.0,-1.3919,-1.4821,0.0,0.0,0.0,0.0,-1.7514,-1.774,-1.7817,-1.7977,-1.8089,-1.8219,-1.8211,-1.8202,-1.8492,-1.8776,-1.913,-1.9379,-1.9895,-2.0451,-2.0539,-2.0666,-2.091,-2.091,-2.106,-2.1239,-2.1117,-2.1112,-2.1258,-2.0871,-2.0665,-2.0665,0.0,0.0,0.0,0.0,-1.3259,0.0,0.0,0.0,-1.6474,0.0,-1.7712,-1.8422,-1.9071,-1.9413,-1.9822,-2.05,-2.0222,-1.9693,-1.9157,-1.8552,0.0,0.0,-1.7249,-1.6829,-1.7033,-1.581,-1.4759,-1.389,-1.3362,-1.2888,-1.2457,-1.2431,-1.2442,-1.2468,-1.4016,0.0,-1.6079,-1.7444,-1.8467,-1.9141,-1.8626,-1.8433,-1.8433,-1.8433,-1.8433,-1.8433,-1.8433,-1.8433,-1.8433,-1.8433,-1.8433,-1.8433,-1.8433,-1.8433,-1.839,-1.8175,-1.8539,-1.8894,-1.836,-1.8676,-1.8823,-1.7591,0.0,0.0,0.0,0.0,-1.5645,0.0,0.0,0.0,0.0,0.0,-1.4175,-1.4939,-1.4159,-1.3119,-1.2115,0.0,0.0,0.0,0.0,0.0,0.0,0.0,-1.3,-1.4521,-1.3966,0.0,0.0,0.0,-1.7092,-1.7398,-1.7918,-1.8101,-1.8089,-1.8315,-1.8315,-1.811,-1.8443,-1.8443,-1.8157,-1.9198,-1.9668,-1.9715,-2.0077,-2.036,-2.0447,-2.0447,-2.0447,-2.0575,-2.1082,-2.1108,-2.0875,-2.0718,-2.0665,-2.0665,-1.3415,-1.4105,-1.4737,0.0,-1.3897,-1.3856,0.0,0.0,0.0,0.0,-1.8649,-1.9219,-2.0102,-2.0253,-2.0361,-2.0544,-2.0524,0.0,0.0,0.0,0.0,-1.9133,-1.8229,-1.7669,-1.754,-1.6204,-1.53,-1.4823,-1.3685,-1.3136,-1.32,-1.2878,-1.2704,-1.2753,0.0,0.0,-1.5907,-1.678,-1.7729,-1.8556,-1.8482,-1.8433,0.0,0.0,-1.8433,-1.8433,-1.8433,-1.8433,-1.8433,-1.8433,-1.8433,-1.8433,-1.8433,-1.8433,-1.8422,-1.8369,-1.846,-1.8552,-1.8352,-1.8432,-1.8517,-1.7966,-1.7445,-1.6881,0.0,0.0,0.0,0.0,0.0,0.0,0.0,0.0,0.0,-1.4248,-1.3626,-1.3107,0.0,0.0,0.0,0.0,0.0,0.0,0.0,0.0,-1.3302,-1.3474,0.0,0.0,0.0,0.0,0.0,-1.6588,-1.7261,-1.7736,-1.8089,-1.8153,-1.8239,-1.8347,-1.8417,-1.8458,-1.8501,-1.8677,-1.8964,-1.9399,-1.9431,-1.9634,-2.007,-2.007,-2.0221,-2.05,-2.0774,-2.0918,-2.1053,-2.0786,-2.0665,-2.0665,-1.4267,0.0,0.0,-1.6032,0.0,0.0,-1.6481,0.0,0.0,-1.8444,-1.9112,0.0,-2.0188,-2.063,-2.0877,-2.0877,-2.077,0.0,-2.0242,0.0,0.0,-1.951,-1.8993,-1.8595,-1.8347,-1.726,0.0,-1.5558,0.0,-1.3685,-1.3308,-1.2942,-1.2753,-1.263,0.0,-1.4215,0.0,-1.6686,-1.7686,-1.8293,-1.839,0.0,0.0,-1.8433,-1.8433,-1.8433,-1.8433,-1.8433,-1.8433,-1.8433,-1.8433,-1.8433,-1.8433,-1.8433,-1.8433,-1.8433,-1.8433,-1.8433,-1.8433,-1.8433,-1.8401,-1.8272,-1.7938,-1.7486,-1.6937,-1.6915,-1.685,0.0,0.0,0.0,0.0,0.0,0.0,-1.3568,-1.3136,-1.2835,0.0,0.0,0.0,0.0,0.0,0.0,0.0,0.0,0.0,0.0,0.0,0.0,0.0,0.0,0.0,-1.5978,-1.7022,-1.7751,-1.7927,-1.8035,-1.8207,-1.8433,-1.8433,-1.8438,-1.8517,-1.8469,-1.8741,-1.9238,-1.9199,-1.9463,-1.9919,-1.9919,-1.9995,-2.0274,-2.0403,-2.0646,-2.0923,-2.0697,-2.0623,-2.0665,0.0,0.0,0.0,0.0,0.0,0.0,0.0,-1.7675,0.0,-1.8595,0.0,-2.007,-2.0103,-2.078,-2.1276,-2.1276,0.0,-2.077,-2.0328,-2.0307,-2.0091,-1.9618,-1.9564,-1.9424,-1.9082,-1.8358,0.0,0.0,-1.516,-1.4169,-1.306,-1.2856,-1.2619,0.0,0.0,0.0,0.0,-1.6912,-1.7905,0.0,-1.8326,-1.8412,-1.8433,-1.8433,-1.8433,-1.8433,-1.8433,-1.8433,-1.8433,-1.8433,-1.8433,-1.8433,-1.8433,-1.8433,-1.8503,-1.8503,-1.8503,-1.8503,-1.8503,-1.8433,-1.8433,-1.8433,-1.8433,-1.8218,-1.7378,-1.7184,-1.7184,-1.7184,-1.6798,-1.6904,0.0,0.0,0.0,0.0,0.0,0.0,0.0,0.0,0.0,0.0,0.0,0.0,0.0,0.0,0.0,0.0,0.0,0.0,0.0,0.0,0.0,-1.5537,-1.6962,0.0,-1.7712,0.0,-1.8164,-1.839,-1.8422,-1.8422,-1.839,-1.8484,-1.8768,-1.909,-1.9205,-1.9501,-1.9951,-1.9908,-1.9919,-1.9973,-2.0106,-2.0376,-2.0688,-2.047,-2.0497,-2.0575,0.0,0.0,0.0,0.0,0.0,-1.8439,-1.8936,-1.8575,-1.8692,-1.9768,-2.0382,-2.0802,-2.1007,-2.1179,-2.1276,-2.1276,-2.1243,0.0,0.0,0.0,0.0,-2.0113,-1.9898,-1.9585,-1.9082,-1.7863,-1.6883,0.0,-1.474,-1.3599,-1.2872,-1.2829,-1.2581,0.0,0.0,0.0,-1.5547,-1.6644,0.0,-1.8358,-1.8218,-1.8272,-1.8433,-1.8433,-1.8433,-1.8433,-1.8433,-1.8433,-1.8433,-1.8433,-1.8433,-1.8433,-1.8433,-1.8643,-1.8924,-1.8924,-1.8924,-1.8924,-1.8924,-1.8643,-1.8433,-1.8433,-1.8433,-1.839,-1.8218,-1.8186,-1.8186,-1.8186,-1.8014,-1.7773,-1.7546,0.0,0.0,0.0,0.0,0.0,0.0,0.0,0.0,0.0,0.0,0.0,0.0,0.0,0.0,0.0,0.0,0.0,0.0,0.0,0.0,0.0,-1.6147,0.0,0.0,0.0,-1.7906,-1.8153,-1.8347,-1.8336,-1.8164,-1.8374,-1.8763,-1.9222,-1.917,-1.9482,-2.0095,-1.9919,-2.007,-2.0349,-2.0181,-2.0376,-2.0614,-2.0184,-2.0048,-2.005,0.0,0.0,0.0,0.0,0.0,0.0,0.0,-1.9787,0.0,-1.9994,-2.0328,-2.0587,-2.0716,-2.106,-2.1276,-2.1276,-2.1276,-2.1222,-2.1103,-2.0974,-2.0802,-2.0587,-2.0231,0.0,-1.9521,-1.8466,-1.7518,-1.6667,-1.5257,-1.4137,-1.3297,-1.298,-1.2624,-1.2264,0.0,-1.4094,0.0,0.0,0.0,-1.8272,-1.8401,-1.8519,-1.8627,-1.8685,-1.8738,-1.8738,-1.8738,-1.8724,-1.8595,-1.8476,-1.8433,-1.8433,-1.8643,-1.8854,-1.9063,-1.9262,-1.9122,-1.8993,-1.8993,-1.8714,-1.8433,-1.8433,-1.8433,-1.8433,-1.8433,-1.8433,-1.8433,-1.8433,-1.8567,-1.8484,-1.7719,-1.6608,0.0,0.0,0.0,0.0,0.0,0.0,0.0,0.0,0.0,0.0,0.0,0.0,0.0,0.0,0.0,0.0,0.0,0.0,0.0,0.0,0.0,0.0,0.0,0.0,0.0,-1.7906,-1.8142,-1.8196,-1.8099,-1.8207,-1.8595,-1.931,-1.9192,-1.9504,-2.0103,-1.9972,-1.9995,-2.0199,-2.0106,-2.0229,-2.032,-2.004,-1.9929,-1.9895,0.0,-1.8194,0.0,0.0,-1.9526,0.0,-2.0125,-2.0697,-2.078,-2.0297,-2.0317,-2.0436,-2.0436,-2.0942,-2.1276,-2.1276,-2.1276,-2.1276,-2.1276,-2.1173,-2.1032,-2.091,-2.0632,-2.0276,-1.993,-1.9198,-1.825,0.0,-1.5871,-1.4695,-1.3653,-1.3093,-1.2791,0.0,0.0,0.0,0.0,0.0,-1.7529,-1.8272,-1.8584,-1.8735,-1.8799,-1.8993,-1.9068,-1.9068,-1.8942,-1.8939,-1.8821,-1.8655,-1.8547,-1.8573,-1.8924,-1.9133,-1.9273,-1.9611,-1.9471,-1.9203,-1.9122,-1.8854,-1.8503,-1.8433,-1.8433,-1.8433,-1.8503,-1.8503,-1.8573,-1.8643,-1.8956,-1.8907,-1.801,-1.7054,0.0,0.0,0.0,0.0,0.0,0.0,0.0,0.0,0.0,0.0,0.0,0.0,0.0,0.0,0.0,0.0,-1.2104,-1.2858,0.0,0.0,0.0,-1.6237,-1.7141,0.0,-1.769,0.0,-1.7949,-1.8035,-1.7949,-1.8046,-1.8502,-1.9297,-1.9166,-1.9522,-2.0103,-1.9972,-1.9919,-1.9898,-2.0032,-2.0081,-1.9951,-1.9825,-1.9716,-1.9611,0.0,0.0,0.0,0.0,0.0,0.0,0.0,-2.0819,-2.1222,-2.1157,-2.1168,-2.1179,-2.1179,-2.1243,-2.1276,-2.1276,-2.1276,-2.1276,-2.1276,-2.1658,-2.1537,-2.091,-2.1263,-2.1001,-1.9941,-1.937,-1.8422,0.0,0.0,0.0,0.0,-1.3104,-1.3297,0.0,0.0,0.0,0.0,-1.7109,-1.7873,-1.8702,-1.8541,-1.8595,-1.8789,-1.881,-1.8821,-1.8789,-1.8584,-1.8696,-1.9079,-1.9261,-1.9171,-1.8924,-1.8982,-1.9483,-1.997,-2.004,-2.004,-1.9901,-1.9611,-1.9262,-1.8854,-1.8503,-1.8433,-1.8503,-1.8854,-1.8924,-1.9052,-1.9401,-1.9369,-1.8905,-1.7751,-1.801,-1.7785,0.0,0.0,0.0,0.0,0.0,0.0,0.0,0.0,0.0,0.0,0.0,0.0,0.0,0.0,0.0,-1.2337,-1.2459,-1.3034,-1.4213,0.0,-1.5666,-1.6409,-1.7281,0.0,-1.741,-1.7873,-1.7863,-1.7464,-1.7895,-1.8523,-1.9198,-1.9264,-1.9587,-2.0103,-1.9972,-1.9919,-1.9898,-2.0032,-1.9859,-1.9519,-1.9404,-1.9146,-1.8888,0.0,0.0,0.0,0.0,0.0,0.0,0.0,-2.1108,-2.1276,-2.1276,-2.1276,-2.1276,-2.1276,-2.1276,-2.1276,-2.1276,-2.1276,-2.1438,-2.168,-2.1842,-2.1878,-2.1939,-2.1702,-2.1334,-2.0671,-1.9962,-1.9148,0.0,0.0,0.0,0.0,0.0,0.0,0.0,0.0,-1.6344,-1.6904,-1.754,-1.8272,-1.9004,-1.9058,-1.9133,-1.923,-1.937,-1.9498,-1.9465,-1.9446,-1.9464,-1.9475,-1.9652,-1.9607,-1.9498,-1.9998,-2.0354,-2.0615,-2.0674,-2.0556,-2.0309,-2.0005,-1.9622,-1.9298,-1.8943,-1.9022,-1.9089,-1.9151,-1.923,-1.9401,-1.9541,-1.9414,-1.9142,-1.8569,-1.817,-1.7854,0.0,0.0,0.0,0.0,0.0,0.0,0.0,0.0,0.0,0.0,0.0,0.0,0.0,0.0,0.0,-1.236,-1.2372,-1.2964,-1.4134,0.0,-1.5692,-1.6147,-1.7173,-1.7529,-1.7163,-1.7636,-1.7701,-1.7389,-1.7572,-1.8167,-1.908,-1.9442,-1.977,-2.0103,-1.9972,-1.9919,-1.9887,-1.9878,-1.9797,-1.9595,-1.9255,-1.9067,-1.8845,-2.1268,0.0,-2.0776,0.0,-2.1491,-2.1009,-2.1442,-2.1518,-2.1438,-2.1357,-2.1276,-2.1276,-2.1276,-2.1438,-2.1518,-2.1518,-2.1599,-2.1842,-2.2084,-2.2245,-2.2406,-2.2567,-2.2145,0.0,-2.129,-2.0429,-1.9776,-1.9315,-1.8125,0.0,0.0,0.0,0.0,0.0,-1.6506,-1.7163,-1.7561,-1.8153,-1.8735,-1.9262,-1.9435,-1.9499,-1.9521,-1.9682,-1.9747,-1.9779,-1.9845,-1.9859,-1.9854,-2.0043,-2.0146,-2.0252,-2.067,-2.0839,-2.0959,-2.1137,-2.0982,-2.0592,-2.0274,-1.9959,-1.9692,-1.9301,-1.9358,-1.9542,-1.937,-1.9577,-1.9715,-1.9703,-1.9593,-1.9369,-1.9169,-1.85,-1.8063,-1.834,0.0,0.0,0.0,0.0,0.0,0.0,0.0,-1.4313,0.0,0.0,0.0,0.0,0.0,0.0,-1.2779,-1.2767,0.0,0.0,0.0,0.0,0.0,-1.712,-1.7475,-1.7012,-1.7486,-1.7561,-1.727,-1.7543,-1.8125,-1.8916,-1.9482,-1.9826,-2.0003,-1.995,-1.9919,-1.9876,-1.9768,-1.9653,-1.9464,-1.9189,-1.9023,-1.8893,-2.3,-2.271,-2.2565,-2.3105,-2.2878,-2.2395,-2.2003,-2.1922,-2.1761,-2.1357,-2.1276,-2.1276,-2.1276,-2.168,-2.1922,-2.1922,-2.2326,-2.2567,-2.2567,-2.297,-2.305,0.0,0.0,-2.2282,-2.1625,-2.068,-2.0125,-2.007,0.0,0.0,-1.8162,0.0,-1.7072,-1.7023,-1.7981,-1.8541,-1.8778,-1.9036,-1.9273,-1.9499,-1.9499,-1.9499,-1.9499,-1.9499,-1.9499,-1.9519,-1.9332,-1.9681,-2.015,-2.0376,-2.085,-2.119,-2.0662,-2.0781,-2.1112,-2.139,-2.1281,-2.0993,-2.0627,-2.0309,-1.9982,-1.937,-1.9358,-1.9542,-1.9656,-1.9933,-2.0038,-1.9934,-1.9893,-1.9724,-1.9181,-1.9072,-1.8828,-1.8063,0.0,0.0,0.0,0.0,0.0,0.0,-1.473,-1.3891,-1.4641,0.0,0.0,0.0,0.0,0.0,0.0,0.0,0.0,-1.4556,-1.531,0.0,-1.6007,-1.712,-1.7475,-1.7012,-1.7486,-1.7475,-1.7023,-1.7895,-1.8383,-1.8672,-1.9404,-1.9726,-1.9697,-1.9874,-1.9919,-1.9876,-1.9768,-1.9435,-1.9122,-1.9233,-1.9074,-1.881,-2.3297,-2.3072,-2.3011,-2.3175,-2.2889,-2.2406,-2.2003,-2.1922,-2.1761,-2.1357,-2.1518,-2.168,-2.168,-2.1842,-2.2003,0.0,-2.2487,-2.2728,0.0,-2.313,-2.3291,-2.344,-2.3119,-2.2842,-2.2428,-2.1547,-2.099,-2.0796,0.0,0.0,0.0,-1.8811,-1.8605,-1.8413,-1.8709,-1.9105,-1.9409,-1.965,-2.0114,-2.0572,-2.0572,-2.0572,-2.0572,-2.0261,-2.0336,-2.0527,-2.0337,-2.0432,-2.0654,-2.0817,-2.103,-2.1174,-2.1198,-2.1522,-2.1934,-2.1776,-2.1679,-2.145,-2.0366,-2.0062,-1.9689,-1.8647,-1.8809,-1.9267,-1.9255,-1.9922,-2.0383,-1.9989,-1.9881,-1.9724,-1.9181,-1.9072,-1.9024,-1.8792,-1.8755,0.0,0.0,0.0,0.0,0.0,0.0,-1.5008,0.0,-1.434,0.0,0.0,0.0,0.0,0.0,0.0,0.0,0.0,-1.601,0.0,-1.6007,-1.6969,-1.7324,-1.7001,-1.7335,-1.741,-1.727,-1.7705,-1.8123,-1.8603,-1.9129,-1.9435,-1.9686,-1.9874,-1.9919,-1.9887,-1.9658,-1.9465,-1.9359,-1.9195,-1.9109,-1.9047,-2.3123,-2.3253,-2.3371,-2.305,-2.2475,-2.19,-2.1497,-2.085,-2.0525,-2.0769,-2.1011,-2.1335,-2.1842,-2.1922,0.0,-2.2326,-2.2487,-2.2728,-2.297,-2.297,-2.3199,-2.376,-2.344,-2.3128,-2.2976,0.0,0.0,-2.1724,-2.1187,-2.0727,-2.0399,-2.018,-1.9836,-1.9415,-1.9533,-1.9782,-2.0003,-2.0158,-2.0613,-2.1071,-2.1071,-2.1071,-2.106,-2.0834,-2.091,-2.1112,-2.0997,-2.0947,-2.1063,-2.1234,-2.1138,-2.0935,-2.1018,-2.1167,-2.1249,-2.1393,-2.1349,-2.1038,-1.9806,-1.9413,-1.9104,-1.8222,-1.8342,-1.8822,-1.9096,-1.9922,-2.0521,-1.9989,-1.9881,-1.9724,-1.9181,-1.9072,-1.9072,-1.9072,-1.8855,-1.8493,-1.795,0.0,0.0,0.0,0.0,0.0,0.0,-1.5354,0.0,0.0,0.0,0.0,0.0,0.0,0.0,-1.5306,-1.6629,0.0,-1.6547,-1.7077,-1.7303,-1.7141,-1.7206,-1.7281,-1.7389,-1.7749,-1.8191,-1.8603,-1.9118,-1.9435,-1.9686,-1.9874,-1.9919,-1.9898,-1.9585,-1.9499,-1.9478,-1.9338,-1.9284,-1.9295,-2.2728,-2.3119,0.0,0.0,-2.1647,0.0,-2.0413,-1.887,-1.8218,-1.9359,-1.9684,-2.0262,-2.1508,-2.175,-2.1831,-2.175,0.0,0.0,0.0,-2.2567,-2.297,-2.368,-2.344,-2.3211,-2.3211,-2.2555,-2.2349,-2.2744,-2.2465,-2.2169,-2.1782,-2.1472,-2.0973,-2.0221,-2.0444,-2.0533,-2.0597,-2.0597,-2.0759,-2.106,-2.106,-2.106,-2.106,-2.106,-2.1146,-2.1187,-2.1316,-2.1296,-2.1323,-2.1438,-2.1073,-2.0626,-2.0325,-1.9903,-1.9637,-2.0428,-2.0404,-2.0032,-1.9057,-1.8545,-1.8239,-1.7935,-1.8009,-1.8273,-1.9039,-1.9979,-2.0496,-2.0014,-1.9905,-1.9724,-1.9193,-1.9084,-1.9072,-1.9048,-1.8807,-1.8432,-1.7901,0.0,0.0,0.0,0.0,0.0,0.0,-1.638,-1.6779,0.0,0.0,0.0,0.0,0.0,-1.5623,-1.6467,-1.7013,-1.7323,-1.7367,-1.7356,-1.7356,-1.7346,-1.713,-1.7163,-1.741,-1.8039,-1.8417,-1.8694,-1.9344,-1.9653,-1.9686,-1.9874,-1.9919,-1.9898,-1.9681,-1.9595,-1.9595,-1.9595,-1.9595,-1.9627,0.0,0.0,-2.182,-2.1658,-2.0251,-1.8923,-1.82,-1.6884,-1.5811,-1.5475,-1.7211,-1.8535,-1.887,-2.0424,-2.1173,-2.0536,-2.1184,-2.1577,-2.1577,-2.2234,-2.2648,-2.2889,-2.3359,-2.368,-2.368,-2.2579,-2.1894,-2.1772,-2.2268,-2.2555,-2.2786,-2.233,-2.1971,-2.1633,-2.1399,-2.1318,-2.1435,-2.1435,-2.1274,-2.1037,-2.1037,-2.1037,-2.0962,-2.0673,-2.1199,-2.196,-2.1676,-2.1671,-2.164,-2.1129,-2.0847,-2.0586,-1.9867,-1.9638,-1.9757,-1.9977,-1.9759,-1.9297,-1.8627,-1.8164,-1.7643,-1.6856,-1.7295,-1.8205,-1.8959,-1.9769,-2.034,-2.0207,-2.0026,-1.9784,-1.9499,-1.9205,-1.9012,-1.8807,-1.8372,-1.7877,-1.7346,-1.7165,0.0,0.0,-1.6911,-1.7129,-1.6936,-1.702,-1.7008,0.0,0.0,0.0,0.0,-1.6669,-1.6514,-1.6331,-1.707,-1.7476,-1.7378,-1.7184,-1.7087,-1.7098,-1.7227,-1.741,-1.7647,-1.7963,-1.8407,-1.8938,-1.9134,-1.9435,-1.9686,-1.9874,-1.9919,-1.9919,-2.0155,-2.0283,-2.0283,-2.0594,-2.0755,-2.068,-2.2073,-2.1577,-2.092,-1.9694,-1.8291,-1.6975,-1.5647,-1.4174,-1.3273,-1.3672,-1.499,-1.6311,-1.7556,-1.8789,-1.946,-1.9398,-2.0211,-2.0688,-2.0688,-2.1184,-2.1588,-2.1992,-2.2797,-2.3279,-2.3279,-2.2567,-2.1925,-2.1381,-2.2009,-2.2443,-2.2666,-2.2704,-2.2573,-2.2212,-2.2058,-2.1989,-2.2001,-2.1504,-2.1231,-2.1133,-2.0631,-2.0436,-2.0447,-2.072,-2.1215,-2.1735,-2.2015,-2.1885,-2.1437,-2.098,-2.0311,-1.9628,-1.9075,-1.8754,-1.856,-1.8644,-1.8842,-1.8695,-1.7847,-1.7409,-1.7075,-1.6225,-1.7127,-1.8233,-1.8437,-1.9517,-2.0388,-2.0146,-2.0086,-1.9941,-1.9543,-1.935,-1.9084,-1.8589,-1.8155,-1.7648,-1.7008,-1.702,0.0,-1.673,-1.7382,-1.7756,-1.7503,-1.7793,-1.7841,-1.7479,0.0,0.0,-1.7537,-1.7672,-1.7382,-1.6713,-1.739,-1.7707,-1.7529,-1.7532,-1.7555,-1.7453,-1.7708,-1.7951,-1.8205,-1.8653,-1.9173,-1.9676,-1.9847,-2.0156,-2.0438,-2.0452,-2.0458,-2.0458,-2.0684,-2.0748,-2.0834,-2.0985,-2.1071,-2.1071,-2.0677,-2.0343,-1.944,-1.7229,-1.5917,-1.4683,-1.3019,-1.138,-1.0809,-1.2198,-1.2688,-1.3762,-1.6082,-1.6574,-1.7156,-1.8174,-1.8981,-1.9469,-1.9805,-1.9967,-2.0363,-2.1092,-2.2073,-2.2567,-2.2395,-2.2406,-2.1992,-2.1092,-2.1769,-2.2145,-2.2304,-2.2635,-2.2751,-2.2548,-2.2435,-2.24,-2.2276,-2.1252,-2.091,-2.0888,-1.9995,-1.9617,-1.9714,-2.0604,-2.0928,-2.091,-2.1895,-2.161,-2.0812,-2.0661,-1.9747,-1.8517,-1.8261,-1.7677,-1.7189,-1.7423,-1.7943,-1.8217,-1.7114,-1.6754,-1.6545,-1.6091,-1.7057,-1.8052,-1.7701,-1.9039,-2.0299,-1.9939,-1.9951,-1.9891,-1.9472,-1.9328,-1.9016,-1.8175,-1.7998,-1.7636,-1.6754,0.0,-1.7165,-1.6851,-1.7756,-1.8227,-1.7768,-1.8505,-1.8746,-1.8106,-1.865,-1.88,-1.8293,-1.8477,-1.8192,-1.7293,-1.7739,-1.7913,-1.7738,-1.8061,-1.8194,-1.8026,-1.8342,-1.8604,-1.8867,-1.9494,-2.0074,-2.0509,-2.0731,-2.1,-2.1308,-2.1193,-2.1071,-2.1146,-2.1146,-2.1222,-2.1222,-2.1297,-2.1297,-2.1297,-1.7074,-1.5917,-1.5013,-1.4608,-1.2873,-1.1297,-1.0627,-0.9388,-0.8478,-0.8307,-0.9971,-1.1297,-1.1712,-1.3115,-1.4683,-1.6254,-1.65,-1.7246,-1.8837,-1.9561,-2.0049,-2.0211,-2.175,-2.2234,-2.1497,-2.1497,-2.1092,-2.0211,-2.105,-2.1845,-2.2499,-2.1892,-2.2157,-2.3224,-2.2284,-2.1765,-2.1548,-2.1133,-2.0189,-1.9053,-1.886,-1.8774,-1.8774,-1.8967,-1.9411,-1.9995,-2.0178,-2.0178,-1.9908,-1.9229,-1.885,-1.8471,-1.7759,-1.7455,-1.7407,-1.7573,-1.7738,-1.7788,-1.7559,-1.7085,-1.6583,-1.6211,-1.6638,-1.7184,-1.7317,-1.8205,-1.914,-1.9485,-1.9082,-1.8769,-1.8852,-1.8519,-1.7978,-1.7146,-1.7729,-1.7793,-1.6525,0.0,-1.7925,-1.7418,-1.83,-1.8927,-1.8831,-1.8782,-1.8782,-1.8879,-1.8794,-1.8704,-1.8564,-1.8824,-1.8576,-1.7859,-1.7958,-1.8003,-1.7953,-1.8245,-1.8379,-1.8353,-1.8616,-1.8878,-1.913,-1.9668,-2.0132,-2.0521,-2.0627,-2.0943,-2.1308,-2.1193,-2.1071,-2.1146,-2.1447,-2.1585,-2.166,-2.196,-2.2109,-2.2035,-1.609,-1.5514,-1.4616,-1.3211,-1.1961,-1.0909,-0.9889,-0.8848,-0.8164,-0.8214,-0.8844,-0.9643,-1.0643,-1.1469,-1.2625,-1.4436,-1.5424,-1.6336,-1.7173,-1.8491,-1.9326,-1.9326,-2.0536,-2.1022,-2.0607,-2.0607,-2.0211,-1.9326,-2.0211,-2.0779,-2.1184,-2.1254,-2.1684,-2.2214,-2.1771,-2.1355,-2.1112,-2.0395,-1.9608,-1.8718,-1.8227,-1.7949,-1.8035,-1.8612,-1.8963,-1.9249,-1.9832,-1.9637,-1.9077,-1.8699,-1.8319,-1.7873,-1.7502,-1.7426,-1.7407,-1.754,-1.756,-1.7603,-1.7611,-1.7176,-1.6664,-1.6523,-1.6806,-1.7137,-1.7127,-1.7808,-1.8559,-1.8526,-1.8349,-1.8228,-1.8084,-1.8136,-1.8033,-1.7343,-1.7796,0.0,0.0,-1.7805,-1.8203,-1.795,-1.8601,-1.9072,-1.9072,-1.8963,-1.8951,-1.906,-1.9096,-1.9032,-1.8892,-1.9131,-1.9149,-1.8836,-1.8434,-1.8312,-1.8623,-1.8622,-1.875,-1.9001,-1.9283,-1.9543,-1.9814,-2.0332,-2.0722,-2.1019,-2.1254,-2.1502,-2.1793,-2.1763,-2.1735,-2.1735,-2.196,-2.2035,-2.2035,-2.2259,-2.2334,-2.2259,-1.4773,-1.4698,-1.3969,-1.2016,-1.1349,-1.0808,-0.9838,-0.9018,-0.8657,-0.9072,-0.8759,-0.8964,-1.0304,-1.0472,-1.1221,-1.2977,-1.4268,-1.5329,-1.6155,-1.7363,-1.8255,-1.8673,-1.9316,-1.9805,-1.9967,-1.9805,-1.9398,-1.8673,-1.9398,-1.9805,-2.0049,-2.0444,-2.0931,-2.1324,-2.1039,-2.0831,-2.057,-1.9707,-1.9091,-1.8648,-1.7789,-1.7473,-1.7521,-1.8288,-1.8478,-1.8415,-1.9274,-1.9004,-1.8319,-1.8319,-1.7873,-1.7426,-1.7426,-1.7426,-1.7426,-1.7426,-1.7495,-1.7619,-1.758,-1.7287,-1.6864,-1.6744,-1.6946,-1.7117,-1.6798,-1.7237,-1.7676,-1.7618,-1.746,-1.7318,-1.7241,-1.7544,-1.7705,-1.7152,0.0,0.0,0.0,-1.7935,-1.8259,-1.8396,-1.8843,-1.9193,-1.9253,-1.9265,-1.9241,-1.9169,-1.941,-1.9422,-1.9096,-1.9386,-1.9531,-1.947,-1.8947,-1.8829,-1.9084,-1.9078,-1.9233,-1.9633,-1.9845,-2.0043,-2.0102,-2.0636,-2.0817,-2.0886,-2.1146,-2.1517,-2.1855,-2.1855,-2.1731,-2.1641,-2.1641,-2.1664,-2.1723,-2.1723,-2.196,-2.2259,-1.1231,-1.0815,-1.0519,-1.0466,-1.0058,-0.9758,-0.9774,-0.9697,-0.9692,-0.9702,-0.9697,-0.9692,-0.9865,-0.986,-1.0548,-1.2344,-1.2143,-1.3328,-1.6601,-1.6435,-1.6919,-1.8592,-1.8755,-1.9163,-1.9967,-1.9245,-1.8755,-1.8673,-1.8755,-1.9245,-1.9967,-1.9235,-1.9723,-2.1243,-2.0227,-1.9734,-1.9783,-1.947,-1.87,-1.7806,-1.7709,-1.7596,-1.7426,-1.7521,-1.7512,-1.7502,-1.7597,-1.7588,-1.7502,-1.7502,-1.7426,-1.7426,-1.7426,-1.7426,-1.7426,-1.7426,-1.7558,-1.765,-1.7599,-1.755,-1.7408,-1.6854,-1.6734,-1.6664,-1.6301,-1.5947,-1.5938,-1.7117,-1.6027,-1.5341,-1.6553,-1.641,-1.5982,-1.5481,0.0,0.0,-1.6638,-1.7444,-1.8152,-1.8623,-1.912,-1.9543,-1.9808,-1.9833,-1.9724,-1.9524,-1.97,-1.9627,-1.9108,-1.9567,-1.9736,-1.9536,-1.947,-1.9338,-1.9084,-1.9338,-1.9603,-1.9857,-2.0122,-2.0033,-1.9588,-1.9851,-1.9633,-1.9036,-1.9275,-1.9821,-2.0424,-2.0424,-2.0112,-1.9637,-1.9637,-1.9778,-1.9962,-1.9962,-2.0962,-2.2109,-1.0654,-1.057,-1.0524,-1.0646,-1.0259,-1.0068,-1.0657,-1.0187,-0.9908,-1.0237,-1.0014,-0.9798,-0.9798,-0.9798,-1.0056,-1.0746,-1.1561,-1.2642,-1.3998,-1.4957,-1.6426,-1.8601,-1.8673,-1.8837,-1.9163,-1.8837,-1.8673,-1.8673,-1.8673,-1.8837,-1.9163,-1.8837,-1.9082,-1.9632,-1.8072,-1.7315,-1.7119,-1.5988,-1.5138,-1.4742,-1.5847,-1.6207,-1.6286,-1.7189,-1.7615,-1.7596,-1.7473,-1.7426,-1.7273,-1.6186,-1.6111,-1.6421,-1.6298,-1.6351,-1.6576,-1.7234,-1.7445,-1.7388,-1.6638,-1.7034,-1.754,-1.7307,-1.6492,-1.5776,-1.5632,-1.5202,-1.5032,-1.5346,-1.5454,-1.5522,-1.574,-1.6032,-1.6126,-1.5954,0.0,-1.699,-1.7028,-1.7577,-1.8063,-1.8227,-1.884,-1.9265,-1.9374,-1.9531,-1.9376,-1.8647,-1.9518,-1.9425,-1.7708,-1.7462,-1.7727,-1.8422,-1.8202,-1.8484,-1.9314,-1.9487,-1.9002,-1.8031,-1.8129,-1.7454,-1.6087,-1.6365,-1.6387,-1.614,-1.637,-1.6926,-1.7722,-1.7659,-1.7812,-1.817,-1.817,-1.822,-1.829,-1.829,-1.8678,-1.9208,-1.0618,-1.0797,-1.0846,-1.1003,-1.0709,-1.0696,-1.1302,-1.0822,-1.0452,-1.0791,-1.0559,-1.0334,-1.0334,-1.0334,-1.0334,-1.0334,-1.1253,-1.2095,-1.2613,-1.4201,-1.5863,-1.7465,-1.7973,-1.8101,-1.8101,-1.8538,-1.8673,-1.8673,-1.8673,-1.8673,-1.8673,-1.8673,-1.8673,-1.8592,-1.6837,-1.5943,-1.5666,-1.3956,-1.3051,-1.2909,-1.4193,-1.4643,-1.4661,-1.5735,-1.6477,-1.6937,-1.6802,-1.6757,-1.6593,-1.5435,-1.4991,-1.5025,-1.4871,-1.4996,-1.5368,-1.6156,-1.637,-1.6181,-1.5497,-1.587,-1.6488,-1.6374,-1.5452,-1.4639,-1.4436,-1.4252,-1.4099,-1.4286,-1.469,-1.4894,-1.4909,-1.4873,-1.4858,-1.4916,-1.495,-1.5342,-1.6156,-1.6501,-1.6947,-1.7748,-1.8418,-1.8635,-1.812,-1.8545,-1.826,-1.6823,-1.8136,-1.8334,-1.6856,-1.631,-1.6385,-1.7092,-1.688,-1.7243,-1.8249,-1.8645,-1.8239,-1.6904,-1.6491,-1.537,-1.36,-1.379,-1.3769,-1.3647,-1.3803,-1.429,-1.5018,-1.5331,-1.5641,-1.6135,-1.6348,-1.6563,-1.6617,-1.6312,-1.6572,-1.6906,-1.0725,-1.0922,-1.0992,-1.1232,-1.127,-1.1313,-1.1438,-1.1455,-1.1455,-1.1543,-1.1543,-1.1543,-1.1543,-1.1543,-1.1543,-1.1543,-1.0993,-1.1363,-1.3197,-1.4435,-1.5034,-1.5034,-1.6221,-1.6877,-1.6877,-1.8028,-1.8673,-1.8673,-1.8673,-1.8673,-1.8673,-1.8673,-1.8673,-1.8592,-1.6755,-1.6008,-1.5843,-1.4106,-1.3206,-1.3071,-1.3071,-1.2903,-1.2682,-1.2682,-1.38,-1.5392,-1.5392,-1.5392,-1.5368,-1.5285,-1.4467,-1.3352,-1.3127,-1.3453,-1.3926,-1.4082,-1.4127,-1.4127,-1.4127,-1.4125,-1.4068,-1.3633,-1.3501,-1.3382,-1.279,-1.28,-1.323,-1.4286,-1.3602,-1.3092,-1.4071,-1.2827,-1.1627,-1.1627,-1.1089,-1.1417,-1.3456,-1.3783,-1.4641,-1.705,-1.7939,-1.762,-1.5875,-1.6704,-1.6402,-1.407,-1.5259,-1.6327,-1.6827,-1.6616,-1.6261,-1.569,-1.5827,-1.573,-1.5508,-1.6871,-1.7323,-1.6845,-1.5597,-1.4159,-1.2743,-1.2743,-1.2386,-1.167,-1.1663,-1.2084,-1.2731,-1.3697,-1.3725,-1.3237,-1.4153,-1.4629,-1.4782,-1.393,-1.4654,-1.572,-1.0308,-1.0752,-1.0992,-1.1232,-1.1007,-1.0962,-1.1438,-1.0921,-1.0743,-1.1366,-1.1188,-1.1099,-1.1455,-1.1543,-1.1543,-1.1543,-1.1333,-1.1489,-1.2019,-1.2331,-1.2571,-1.2571,-1.45,-1.5992,-1.6877,-1.7242,-1.7817,-1.8673,-1.8673,-1.8673,-1.8673,-1.8673,-1.8673,-1.8592,-1.5522,-1.4189,-1.3941,-1.0965,-0.9623,-0.9677,-1.0915,-1.1388,-1.1423,-1.2557,-1.3327,-1.3791,-1.3596,-1.372,-1.3793,-1.2316,-1.1999,-1.2168,-1.2064,-1.3151,-1.4362,-1.4065,-1.4038,-1.3887,-1.3015,-1.2788,-1.2954,-1.3824,-1.3177,-1.2328,-1.2213,-1.1937,-1.1837,-1.2258,-1.259,-1.2976,-1.3222,-1.2842,-1.2302,-1.1903,-1.1552,-1.1478,-1.1818,-1.2088,-1.261,-1.3326,-1.405,-1.4265,-1.3725,-1.4374,-1.4276,-1.2895,-1.3363,-1.444,-1.5924,-1.4885,-1.4483,-1.4913,-1.476,-1.4709,-1.4889,-1.5303,-1.4701,-1.32,-1.2294,-1.0785,-0.8925,-0.8925,-0.882,-0.8658,-0.8508,-0.8981,-0.9757,-1.0002,-1.0355,-1.0772,-1.1039,-1.1158,-1.1189,-1.0963,-1.1158,-1.1502,-1.0138,-1.0359,-1.0532,-1.0975,-1.0698,-1.0485,-1.0822,-1.0387,-1.0298,-1.1099,-1.0921,-1.0921,-1.1455,-1.1543,-1.1543,-1.1543,-1.1543,-1.1543,-1.1543,-1.1543,-1.1543,-1.1543,-1.2885,-1.4277,-1.5485,-1.6441,-1.7242,-1.7964,-1.8465,-1.8673,-1.8673,-1.8673,-1.8673,-1.851,-1.502,-1.337,-1.3204,-0.9638,-0.806,-0.8227,-0.9226,-0.9643,-0.98,-1.0722,-1.1517,-1.2162,-1.1993,-1.2125,-1.2118,-1.086,-1.0535,-1.0644,-1.0753,-1.1775,-1.3003,-1.2435,-1.2514,-1.2612,-1.1751,-1.1577,-1.1776,-1.2562,-1.194,-1.1132,-1.1027,-1.1119,-1.1177,-1.1276,-1.181,-1.2272,-1.2279,-1.1764,-1.1148,-1.062,-1.0233,-1.0052,-1.0263,-1.044,-1.0799,-1.133,-1.2013,-1.2084,-1.1489,-1.2172,-1.2353,-1.1657,-1.1781,-1.2615,-1.4164,-1.3246,-1.2742,-1.3068,-1.2848,-1.2589,-1.2503,-1.2208,-1.1752,-1.1142,-1.0129,-0.877,-0.7211,-0.7248,-0.7292,-0.7329,-0.7186,-0.7451,-0.7945,-0.8257,-0.8706,-0.9218,-0.9564,-0.973,-0.9655,-0.9355,-0.9179,-0.9218,-0.9964,-0.9892,-0.9903,-1.0452,-1.02,-0.9918,-1.0016,-0.9927,-1.011,-1.0654,-1.0654,-1.0832,-1.1455,-1.1543,-1.1543,-1.1543,-1.1543,-1.1543,-1.1543,-1.1455,-1.1455,-1.1543,-1.1455,-1.1931,-1.3129,-1.5408,-1.6651,-1.6877,-1.7955,-1.861,-1.8673,-1.8673,-1.8601,-1.8374,-1.4961,-1.3397,-1.3078,-0.9667,-0.8252,-0.8252,-0.8252,-0.8248,-0.8156,-0.8156,-0.9151,-1.0476,-1.0476,-1.0476,-1.0538,-1.0431,-0.984,-0.9064,-0.9252,-0.9911,-1.0486,-1.0066,-1.0309,-1.0715,-1.0601,-1.0574,-1.0574,-1.0574,-1.0318,-1.0003,-0.9758,-1.042,-1.1018,-1.0879,-1.1049,-1.1226,-1.1226,-1.011,-0.9,-0.8549,-0.8012,-0.7951,-0.8817,-0.8763,-0.9104,-1.0486,-1.1002,-1.0678,-0.9251,-1.0098,-1.0696,-1.0491,-1.0509,-1.0946,-1.2108,-1.1828,-1.1415,-1.0851,-1.0706,-1.0131,-0.9189,-0.8636,-0.8993,-1.0245,-0.8846,-0.7799,-0.7141,-0.7215,-0.7252,-0.7248,-0.7154,-0.7113,-0.7187,-0.792,-0.8288,-0.8371,-0.9138,-0.9473,-0.9398,-0.8656,-0.8295,-0.8302,-0.9112,-0.9408,-0.9716,-0.9903,-0.9595,-0.9375,-0.9804,-0.929,-0.9322,-1.0555,-1.0387,-1.0476,-1.1366,-1.1543,-1.1543,-1.1543,-1.1543,-1.1543,-1.1543,-1.1099,-1.1099,-1.1455,-1.1099,-1.1172,-1.1859,-1.3359,-1.5042,-1.6877,-1.7167,-1.7743,-1.8673,-1.8673,-1.8174,-1.715,-1.4968,-1.3529,-1.2453,-1.0325,-0.9473,-0.9473,-0.9473,-0.9171,-0.8759,-0.8759,-0.8711,-0.8645,-0.8645,-0.8896,-0.9147,-0.9128,-0.8939,-0.875,-0.8797,-0.9404,-1.0185,-0.9927,-1.0309,-1.0732,-1.0704,-1.0699,-1.0699,-1.0699,-1.0568,-1.0351,-1.0019,-1.0004,-1.0103,-0.9984,-1.0001,-1.0041,-1.0041,-0.9812,-0.9421,-0.8659,-0.8403,-0.8169,-0.7721,-0.7482,-0.7504,-0.7859,-0.796,-0.7983,-0.7861,-0.8493,-0.9346,-1.029,-1.0303,-1.0773,-1.1671,-1.1714,-1.1544,-1.1154,-1.1148,-1.0476,-0.9058,-0.8935,-0.8855,-0.883,-0.7968,-0.7456,-0.7231,-0.7178,-0.7154,-0.715,-0.706,-0.7019,-0.7019,-0.7237,-0.731,-0.731,-0.7478,-0.7559,-0.7559,-0.7413,-0.7327,-0.7314,-0.8716,-0.8848,-0.9067,-0.9288,-0.903,-0.8852,-0.9162,-0.8862,-0.8994,-1.0204,-1.0119,-1.0387,-1.1366,-1.1543,-1.1543,-1.1543,-1.1543,-1.1366,-1.1099,-1.0832,-1.0743,-1.0743,-1.0743,-1.0832,-1.1099,-1.2008,-1.358,-1.6077,-1.6584,-1.753,-1.8673,-1.811,-1.7539,-1.6793,-1.4435,-1.299,-1.2294,-1.0574,-0.9798,-0.9798,-0.9798,-0.9592,-0.9288,-0.9288,-0.9171,-0.8871,-0.8871,-0.904,-0.9206,-0.8902,-0.8973,-0.9043,-0.8523,-0.9026,-0.9716,-0.9361,-0.9652,-1.0143,-1.0252,-1.0361,-1.0404,-1.0404,-1.0522,-1.0563,-1.0264,-1.0052,-0.9889,-0.9775,-0.9709,-0.9671,-0.9671,-0.9715,-0.9531,-0.8925,-0.8729,-0.8483,-0.7777,-0.7468,-0.7288,-0.7191,-0.7043,-0.7204,-0.7779,-0.8569,-0.9318,-0.9966,-1.0044,-1.0286,-1.0865,-1.0866,-1.0681,-1.0458,-1.0151,-0.9537,-0.8536,-0.8303,-0.8175,-0.7995,-0.7528,-0.7239,-0.7194,-0.715,-0.7125,-0.7121,-0.7031,-0.7015,-0.7052,-0.7007,-0.699,-0.699,-0.699,-0.699,-0.699,-0.699,-0.699,-0.6994,-0.8571,-0.8378,-0.8344,-0.8683,-0.8572,-0.8432,-0.8448,-0.8526,-0.8943,-0.9852,-1.003,-1.0387,-1.1366,-1.1455,-1.1366,-1.1277,-1.1277,-1.101,-1.0654,-1.0476,-1.0298,-1.003,-1.0387,-1.0654,-1.0743,-1.1188,-1.2571,-1.4814,-1.5778,-1.6877,-1.8037,-1.7018,-1.6516,-1.6221,-1.364,-1.2429,-1.2188,-1.0722,-1.0116,-1.0116,-1.0116,-1.0019,-0.9913,-0.9913,-0.9903,-0.9798,-0.9798,-0.9798,-0.9702,-0.9184,-0.9332,-0.9484,-0.8534,-0.876,-0.9328,-0.8811,-0.9004,-0.9466,-0.985,-0.9983,-1.0065,-1.0049,-1.0304,-1.0522,-1.0329,-1.0195,-1.0068,-0.9927,-0.9807,-0.972,-0.9704,-0.9682,-0.9521,-0.9071,-0.8995,-0.8799,-0.8125,-0.7845,-0.7629,-0.7423,-0.7298,-0.7603,-0.8345,-0.9244,-0.9671,-0.9671,-0.9596,-0.9666,-0.9966,-0.9688,-0.9548,-0.9548,-0.8885,-0.8407,-0.8035,-0.7723,-0.7529,-0.7521,-0.7362,-0.7243,-0.717,-0.7141,-0.7125,-0.7121,-0.7031,-0.7031,-0.7096,-0.7023,-0.699,-0.699,-0.699,-0.699,-0.699,-0.699,-0.6998,-0.7023,-0.8148,-0.8156,-0.8164,-0.8164,-0.8251,-0.826,-0.8342,-0.8432,-0.8871,-0.9843,-1.003,-1.0387,-1.1366,-1.1099,-1.0654,-1.0209,-1.0209,-1.0209,-1.0119,-0.9674,-0.9674,-0.9941,-1.003,-1.0298,-1.0654,-1.1188,-1.2179,-1.3513,-1.3754,-1.4435,-1.5555,-1.5408,-1.4814,-1.374,-1.3333,-1.2623,-1.1583,-1.1406,-1.1229,-1.1229,-1.1229,-1.0988,-1.0462,-1.0462,-1.0227,-0.9798,-0.9798,-0.9798,-0.9798,-0.9697,-0.9692,-0.9673,-0.8973,-0.9116,-0.9436,-0.883,-0.9063,-0.9466,-0.985,-0.9983,-1.0049,-0.9947,-1.0081,-1.0065,-0.9618,-1.0092,-1.0422,-1.0199,-1.0057,-0.9938,-0.9835,-0.9737,-0.9521,-0.9071,-0.8995,-0.8845,-0.8403,-0.8008,-0.7805,-0.7901,-0.8193,-0.8559,-0.9031,-0.9489,-0.9671,-0.9671,-0.9296,-0.9146,-0.9146,-0.893,-0.875,-0.875,-0.8765,-0.859,-0.8214,-0.8136,-0.7907,-0.7525,-0.7423,-0.7366,-0.735,-0.7194,-0.7125,-0.7121,-0.7031,-0.6998,-0.7007,-0.6994,-0.699,-0.699,-0.699,-0.699,-0.699,-0.699,-0.7039,-0.7096,-0.806,-0.806,-0.806,-0.806,-0.8179,-0.8289,-0.833,-0.8456,-0.8829,-0.9491,-0.9852,-1.0298,-1.101,-1.0832,-1.0476,-1.003,-1.003,-0.9852,-0.9585,-0.9406,-0.9317,-0.9232,-0.9763,-1.0119,-1.0298,-1.1099,-1.1782,-1.2255,-1.2973,-1.39,-1.5112,-1.4435,-1.3827,-1.3284,-1.2577,-1.2025,-1.1543,-1.1543,-1.1543,-1.1543,-1.1543,-1.1333,-1.1108,-1.1108,-1.0988,-1.0771,-1.0771,-1.0771,-1.0673,-1.0344,-1.0237,-1.013,-0.9592,-0.9559,-0.9626,-0.9013,-0.8982,-0.9132,-0.9198,-0.9409,-0.9565,-0.9579,-0.9823,-0.9911,-0.9476,-0.9702,-0.987,-0.9708,-0.9696,-0.9714,-0.9662,-0.9735,-0.9666,-0.9457,-0.9313,-0.9122,-0.8746,-0.8299,-0.8038,-0.7915,-0.8303,-0.8682,-0.9061,-0.9526,-0.9764,-0.9764,-0.9447,-0.9254,-0.9254,-0.8915,-0.8707,-0.8707,-0.8521,-0.8393,-0.8237,-0.792,-0.7686,-0.7525,-0.7484,-0.7439,-0.7386,-0.726,-0.7203,-0.7199,-0.7162,-0.7141,-0.7137,-0.7088,-0.7068,-0.706,-0.7011,-0.699,-0.699,-0.699,-0.7015,-0.7052]}]]